GFSSE_850_spd_000.txt.gz
Wind_Speed
9 7 11 12 12 11 9 8 5 6 4 3 6 3 3 2 2 4 7 5 7 7 5 4 6 8 5 2 3 2 3 3 4 6 8 8 5 7 9 9 7 9 9
12 10 14 13 12 12 10 8 6 6 3 5 8 3 5 1 2 2 2 3 2 1 2 3 8 6 2 2 4 1 4 4 5 7 10 11 7 9 9 6 5 10 11
10 9 15 13 11 9 8 8 8 6 7 5 5 3 3 1 1 2 1 1 2 2 1 2 13 8 5 11 7 3 4 5 9 14 12 6 4 6 5 5 4 5 6
13 9 12 14 10 9 9 6 7 4 6 6 5 4 2 1 1 2 2 2 3 2 4 4 13 7 6 6 5 3 5 7 9 11 13 2 4 6 8 6 7 5 5
14 6 11 9 12 11 10 7 5 7 7 8 6 4 3 2 2 5 4 3 2 2 2 6 10 6 6 5 5 4 5 9 12 10 13 4 5 4 6 6 7 4 2
13 12 15 13 12 10 12 9 6 8 8 8 6 7 2 2 3 7 4 1 2 1 1 2 7 5 4 6 7 6 8 11 13 10 9 8 1 5 6 7 7 6 6
13 13 13 14 16 15 12 12 7 10 9 7 9 8 8 5 4 7 6 2 1 1 1 1 3 5 5 6 7 7 9 11 12 10 5 5 3 3 4 6 6 6 6
12 12 12 16 17 17 14 13 10 13 11 10 9 9 9 6 3 4 1 2 4 3 3 2 3 5 6 7 8 8 9 12 13 10 8 5 3 2 3 5 5 4 4
12 13 12 13 15 16 15 14 10 12 11 10 8 7 9 11 6 6 4 5 6 6 6 5 5 7 8 9 10 9 10 11 12 8 4 5 4 3 1 2 2 2 3
12 11 11 9 9 12 12 11 10 11 10 10 8 8 8 5 9 7 8 9 8 8 8 7 7 9 11 11 11 11 11 11 9 9 11 8 7 5 3 2 1 1 0
10 12 12 12 11 5 6 6 7 11 11 10 9 7 7 8 7 8 10 10 10 11 10 9 9 10 11 12 11 12 12 12 10 8 9 10 10 9 7 6 5 4 3
11 13 15 15 13 12 10 12 9 11 10 9 9 8 7 6 3 13 12 10 11 13 12 10 10 11 11 11 11 12 13 14 13 13 15 13 13 12 11 9 8 8 6
12 12 14 15 16 15 15 15 12 10 8 8 7 8 7 5 12 17 17 15 12 13 13 11 11 12 12 12 12 12 14 15 12 15 16 16 16 16 15 13 12 11 10
11 13 15 16 18 17 15 15 13 10 11 9 9 11 12 12 15 15 13 12 12 12 10 12 12 14 15 16 18 18 17 18 19 20 20 21 20 20 19 18 17 15 15
18 15 15 17 20 19 19 16 15 14 14 14 14 15 17 17 15 14 13 13 15 13 13 12 15 15 16 18 20 21 22 22 23 24 25 25 24 23 24 23 22 21 20
21 20 18 19 23 22 21 20 17 16 15 15 17 18 18 18 17 16 17 16 17 16 14 15 18 17 20 20 22 23 25 26 28 28 29 28 29 28 28 27 27 26 24
24 21 20 22 21 25 24 23 22 19 18 18 17 18 18 18 19 19 19 19 19 19 19 18 19 20 21 22 25 25 27 28 29 31 32 33 33 33 33 32 32 31 30
23 23 24 24 26 23 25 26 25 23 22 22 21 20 21 21 22 22 23 23 23 23 23 23 23 24 26 27 28 29 29 30 31 32 33 35 36 36 38 37 36 36 34
20 22 25 24 26 26 26 26 27 26 25 25 24 23 22 24 25 26 27 27 26 26 27 27 27 27 27 27 27 28 30 30 31 32 35 36 37 39 40 40 40 39 38
18 21 24 25 28 28 28 29 29 29 30 30 30 29 28 29 29 32 33 32 31 30 30 30 31 30 29 29 29 31 30 30 32 35 39 37 39 40 41 43 43 43 42
15 12 19 24 27 29 32 33 35 37 36 35 36 37 36 36 34 35 36 36 35 35 34 33 32 32 33 31 30 31 31 31 34 36 36 40 41 43 43 45 45 44 43
7 15 20 15 20 24 29 32 33 33 36 35 35 36 36 36 36 37 37 38 38 38 38 37 35 34 34 31 31 29 30 32 37 40 41 41 41 39 38 37 37 37 37
16 12 7 20 13 18 21 25 29 28 30 31 32 32 33 33 34 35 36 38 39 39 39 39 38 36 35 32 31 27 13 20 21 22 24 26 29 33 37 37 34 35 33
20 19 16 11 12 14 15 18 23 27 30 30 29 29 29 28 29 29 31 34 38 40 40 40 39 39 35 37 34 38 41 39 25 21 26 27 26 31 33 29 28 27 28
19 19 17 16 12 2 14 17 20 23 26 27 27 27 28 28 29 34 34 32 33 38 40 41 39 38 39 39 40 38 38 43 47 42 35 33 33 36 34 29 30 33 34
18 19 20 19 19 16 12 8 7 13 19 22 24 26 27 27 25 29 32 34 34 33 38 40 41 42 44 43 42 42 41 37 42 38 38 45 37 38 38 42 41 39 35

GFSSE_850_spd_003.txt.gz
Wind_Speed
8 6 13 13 11 12 9 5 6 5 7 2 5 2 4 1 1 7 6 3 1 5 1 3 9 6 4 2 2 5 4 3 3 5 8 8 4 7 7 7 8 8 7
7 7 12 14 14 12 10 8 6 6 7 4 7 4 4 1 3 1 3 1 3 2 2 7 6 5 3 1 3 1 4 4 5 4 5 8 4 7 5 4 5 9 8
8 7 12 13 15 13 11 8 8 7 5 6 8 6 4 2 1 0 2 3 4 3 2 2 8 6 6 8 4 3 4 7 10 6 4 5 1 4 4 4 5 6 7
7 6 11 12 13 10 9 8 7 8 6 6 8 6 3 1 0 1 2 1 4 2 3 3 8 6 6 10 4 5 5 10 11 10 5 4 1 3 4 4 5 5 5
8 6 7 14 12 11 10 8 6 6 7 7 6 6 4 1 2 3 5 3 3 3 2 7 9 5 6 6 6 6 7 10 10 13 6 6 4 3 4 4 4 2 2
9 8 5 10 10 12 10 10 6 6 9 9 8 7 5 4 4 4 5 1 2 2 2 4 8 7 6 8 9 8 10 11 11 12 9 6 5 6 5 4 3 3 3
9 8 7 9 12 13 13 10 9 7 8 9 9 10 10 8 7 5 4 4 2 3 3 5 7 9 6 6 8 9 12 13 13 11 12 9 6 5 4 4 3 3 3
7 8 11 12 15 16 15 13 11 10 9 9 11 10 12 12 9 7 3 3 4 4 4 4 5 7 8 7 8 9 13 13 14 12 10 7 6 5 4 3 2 2 2
7 9 11 10 14 18 17 16 13 12 12 13 12 9 10 12 11 7 5 5 7 6 7 5 6 7 9 10 10 10 13 15 15 14 11 8 7 6 5 4 2 1 1
10 11 12 9 10 16 16 15 13 13 13 13 10 8 8 8 9 6 7 8 8 8 8 8 8 9 11 11 12 12 13 16 15 14 14 11 9 8 8 6 5 4 4
12 10 11 10 8 9 11 11 10 11 10 9 9 8 8 8 8 9 9 10 11 11 11 12 11 11 12 12 13 14 15 16 17 14 16 12 11 11 11 10 9 8 7
9 10 12 11 10 10 11 9 9 8 10 9 10 10 9 8 9 10 7 8 9 12 13 13 12 12 13 14 16 17 16 17 19 17 18 15 14 14 14 14 12 12 11
9 10 13 15 14 14 13 9 9 10 11 10 11 10 8 7 9 8 10 12 15 14 13 14 14 14 14 16 18 18 18 19 21 20 20 18 18 18 18 18 17 16 15
14 13 13 16 18 17 16 15 12 12 11 11 10 10 9 9 10 10 12 13 13 13 13 14 14 15 16 18 20 20 22 22 23 24 23 23 23 22 22 22 22 21 20
17 15 16 17 19 19 19 17 15 14 12 12 12 12 12 13 14 14 15 15 14 15 14 15 15 16 18 20 21 23 24 24 26 27 27 28 28 27 26 26 27 26 25
18 19 19 20 21 21 21 19 18 17 16 14 14 15 15 16 17 18 18 18 18 18 17 18 19 18 19 21 22 23 26 28 28 30 31 32 32 32 32 31 31 31 31
18 20 23 23 21 23 24 23 21 21 19 18 16 16 17 19 20 20 21 22 22 21 21 21 22 23 23 23 26 26 27 29 30 32 33 35 37 37 37 37 37 36 36
20 21 22 23 22 23 24 27 27 24 24 23 21 20 21 22 23 24 24 24 25 25 25 25 25 27 28 28 29 29 29 30 32 34 36 37 38 40 41 43 42 42 42
22 21 20 22 23 24 25 26 27 28 28 26 25 24 25 25 26 28 29 29 30 30 31 30 30 31 31 31 31 31 32 34 36 37 39 40 42 42 43 44 44 44 44
14 20 23 24 25 26 25 25 27 28 30 30 31 30 30 31 32 33 34 34 35 34 36 35 35 34 34 35 32 34 34 34 36 38 40 40 41 42 44 45 45 46 47
10 9 16 23 29 30 28 28 28 31 32 32 34 35 36 36 37 37 37 38 39 38 38 39 38 38 39 38 34 38 37 38 41 42 42 42 43 43 44 45 46 48 49
12 7 9 12 9 19 30 30 29 29 31 31 31 33 34 35 35 36 36 38 39 40 40 41 41 41 43 41 39 37 32 37 43 41 38 39 42 41 43 41 42 44 44
17 17 13 6 11 8 9 15 26 28 28 28 31 31 31 32 32 32 32 33 35 37 40 42 42 42 44 43 41 32 14 18 22 27 22 24 25 30 32 32 33 33 34
16 15 16 14 6 8 8 8 9 18 23 25 27 28 28 27 29 29 30 31 30 32 35 38 42 42 41 44 42 45 45 43 28 26 31 25 24 31 36 36 34 34 35
14 14 14 13 12 9 4 12 15 16 19 22 20 22 22 22 21 24 26 27 30 30 32 33 36 38 40 42 44 44 42 44 49 45 37 45 38 41 40 39 41 43 41
12 12 13 14 15 14 14 12 11 10 11 13 13 14 16 16 16 15 17 21 25 31 32 31 31 32 38 42 45 45 46 37 39 39 40 40 42 47 42 42 42 43 45

GFSSE_850_spd_009.txt.gz
Wind_Speed
6 6 12 18 14 12 12 10 7 7 8 8 3 3 3 4 6 5 5 6 4 4 10 8 11 7 7 7 6 7 9 7 4 3 1 4 6 7 7 5 2 3 4
1 5 10 16 15 15 12 9 7 7 7 6 3 4 2 3 1 4 2 3 4 3 4 6 8 8 8 7 7 6 7 7 6 5 1 4 5 5 6 5 4 4 4
2 3 9 14 13 13 12 9 9 8 7 6 5 4 3 5 5 5 7 3 4 5 3 5 6 8 5 5 8 9 6 8 8 6 4 3 3 3 4 5 5 4 5
2 3 7 12 14 15 13 10 9 8 8 7 8 5 6 6 4 6 5 9 5 5 7 7 6 8 10 7 8 9 9 11 10 7 6 5 3 3 4 5 7 8 8
2 2 5 10 15 16 11 9 9 8 8 7 8 6 8 7 8 8 7 9 10 9 6 5 8 10 10 11 12 10 11 12 11 9 6 6 5 5 5 6 7 7 9
2 2 4 8 12 12 11 9 8 8 6 9 4 6 8 9 7 9 8 6 5 7 6 5 8 8 6 13 12 10 12 15 14 13 10 8 8 8 8 7 7 7 7
2 3 3 6 9 10 10 10 9 9 8 10 8 11 10 11 9 12 8 7 7 7 6 7 7 10 12 10 10 10 12 15 15 15 14 10 8 8 9 9 8 7 6
2 3 3 4 7 9 10 10 9 8 8 10 12 12 14 10 14 15 14 11 8 7 7 8 9 10 12 12 11 11 13 16 16 15 14 15 12 11 12 11 10 9 8
4 4 3 4 6 9 11 12 11 11 10 10 9 10 13 14 16 14 14 12 10 8 9 9 11 11 12 13 13 13 14 17 19 18 17 16 15 13 15 14 13 11 11
7 5 4 5 7 8 10 11 11 12 12 10 10 10 8 13 16 13 12 11 10 10 10 11 12 13 13 14 14 15 16 18 21 21 19 19 18 16 17 17 15 15 14
11 8 7 6 8 8 8 9 11 11 11 10 10 9 9 9 9 10 10 10 10 11 12 14 15 15 16 16 15 16 17 20 22 24 23 22 21 21 20 20 19 18 18
12 10 9 9 9 9 9 8 9 10 10 10 10 10 10 10 10 10 9 9 10 10 11 13 15 16 18 17 17 18 20 21 23 24 26 25 25 24 24 23 24 22 22
13 13 13 12 11 12 11 9 9 9 10 9 10 10 10 10 10 10 10 10 11 12 13 14 15 16 17 18 19 20 21 23 24 26 27 29 29 28 28 27 27 27 26
18 17 16 16 16 15 14 13 11 12 11 11 10 11 12 12 12 11 11 12 14 14 16 16 17 18 19 20 20 21 23 24 25 27 29 30 32 32 32 31 30 31 30
22 20 20 19 19 18 19 18 16 14 13 12 13 14 14 14 15 16 17 18 18 19 19 20 21 22 22 22 22 24 24 25 28 29 31 31 33 36 36 36 33 32 33
21 21 21 22 21 21 21 21 20 17 14 15 16 15 16 17 19 20 22 23 23 23 23 25 26 27 28 27 27 26 28 28 29 31 33 34 35 37 39 39 39 36 35
18 17 19 21 22 22 20 20 21 20 19 18 18 17 18 20 22 22 24 26 27 28 29 30 31 32 33 33 34 32 31 32 33 34 34 36 37 38 41 42 43 43 42
19 21 20 21 22 21 21 20 19 20 21 21 21 20 21 22 24 26 27 29 30 31 32 33 34 36 38 38 38 38 38 37 37 37 37 38 40 40 40 42 45 46 47
13 15 17 20 22 20 21 22 20 21 21 21 21 22 23 24 26 27 29 30 31 32 34 35 36 37 39 41 41 41 41 41 41 41 42 42 43 43 43 44 45 46 47
10 11 11 10 14 17 19 22 23 23 22 22 22 24 25 26 26 28 29 30 30 32 33 34 35 35 37 38 40 42 43 44 44 43 43 45 46 46 45 46 47 48 47
11 8 7 8 8 8 12 20 23 25 25 24 25 27 27 26 26 28 30 29 28 30 30 32 34 35 35 34 37 38 39 41 42 43 41 40 40 39 37 36 37 40 44
16 15 12 10 9 8 4 6 14 19 21 20 21 20 19 21 24 26 26 27 28 30 30 30 32 35 36 30 35 34 28 32 35 36 36 36 35 32 31 33 36 36 32
17 18 17 16 13 12 10 7 4 7 9 12 13 14 15 16 17 18 20 21 22 24 27 27 28 30 35 34 37 35 20 19 30 36 39 40 41 40 39 40 39 39 38
17 16 14 13 14 14 12 9 7 7 7 8 10 10 10 10 11 12 14 16 17 19 21 21 22 25 29 34 33 36 38 40 28 31 32 33 40 42 46 46 44 42 42
13 12 12 11 12 13 13 13 12 11 11 9 8 8 9 9 11 13 14 16 18 19 20 21 23 23 25 30 33 37 37 39 42 41 36 32 34 41 45 45 44 46 46
9 8 9 10 11 10 10 10 10 10 9 9 11 13 15 17 19 20 21 21 22 23 24 24 24 25 26 27 28 29 30 32 33 33 33 35 35 37 44 47 46 46 46

GFSSE_850_spd_012.txt.gz
Wind_Speed
4 4 16 17 14 10 10 6 6 6 7 8 9 2 0 6 6 5 5 6 8 5 9 11 11 7 8 8 8 10 13 12 8 5 4 5 8 4 6 4 1 3 4
2 4 13 16 14 11 13 9 7 6 8 7 4 3 3 2 1 4 2 2 4 4 4 9 12 7 8 8 7 11 9 12 8 6 4 4 9 8 9 5 1 3 4
2 3 8 16 15 14 10 9 7 7 8 6 3 3 2 3 2 4 3 3 3 5 5 4 12 8 8 5 7 10 10 10 9 8 6 5 4 6 7 7 4 5 6
2 1 5 12 13 11 12 10 9 8 9 6 4 5 4 3 3 4 5 11 5 5 6 7 5 7 9 5 7 10 11 11 11 9 7 7 6 6 6 7 8 8 9
3 0 4 10 12 12 13 9 8 8 8 5 7 6 6 5 7 7 8 8 10 11 8 5 6 9 10 10 12 11 12 14 13 11 7 8 7 5 6 5 8 9 10
2 1 3 7 11 14 12 11 8 6 6 4 6 6 6 6 7 6 9 7 7 7 8 5 8 8 8 10 12 12 12 14 13 13 9 8 10 8 9 8 8 9 9
3 1 2 5 9 10 10 9 7 6 6 5 4 5 5 8 8 9 9 10 10 7 7 7 7 9 11 10 11 13 13 15 15 15 14 12 11 9 9 9 10 10 10
2 0 1 3 7 7 8 8 7 6 6 5 8 11 12 10 9 14 13 11 11 9 8 8 8 9 10 11 12 13 12 15 15 16 15 14 14 13 12 13 12 12 12
2 1 1 2 4 8 8 8 8 8 7 7 8 11 9 11 9 10 12 14 11 11 10 11 11 12 12 12 13 14 14 15 17 17 17 16 15 16 14 16 16 15 14
5 4 3 3 5 6 7 9 9 9 9 9 7 7 6 8 10 10 11 11 11 11 11 11 12 14 14 15 15 15 16 17 19 20 20 20 18 19 18 18 20 18 18
8 7 6 5 6 7 7 8 9 10 10 10 9 9 9 8 8 8 9 8 9 10 11 12 15 15 16 17 17 17 18 18 20 23 23 23 23 22 22 20 21 23 21
10 9 8 8 8 8 8 7 8 8 9 10 10 10 10 10 9 9 9 10 12 12 12 13 15 16 17 18 17 18 19 20 22 23 25 25 27 27 26 25 24 25 25
13 12 11 11 11 11 10 9 8 8 9 9 9 9 10 10 11 11 12 12 13 13 14 15 16 17 18 19 19 20 20 21 23 24 27 27 28 30 30 30 28 28 29
16 15 15 15 15 15 14 13 11 10 10 9 9 10 11 12 13 13 14 14 15 15 17 18 19 20 21 21 22 22 22 23 24 25 27 28 30 31 33 34 33 30 30
18 17 17 18 18 18 17 17 15 13 11 11 12 11 12 14 14 15 16 18 19 20 21 22 23 24 26 26 26 27 28 27 26 27 28 28 30 32 34 35 37 36 34
16 16 16 18 18 18 18 18 17 16 14 14 14 13 15 16 17 18 19 21 22 23 25 26 28 29 30 31 31 31 31 32 31 31 31 32 31 33 36 37 39 40 40
15 17 17 17 17 17 16 16 16 15 15 15 15 15 16 18 20 21 22 23 24 24 26 28 29 31 33 35 36 37 36 35 35 35 35 35 35 35 36 38 40 42 43
13 14 15 18 18 17 15 14 16 15 15 15 16 17 18 20 21 22 23 24 25 26 28 30 31 33 35 36 38 38 38 37 36 37 37 38 39 40 40 39 40 41 43
11 13 13 11 10 13 15 15 15 15 14 15 16 18 20 21 22 24 25 25 26 29 30 31 33 34 36 38 39 38 38 38 37 37 38 39 39 40 43 43 42 42 42
6 6 7 8 6 4 9 13 15 16 17 18 20 22 23 24 24 25 25 26 27 29 30 31 32 32 34 34 36 37 37 37 37 39 38 37 37 37 37 36 38 40 41
13 11 14 14 13 8 4 5 9 13 14 15 17 19 19 19 19 20 23 25 25 27 29 29 31 33 33 32 36 37 38 39 38 37 38 35 38 38 35 35 35 34 32
15 16 15 15 14 12 9 7 6 7 7 8 9 11 12 12 14 15 18 19 21 23 24 24 25 26 29 27 32 34 27 29 33 30 33 38 38 36 37 37 37 36 36
16 16 16 17 16 15 14 10 8 6 5 3 7 7 9 11 12 14 15 17 18 20 21 22 22 23 26 26 26 29 20 24 35 36 33 41 40 37 42 39 40 41 42
15 15 14 14 14 15 14 14 12 11 11 12 11 10 10 11 12 14 15 17 19 20 21 22 23 24 24 25 25 26 30 35 33 36 30 27 34 40 38 40 42 43 40
12 11 12 12 12 13 13 14 13 13 12 10 8 10 13 15 17 19 20 22 23 24 25 26 27 27 27 28 27 28 30 32 32 30 38 33 37 38 39 41 42 44 45
10 9 9 10 12 11 11 12 13 12 12 13 15 17 20 21 23 25 26 27 28 28 29 30 30 30 31 31 30 30 29 28 30 31 33 36 37 38 36 35 38 41 42

GFSSE_850_spd_015.txt.gz
Wind_Speed
3 4 13 13 15 9 10 7 5 6 6 8 9 6 4 11 9 9 6 4 6 6 6 12 13 6 7 8 8 9 11 14 11 8 6 5 5 3 4 2 2 1 3
2 3 13 15 14 8 11 7 5 6 6 7 7 1 5 3 1 6 1 3 4 3 2 11 14 6 8 10 8 10 12 12 10 9 6 4 7 6 7 4 2 2 4
3 2 9 15 13 11 11 9 6 7 7 7 5 3 4 2 1 3 2 2 2 3 4 10 16 8 10 7 6 8 10 11 9 9 7 5 8 8 6 8 4 4 6
3 3 5 15 15 12 10 7 7 10 8 7 5 4 5 2 5 4 5 9 5 4 4 4 18 8 9 7 7 9 11 13 11 9 8 8 8 8 7 12 8 8 11
3 4 4 11 12 10 9 7 9 10 8 8 5 7 5 4 4 10 8 6 7 11 10 6 8 6 9 10 10 11 14 13 13 10 9 8 9 8 7 8 12 13 14
3 4 4 7 10 9 11 10 10 8 6 3 6 6 5 5 5 9 3 4 7 6 7 6 6 7 7 9 13 13 12 14 15 12 11 9 10 10 10 10 10 12 11
3 4 4 6 9 11 11 11 9 6 5 2 6 3 5 6 8 10 8 9 10 8 7 5 5 6 9 11 10 14 16 13 17 13 14 13 12 11 12 11 12 11 11
2 4 3 4 8 7 7 7 7 5 4 3 7 5 8 11 12 10 12 12 10 9 8 7 8 8 8 9 10 13 15 12 16 15 15 15 14 14 13 12 15 13 13
2 2 3 2 4 6 6 6 6 5 5 5 4 9 14 13 9 10 13 12 12 11 8 10 11 12 12 12 11 12 13 15 16 16 16 17 15 15 17 15 16 18 16
5 3 2 2 2 2 3 5 6 6 7 7 6 7 7 8 8 11 12 12 12 12 10 9 11 12 15 14 14 15 15 16 17 18 19 19 19 19 19 20 17 20 21
8 5 4 4 3 3 4 5 6 7 7 8 7 7 8 7 8 8 9 10 11 11 11 11 11 13 15 15 14 16 17 18 19 20 21 20 22 23 23 22 22 21 23
10 8 7 7 6 6 5 5 5 6 7 8 7 7 8 7 8 9 9 10 11 12 12 13 13 14 15 16 17 17 17 18 20 21 22 22 23 25 26 27 27 25 25
12 11 10 10 9 9 8 7 6 7 7 7 7 8 8 8 8 9 11 11 13 13 14 15 16 17 18 19 19 20 20 20 21 22 22 22 24 26 28 30 31 31 29
15 14 13 12 13 12 11 10 8 9 7 7 7 8 9 9 10 12 13 14 15 16 17 18 19 20 21 22 23 24 24 24 24 24 25 23 24 26 30 32 33 34 34
15 14 14 14 14 13 13 11 10 10 9 9 9 9 11 12 12 14 15 16 16 17 18 20 21 23 24 25 26 27 28 29 29 30 30 29 27 27 29 32 34 35 36
12 12 13 14 14 13 12 11 9 9 8 10 10 10 12 14 14 15 16 17 18 18 20 22 24 26 27 29 30 31 32 32 33 33 34 34 33 32 32 33 35 37 39
11 13 14 15 16 14 11 9 8 7 8 9 10 12 14 15 16 17 18 18 19 20 21 23 25 27 28 29 32 32 33 33 34 34 35 36 37 38 36 37 38 39 40
7 10 11 11 11 14 12 10 9 8 9 10 11 13 14 15 17 18 20 20 21 23 24 26 27 29 30 31 32 33 34 34 34 33 33 33 33 33 35 36 37 40 42
4 5 6 5 4 8 11 11 10 9 10 11 13 15 16 16 17 19 21 21 22 24 26 27 28 30 30 32 34 36 36 34 34 34 33 33 32 32 32 31 31 32 35
7 8 8 9 8 4 2 4 6 6 8 10 13 14 15 15 16 16 17 18 20 22 24 25 27 27 29 31 32 34 33 32 33 36 36 33 33 32 32 33 33 33 31
13 13 16 17 17 13 10 7 4 2 2 3 5 7 9 10 11 12 13 15 16 18 19 21 23 25 26 26 30 34 34 35 27 31 25 27 36 38 35 34 34 34 35
16 18 18 19 17 15 13 11 10 9 9 9 8 7 8 9 10 11 13 14 16 17 18 20 22 24 25 24 24 29 21 28 24 21 35 38 32 37 36 34 35 37 36
16 17 17 17 17 18 17 14 12 11 11 10 10 10 10 10 11 12 14 16 18 20 22 23 24 25 27 28 24 18 16 17 37 34 30 34 29 31 33 41 35 35 36
16 15 15 15 16 17 15 13 11 12 11 12 10 10 9 11 14 16 19 21 23 25 26 27 27 28 29 30 30 25 27 31 23 33 24 29 31 27 30 37 42 42 41
13 12 13 13 14 14 13 13 12 12 12 9 9 10 13 17 20 22 25 27 28 28 28 28 28 27 27 28 27 27 29 29 26 25 40 29 33 29 30 35 37 35 32
12 11 10 11 13 12 11 12 12 11 11 11 14 17 21 24 28 30 31 31 31 31 30 30 29 28 27 27 27 26 24 21 22 25 33 41 39 39 32 30 35 36 34

GFSSE_850_spd_018.txt.gz
Wind_Speed
2 3 10 13 11 8 5 8 4 5 6 7 9 9 8 10 11 10 9 7 6 8 6 12 13 6 5 8 9 9 9 12 12 11 9 7 6 4 4 4 3 2 4
2 3 10 13 13 8 9 7 5 4 6 7 8 5 3 5 8 10 6 2 3 4 1 11 14 7 8 9 11 10 12 13 10 9 9 7 7 9 7 5 3 4 2
1 3 11 12 11 11 9 5 7 7 8 8 6 3 2 3 4 1 3 4 1 4 4 11 16 11 9 10 8 8 10 15 11 9 9 5 6 12 8 9 3 3 5
2 4 9 14 13 11 8 7 7 8 10 8 5 4 3 3 6 7 6 7 6 6 5 5 16 13 9 8 6 8 10 13 15 10 8 8 8 12 9 10 8 6 8
2 4 8 14 14 11 8 7 7 9 9 8 5 6 4 4 7 8 11 7 6 9 10 6 7 14 12 9 10 10 12 14 15 11 10 10 10 11 10 9 13 11 13
3 4 4 11 11 12 9 10 9 10 9 6 4 6 5 5 5 11 8 4 7 7 7 6 5 7 8 7 13 14 11 13 17 10 11 11 12 13 12 11 12 15 16
3 4 5 9 12 11 10 10 10 9 6 3 6 5 4 4 6 10 14 10 11 10 7 5 5 6 7 9 11 11 15 17 17 10 13 13 12 16 14 14 13 15 14
4 4 5 7 10 10 10 8 8 7 4 3 7 4 7 8 10 13 14 13 14 10 8 8 8 9 9 10 10 11 13 14 15 13 14 15 17 16 16 15 12 17 16
5 5 4 5 8 9 8 8 6 5 4 3 3 7 10 10 11 11 11 12 11 11 10 6 8 10 12 14 15 15 13 14 15 14 16 16 18 17 17 18 16 16 20
6 5 6 6 7 8 8 8 7 6 5 5 4 5 8 10 12 10 11 12 11 11 11 9 7 10 12 15 15 15 15 17 16 15 16 17 20 19 20 21 20 20 20
7 7 6 6 7 9 9 8 6 6 6 6 6 5 6 6 8 8 8 9 10 10 10 10 10 11 11 14 13 14 16 15 14 15 16 20 21 22 23 24 24 23 23
8 8 8 7 8 9 10 8 7 8 7 7 7 7 6 7 8 8 9 9 10 10 11 11 12 13 14 13 12 16 14 13 15 17 18 20 20 22 24 26 28 28 28
10 9 9 9 10 11 11 8 8 7 6 7 7 6 6 7 7 9 10 11 11 13 12 14 15 14 14 15 15 15 16 17 17 19 22 23 21 21 24 27 29 31 32
11 10 11 11 12 13 13 12 9 9 7 6 5 6 6 7 8 9 11 12 12 13 13 15 15 15 17 18 18 19 20 20 21 22 25 30 27 26 26 27 29 31 33
11 11 12 13 14 14 14 13 11 9 8 7 6 6 7 8 9 10 11 12 13 14 15 15 17 17 18 19 20 22 25 26 27 28 29 34 35 32 31 32 32 33 34
11 11 11 13 14 13 14 12 11 9 8 8 7 8 9 9 10 11 13 13 15 15 17 19 20 23 25 24 25 26 27 26 27 28 29 31 36 36 34 35 36 37 38
10 9 11 12 14 16 14 12 11 10 8 8 8 9 10 11 12 13 14 15 15 16 20 21 21 21 21 22 23 23 24 25 26 28 27 27 27 32 31 28 30 34 37
5 6 8 11 13 13 15 13 11 10 9 10 9 9 10 11 12 13 14 15 16 20 20 20 19 20 20 20 21 23 24 25 27 26 26 26 26 28 30 33 30 30 32
0 1 3 3 5 7 11 12 10 9 9 9 8 8 9 10 11 12 13 14 16 16 16 18 20 20 22 21 23 25 25 27 26 25 26 26 26 29 30 30 31 32 31
9 9 8 8 8 8 8 7 6 4 3 2 2 2 3 5 6 7 9 11 13 14 13 16 17 17 17 19 21 23 24 25 25 23 23 22 23 24 26 28 28 30 34
14 16 17 17 16 12 11 10 8 8 7 6 6 6 6 7 8 9 11 13 15 16 18 20 19 20 19 19 22 25 24 23 18 24 21 19 27 29 29 28 32 30 29
19 19 18 18 17 15 13 12 11 11 12 10 9 9 10 10 11 12 14 15 17 18 20 22 23 24 21 19 21 26 22 28 19 19 31 31 25 30 29 27 28 31 32
19 18 18 17 16 16 15 14 13 13 13 11 9 9 10 10 12 14 16 18 20 22 22 22 21 20 19 21 17 16 20 21 34 29 27 28 22 25 30 31 29 30 33
19 18 17 16 16 16 14 13 11 11 10 10 10 10 11 13 15 18 21 22 23 22 22 22 21 21 18 18 19 17 20 24 29 35 21 28 25 23 30 34 33 33 34
17 16 15 14 14 14 12 11 10 10 10 10 9 10 13 17 20 22 24 25 25 24 23 22 22 21 17 17 17 19 20 21 24 29 37 29 34 30 32 34 34 32 32
16 14 13 11 13 12 10 9 9 9 9 10 12 16 19 21 23 26 26 25 24 23 22 22 23 22 22 23 21 18 18 21 24 26 34 38 38 36 31 33 33 30 28

GFSSE_850_spd_021.txt.gz
Wind_Speed
3 6 7 10 10 8 2 3 3 2 4 6 7 8 7 6 7 8 6 8 9 8 2 10 12 7 4 6 9 11 11 13 10 11 8 7 7 6 4 6 4 4 9
4 5 7 10 10 8 5 2 4 4 4 6 7 5 1 3 6 10 10 5 4 6 4 9 13 8 4 7 10 11 10 11 14 9 6 6 6 9 7 7 5 5 9
5 7 7 10 10 9 3 4 5 6 5 7 6 2 2 0 5 5 2 3 3 3 6 9 13 15 10 9 11 10 9 9 14 10 6 4 4 13 12 9 6 3 5
6 8 9 10 12 8 3 5 6 5 8 7 5 1 3 2 2 7 6 7 9 10 9 3 12 15 16 11 8 7 8 11 16 12 5 5 7 14 15 11 10 6 6
5 8 11 9 11 7 7 8 6 6 9 8 5 5 4 2 3 5 9 9 6 9 10 7 6 15 17 14 13 8 9 11 15 10 8 9 8 7 18 14 11 11 8
6 7 4 9 10 11 8 8 7 9 9 7 2 7 3 2 3 8 9 11 11 11 8 6 4 6 11 8 8 13 13 11 15 11 8 11 12 10 17 14 12 13 17
6 6 3 8 11 10 8 8 9 9 7 5 3 6 3 4 4 9 11 10 11 13 10 6 5 5 7 7 9 11 13 14 16 14 11 12 13 13 15 15 14 13 17
6 6 4 6 10 9 9 9 10 9 6 4 5 5 3 5 9 9 12 15 12 12 10 8 7 8 11 12 11 12 12 15 15 13 15 12 17 19 17 18 15 18 16
6 6 7 5 7 9 10 9 8 7 5 4 2 5 7 8 10 11 11 12 11 11 10 10 8 8 9 11 13 14 14 14 16 16 14 15 17 21 18 19 20 18 17
6 7 7 8 6 7 7 8 9 9 7 5 4 4 6 6 7 10 10 10 7 9 9 9 9 8 10 11 12 14 14 15 16 14 15 15 19 20 19 21 22 22 21
8 9 9 9 10 9 8 11 10 8 7 7 5 3 4 3 5 8 10 8 9 8 9 9 9 9 11 11 12 13 16 16 12 13 16 17 20 20 20 21 23 25 26
10 10 10 10 10 10 10 9 6 6 7 6 4 6 5 4 6 9 11 8 8 8 9 9 10 11 13 12 11 17 17 14 14 17 19 20 20 19 21 22 23 26 28
11 11 11 11 11 11 10 9 8 7 7 6 8 8 6 6 6 7 7 8 9 10 11 11 13 14 12 13 13 13 16 17 18 19 21 24 27 24 25 25 26 27 28
10 11 11 11 12 12 11 10 9 8 7 6 6 7 6 5 6 6 6 8 9 8 9 11 11 12 14 15 17 17 19 20 22 23 25 26 31 33 30 30 31 32 31
10 10 10 11 12 12 13 11 9 8 7 6 6 6 6 6 6 6 7 8 9 9 10 12 13 13 15 16 17 19 20 22 23 25 28 28 30 34 36 33 31 34 35
7 8 8 10 12 12 12 11 9 8 7 7 6 5 6 6 6 7 8 9 9 10 11 13 14 16 17 17 18 19 21 23 25 26 28 31 31 32 33 34 30 29 32
5 7 7 11 12 13 12 11 9 7 7 6 4 5 6 7 8 9 9 9 9 10 13 13 14 16 17 20 22 23 21 22 24 25 27 28 29 30 31 32 32 30 29
5 4 7 8 10 11 11 10 8 7 4 3 3 2 4 5 7 7 7 8 9 11 11 13 15 16 16 17 17 20 20 21 23 25 25 25 28 27 28 30 31 33 32
3 2 1 1 4 8 11 9 8 6 4 1 2 2 3 3 5 4 4 6 8 8 8 10 12 13 16 18 19 21 23 24 26 26 26 24 24 25 26 27 28 31 34
8 8 8 9 10 11 12 11 9 9 8 7 6 6 4 4 4 4 6 8 10 10 11 14 16 18 19 18 21 23 23 26 28 20 19 24 23 21 24 29 31 33 33
13 15 15 14 14 14 13 13 12 10 9 8 7 7 7 7 8 8 10 11 13 14 14 17 18 21 22 20 23 25 24 16 18 22 17 19 26 30 22 26 31 31 32
16 16 17 16 15 14 13 14 13 13 12 11 10 8 8 9 10 12 13 14 17 18 18 20 20 22 20 19 21 26 15 25 14 22 29 30 28 27 24 24 26 31 36
17 17 17 17 17 16 15 15 15 14 12 10 8 8 9 9 11 14 16 18 20 20 19 20 19 19 20 20 15 14 15 14 34 24 27 20 20 27 28 26 28 33 37
18 18 17 17 16 15 14 14 13 11 10 9 7 7 8 11 14 17 20 21 21 20 19 19 17 18 16 17 19 17 19 23 28 29 16 30 22 25 36 34 35 35 34
18 17 17 16 15 15 13 12 10 10 9 8 6 8 11 15 19 22 23 23 21 20 19 19 19 20 19 19 21 20 20 22 25 29 37 28 31 29 30 32 29 34 37
17 17 16 15 15 13 11 11 9 9 8 6 8 10 13 16 19 23 24 22 20 20 20 21 21 22 22 22 23 23 20 23 26 27 34 37 36 34 29 33 31 33 30

GFSSE_850_spd_024.txt.gz
Wind_Speed
5 2 6 6 8 6 4 3 4 3 2 4 5 5 4 3 5 6 5 7 9 8 6 5 7 6 2 4 7 8 10 12 10 8 6 6 5 6 5 5 3 3 6
6 2 6 8 8 8 5 2 3 5 5 6 6 4 3 2 1 5 8 7 4 5 6 4 8 6 2 2 8 8 8 8 8 10 5 3 3 5 8 6 5 5 7
1 3 6 8 8 4 4 2 1 6 6 7 6 3 5 4 5 7 4 1 3 4 8 2 9 10 6 7 10 7 8 8 10 12 6 3 6 8 12 10 8 6 5
4 1 6 9 8 4 3 3 2 5 7 7 5 1 5 3 1 6 5 6 5 7 9 5 7 12 13 12 13 7 6 8 12 9 5 2 2 8 12 14 11 10 6
7 1 4 7 9 7 5 3 5 5 8 8 4 4 5 2 1 1 5 9 8 9 8 4 5 11 16 15 16 14 9 8 11 7 4 6 9 8 13 15 13 13 10
7 6 5 6 9 8 6 8 5 5 8 7 2 6 4 2 2 5 7 9 9 11 9 6 3 4 8 12 12 10 13 15 16 13 9 6 11 12 13 17 14 14 17
8 6 4 8 11 10 9 8 4 5 7 6 2 7 4 4 2 6 6 7 11 12 10 8 5 4 5 7 8 9 10 12 13 13 13 9 10 16 15 15 15 16 15
10 7 4 6 10 11 10 7 6 6 5 4 3 7 6 6 6 6 9 10 10 10 9 9 8 7 8 8 9 9 10 11 12 12 12 11 10 15 17 18 17 18 18
7 6 3 5 7 9 8 7 7 6 3 3 1 6 7 7 6 8 9 8 7 7 7 7 7 7 7 8 10 11 12 12 14 14 13 12 12 14 17 17 18 19 21
7 6 5 4 6 7 7 4 4 4 5 5 3 2 4 5 4 5 8 6 4 6 6 6 7 7 8 9 10 11 11 14 16 15 12 11 12 13 17 18 19 21 22
7 8 9 7 6 3 2 4 7 7 3 3 2 0 4 2 3 9 8 8 8 7 7 8 8 9 10 11 12 10 15 17 15 15 16 16 19 19 19 20 21 21 23
12 12 12 12 10 8 6 12 10 6 4 1 4 4 5 7 4 8 12 11 8 8 8 9 9 11 12 12 12 13 17 18 19 21 23 23 23 24 25 24 24 24 24
12 11 12 12 13 11 14 12 6 5 4 6 4 4 5 7 8 6 9 11 11 11 11 11 14 15 16 18 19 18 19 20 20 23 24 25 27 27 31 32 30 30 30
10 12 13 13 12 13 12 11 7 8 7 6 7 8 8 6 6 6 6 8 12 14 14 14 15 15 15 17 19 20 21 23 24 26 26 27 29 28 31 33 34 34 32
10 14 15 13 15 13 15 11 9 9 9 7 9 6 6 7 5 4 8 10 10 11 13 14 15 15 16 18 19 19 20 22 23 25 27 27 28 29 30 31 32 32 30
9 12 12 14 14 14 12 14 10 10 7 7 6 6 7 7 8 8 8 6 8 10 12 11 14 16 17 18 20 22 25 25 25 25 27 29 30 31 30 29 30 31 30
13 18 18 18 16 16 14 11 11 9 9 5 4 5 6 7 6 6 7 7 7 9 12 14 16 17 16 17 18 20 21 23 24 24 25 26 26 26 27 27 26 29 31
14 11 15 12 14 17 16 13 11 9 6 6 6 2 2 2 3 5 3 8 10 12 10 11 11 12 14 16 18 19 22 24 27 28 28 26 26 23 23 26 29 26 27
7 9 8 7 9 16 17 17 15 12 10 9 8 7 4 2 2 4 4 4 2 4 6 10 13 16 19 21 22 23 24 26 28 26 24 24 22 21 20 20 20 24 29
9 7 8 9 14 21 21 19 15 15 14 12 10 6 4 4 4 2 2 4 7 9 12 15 18 19 21 22 25 26 27 26 14 15 20 19 23 28 27 29 32 33 29
13 12 14 16 16 16 17 19 17 14 11 9 8 8 7 6 6 6 8 10 11 13 15 18 21 23 23 22 26 29 28 12 17 22 17 28 31 31 32 29 25 26 29
18 20 22 21 21 22 20 16 13 12 13 11 10 8 7 6 8 9 12 14 16 17 19 19 20 21 20 20 20 24 16 27 6 30 24 32 15 17 23 31 32 32 34
19 18 20 19 19 19 17 15 16 15 13 10 8 7 7 8 10 13 16 18 20 20 20 19 19 19 21 20 19 15 12 9 39 16 33 15 19 34 25 31 36 37 37
19 20 20 21 20 17 16 15 13 12 12 9 7 6 7 9 12 16 20 22 22 21 19 18 18 18 19 21 22 21 19 23 26 26 15 34 25 36 37 34 36 29 28
21 21 21 21 20 19 17 13 13 12 10 7 5 4 7 12 17 19 23 23 23 21 19 18 19 19 21 21 22 24 28 27 29 30 38 29 39 32 33 34 30 35 35
21 20 20 19 19 17 15 14 12 10 9 6 4 5 8 13 17 20 22 22 22 20 20 20 21 21 23 24 24 26 26 26 33 32 36 41 40 38 33 31 33 29 32

GFSSE_850_spd_027.txt.gz
Wind_Speed
6 3 7 8 11 9 6 4 3 2 0 2 3 3 3 4 6 6 5 6 5 5 5 5 9 8 5 4 5 5 10 11 7 4 4 4 4 5 7 7 5 2 4
4 5 8 11 11 9 8 4 2 3 2 3 2 1 3 5 2 3 5 4 2 4 5 6 10 9 6 7 7 5 6 6 7 6 4 1 1 2 3 7 4 6 4
4 6 8 11 10 8 7 4 2 4 4 4 3 2 7 6 5 6 4 0 1 3 7 1 9 12 8 9 6 8 6 7 10 9 3 5 4 4 4 5 6 9 7
4 6 9 12 12 8 7 5 4 2 4 5 2 3 8 5 1 3 7 7 5 6 5 2 5 11 13 11 11 12 10 9 11 6 2 7 7 5 4 8 9 10 9
3 6 7 10 12 10 5 8 5 3 4 4 1 6 9 6 3 3 5 8 7 9 7 3 3 6 10 13 14 14 14 13 13 10 7 8 6 9 8 12 11 11 13
4 5 5 7 10 11 11 8 7 4 4 4 3 8 7 7 4 5 4 6 8 10 9 7 4 3 4 6 9 9 8 10 12 12 11 9 10 8 11 17 15 13 15
4 2 2 6 10 12 11 9 6 5 4 3 4 7 5 6 4 5 6 6 9 8 7 7 3 3 3 4 5 6 7 8 9 10 11 9 11 11 11 13 15 14 14
6 5 5 7 10 11 10 8 7 5 3 2 3 5 4 6 6 5 5 8 8 7 6 6 6 6 6 6 6 7 8 10 11 12 12 12 10 12 11 14 16 16 17
9 6 5 7 9 10 9 8 6 5 4 2 2 4 3 4 4 5 5 7 6 6 7 6 6 7 7 7 8 9 10 10 13 14 13 10 8 9 11 15 16 16 17
10 7 5 6 8 8 7 5 3 4 5 4 2 1 2 2 1 1 3 3 5 6 7 7 7 8 8 9 10 10 9 11 13 13 13 13 13 13 15 14 18 18 18
10 9 7 6 7 6 5 5 3 3 3 3 2 1 4 3 2 1 4 6 8 8 8 8 8 9 9 10 10 10 12 14 16 16 17 19 21 21 20 21 22 23 23
10 11 11 10 7 6 6 5 4 5 2 1 2 2 3 2 2 5 8 9 8 9 8 8 8 10 10 11 12 13 15 16 18 19 20 21 22 23 24 25 28 28 28
12 13 12 14 12 8 9 7 7 4 2 0 0 1 4 3 6 9 7 6 8 9 9 10 11 12 13 14 15 17 19 20 21 22 22 23 23 24 24 25 27 30 29
15 14 12 12 15 14 13 12 7 5 3 3 2 3 5 6 5 3 5 7 10 11 13 13 13 14 14 14 15 17 17 18 19 20 22 22 24 24 25 25 27 28 29
10 15 15 13 14 14 15 11 7 7 7 6 6 7 9 8 8 7 6 8 7 8 9 10 11 12 15 18 17 18 18 19 22 24 23 24 25 25 26 28 28 27 28
14 18 18 16 14 16 14 15 10 11 10 9 8 6 9 10 10 10 10 6 7 8 9 11 13 16 16 16 16 17 17 17 17 19 19 20 22 23 22 21 21 25 23
17 19 21 20 18 19 15 13 13 11 11 9 8 6 6 7 6 6 4 4 7 10 13 17 16 16 16 15 16 17 18 19 21 21 23 22 22 19 20 21 21 22 24
20 20 22 22 21 21 17 15 15 15 14 11 11 10 7 5 5 5 4 7 11 13 13 12 12 13 15 17 20 20 21 22 22 22 24 22 20 18 18 19 19 20 20
20 24 23 22 23 21 22 22 18 18 16 14 12 8 6 6 5 5 4 6 7 7 9 11 14 17 20 22 24 24 24 22 19 17 14 12 15 19 22 24 27 27 28
13 15 14 14 19 26 26 25 22 17 16 12 12 11 9 5 4 1 1 3 6 10 13 15 18 19 20 22 23 23 22 13 12 13 17 18 18 25 26 23 22 24 26
11 10 13 17 22 25 26 26 24 21 17 14 11 7 7 6 4 3 6 9 12 15 17 19 20 20 20 22 25 28 24 17 11 6 13 23 25 22 16 22 26 31 29
14 17 20 22 23 23 23 21 19 16 13 11 11 10 7 5 4 6 9 13 16 18 18 19 19 19 18 19 22 22 15 22 5 35 16 30 24 16 24 30 33 34 32
19 17 19 20 21 19 17 16 17 17 16 13 11 8 5 4 5 9 13 16 18 19 18 17 17 18 20 19 19 14 10 9 39 16 34 19 16 30 28 37 34 34 30
23 21 21 22 21 16 13 15 16 16 16 13 9 5 3 4 8 12 16 19 20 19 17 16 16 16 19 21 23 21 17 21 17 21 20 41 28 37 39 39 37 33 28
23 24 23 23 22 20 18 16 16 16 14 11 6 2 2 6 10 14 18 20 20 18 16 16 16 18 20 21 22 25 26 29 29 27 32 29 39 40 42 38 41 33 34
26 25 23 22 21 19 18 16 16 14 12 9 6 1 4 9 13 16 19 20 18 16 16 17 19 20 22 23 23 23 24 27 29 35 41 41 37 36 29 34 32 31 32

GFSSE_850_spd_030.txt.gz
Wind_Speed
7 7 10 13 12 11 7 5 5 4 4 5 6 6 7 8 10 8 5 4 1 3 8 5 11 9 9 7 6 7 10 12 7 6 5 8 7 8 7 5 5 6 4
3 9 11 13 13 9 9 5 4 2 2 2 3 4 6 8 8 7 5 2 1 4 4 9 14 12 10 11 10 10 9 13 9 2 2 4 5 4 3 2 3 7 4
7 10 11 14 13 11 10 6 4 1 1 0 2 5 9 8 6 6 3 2 1 4 2 5 12 15 12 10 9 8 10 11 11 7 3 5 6 6 8 6 4 7 9
6 10 11 15 14 13 10 8 4 0 1 1 2 6 8 7 4 2 6 5 4 5 5 1 6 11 14 12 10 11 12 13 12 8 4 7 8 8 6 7 7 7 9
7 10 10 15 13 11 9 10 6 2 3 1 3 7 12 6 5 5 4 6 6 7 6 2 1 4 7 10 11 12 13 13 12 11 7 6 9 9 5 9 11 9 9
7 9 10 14 14 13 11 10 6 3 3 1 5 9 11 10 7 5 3 4 7 6 5 3 1 2 3 5 7 8 8 7 9 10 9 8 10 8 9 9 16 13 11
8 8 9 12 13 14 12 10 7 4 2 1 6 8 9 10 6 5 4 5 6 5 5 5 3 2 3 3 4 5 6 7 8 9 10 10 9 11 10 9 12 15 12
5 6 7 10 14 14 12 10 8 5 3 1 5 7 6 7 7 7 4 5 5 4 5 5 5 5 6 6 6 7 7 8 9 10 11 11 9 9 11 10 12 14 14
6 5 7 11 14 15 12 11 9 5 4 3 3 5 4 4 4 3 3 3 3 4 5 6 6 6 7 7 8 9 9 9 11 11 10 10 10 11 11 11 10 15 15
10 9 9 11 12 12 11 10 7 4 4 3 2 1 1 3 3 2 1 1 4 5 6 6 6 6 6 7 7 7 8 10 12 12 13 12 13 14 15 14 13 15 18
14 12 11 10 11 11 11 9 7 3 2 3 2 3 3 4 5 3 1 3 4 5 5 5 5 5 6 6 6 8 10 11 12 14 15 15 16 17 18 17 19 20 20
13 12 13 12 11 11 11 11 8 2 4 3 4 5 3 3 2 0 3 3 3 5 5 5 6 6 7 7 7 9 11 14 16 15 16 17 18 19 20 18 21 23 24
15 16 14 12 13 13 12 10 8 4 5 4 4 4 2 1 2 3 3 4 4 6 6 7 8 8 9 10 11 12 12 13 15 16 16 17 18 18 18 20 22 23 24
18 21 18 14 14 14 11 11 7 7 5 3 3 3 2 2 3 3 3 4 6 8 9 9 10 10 10 12 16 17 16 17 17 18 20 19 18 19 20 22 23 25 26
14 17 22 18 15 15 14 11 8 7 6 2 4 4 4 4 5 7 7 6 7 7 8 9 10 12 14 17 19 20 19 20 20 19 18 18 20 22 24 24 25 21 20
20 17 20 22 17 16 15 13 11 9 7 6 5 4 3 7 10 10 10 11 8 9 10 13 15 18 19 18 20 19 18 18 19 20 20 20 20 22 22 21 21 21 20
25 23 21 23 21 20 17 14 13 8 12 11 11 11 8 9 9 10 8 6 9 10 13 16 16 19 19 17 18 19 20 21 22 23 24 25 25 22 20 18 17 16 17
22 21 22 26 23 21 19 18 18 15 18 16 13 13 10 9 7 8 7 7 10 12 14 16 14 15 17 20 21 22 22 20 20 20 20 17 14 13 14 18 20 21 20
20 21 23 25 25 24 23 25 23 20 19 16 13 11 10 8 8 7 6 8 9 9 11 13 16 18 21 22 22 21 19 17 14 11 10 9 13 17 19 22 21 19 20
20 24 24 24 25 26 27 27 27 20 19 14 11 11 10 10 6 5 3 4 7 10 13 15 17 18 19 21 21 20 18 11 11 18 13 12 18 20 23 21 17 21 25
16 17 18 23 26 29 29 29 29 23 17 15 14 12 10 7 5 2 3 7 11 14 17 18 17 17 16 19 22 23 18 9 9 5 11 16 23 20 16 17 26 30 29
15 15 17 19 22 25 26 28 27 24 20 15 12 11 10 7 3 1 6 10 14 16 18 18 17 15 15 19 22 19 13 17 4 23 11 28 20 23 26 28 29 31 30
17 18 20 20 22 23 25 25 23 20 17 15 16 13 10 5 1 5 9 13 16 18 17 15 15 16 17 17 18 12 9 7 34 13 34 24 33 29 34 32 33 32 30
22 21 23 23 23 22 20 20 20 20 21 18 15 12 7 3 3 8 12 16 18 17 14 13 14 15 17 18 19 16 14 16 13 20 26 41 34 41 39 38 36 34 36
24 25 25 24 22 19 17 16 20 21 19 17 14 9 5 1 6 10 14 17 17 14 13 13 14 15 17 19 20 23 24 25 24 20 31 34 44 43 42 37 38 39 33
28 27 27 27 25 20 20 21 19 18 18 15 11 6 2 3 7 12 15 16 15 13 13 14 16 17 19 20 21 22 23 23 24 27 36 37 34 38 35 42 39 36 35

GFSSE_850_spd_033.txt.gz
Wind_Speed
8 10 14 14 11 10 10 6 9 8 9 10 11 12 12 10 9 6 6 7 7 6 5 2 10 7 8 8 6 9 11 14 13 8 9 10 11 10 9 8 6 5 5
4 11 14 15 14 10 9 6 6 5 5 6 7 9 10 12 13 12 8 5 3 5 4 9 12 10 8 10 10 11 11 14 12 6 8 5 7 6 5 6 5 7 4
5 11 13 16 14 10 10 6 5 2 3 3 4 6 9 9 8 5 4 4 1 4 2 7 12 14 14 12 12 9 10 11 12 10 8 5 5 6 8 7 6 6 9
6 10 11 15 14 11 10 6 4 0 2 2 4 7 8 7 7 6 7 6 4 4 2 4 9 11 12 12 10 10 12 12 12 9 8 6 8 8 8 7 8 8 9
8 10 11 15 14 13 10 8 5 2 3 1 4 9 8 7 3 6 4 5 4 4 3 3 4 7 9 11 11 11 11 12 11 8 9 9 10 10 10 6 10 12 10
8 11 11 14 13 12 10 9 6 2 3 2 5 11 11 7 8 4 2 4 5 5 5 4 2 1 2 3 4 5 5 6 7 7 7 8 9 9 10 9 10 13 11
8 11 11 13 13 12 12 10 7 4 3 2 6 9 11 9 5 5 1 4 5 4 5 6 5 4 3 2 2 3 3 5 7 8 9 9 9 8 8 10 9 12 12
6 9 11 13 14 14 14 10 8 6 4 2 5 8 7 8 5 8 3 3 4 3 4 5 5 5 5 6 5 5 5 6 7 9 9 9 8 9 8 9 10 11 13
7 8 9 11 14 15 14 11 10 8 4 3 4 6 4 6 8 6 3 1 2 3 3 4 5 4 4 4 5 5 5 6 8 8 8 9 9 10 11 12 11 10 12
9 9 8 10 13 15 14 12 10 8 5 3 2 3 4 5 6 5 3 2 2 3 3 4 4 4 4 4 4 4 6 7 8 8 9 9 10 11 12 13 13 11 13
13 12 11 11 13 15 14 13 11 8 5 4 3 4 4 5 6 4 3 1 2 3 4 4 4 4 5 5 5 6 7 8 10 11 11 11 12 13 14 15 15 15 17
11 12 14 13 13 15 15 15 12 8 6 4 5 6 5 5 5 3 1 1 2 2 3 4 5 6 6 7 7 8 10 11 12 12 12 13 14 14 16 17 17 18 20
12 15 15 14 14 15 15 14 13 9 7 6 6 7 5 4 2 1 1 1 1 3 5 5 6 7 8 9 11 14 15 16 15 16 17 18 19 19 17 18 18 19 21
19 20 18 17 16 16 14 13 11 8 7 6 7 7 4 3 2 2 2 3 3 5 6 7 9 9 9 12 16 18 20 19 19 20 21 21 21 21 22 23 25 26 27
23 22 24 23 19 17 16 13 12 8 8 5 6 6 5 4 3 5 6 5 6 6 6 9 10 12 15 18 19 20 20 20 20 19 20 20 21 21 20 21 22 23 23
21 22 20 24 23 19 16 13 11 8 8 7 6 5 6 6 5 5 8 8 8 7 10 12 15 18 19 20 21 21 20 20 22 22 24 24 24 24 24 22 21 20 19
24 26 26 23 26 21 16 13 12 10 12 13 10 9 8 7 7 9 7 6 5 8 11 14 17 20 21 20 20 21 22 23 24 24 24 23 22 21 19 18 17 17 18
26 28 28 24 27 23 19 17 17 17 16 16 14 11 11 10 9 10 10 8 8 9 13 16 16 18 21 23 24 23 22 22 22 20 18 17 15 15 15 17 18 19 21
24 25 27 24 28 27 24 24 23 19 18 19 17 14 12 9 10 9 8 8 7 7 11 15 18 21 23 23 22 21 19 19 17 14 11 12 14 16 19 22 22 22 22
21 19 20 23 31 29 28 28 27 22 21 20 16 12 10 10 10 8 6 5 6 9 13 16 18 19 20 21 21 20 18 15 13 14 15 10 14 22 23 20 22 23 24
22 22 24 23 27 30 30 31 30 26 22 18 13 10 9 12 8 6 4 5 8 12 16 18 18 16 16 19 22 21 13 6 19 13 11 18 20 27 19 26 27 29 31
21 20 22 26 27 28 30 32 32 27 22 17 14 13 10 9 7 5 4 7 11 15 17 17 16 15 15 19 21 19 12 15 5 9 25 16 28 23 30 26 30 29 30
23 20 20 22 25 29 29 31 32 27 24 19 15 13 13 10 7 4 6 10 14 16 16 15 14 15 15 15 17 11 8 6 33 13 27 25 28 32 35 34 33 33 31
23 19 18 20 22 25 30 30 30 28 25 20 16 16 13 9 5 5 8 12 15 15 14 13 13 15 16 18 17 15 14 17 13 18 19 40 34 42 42 40 37 35 37
23 21 21 23 25 27 26 25 24 24 21 21 20 16 12 7 4 6 10 14 15 14 13 12 13 15 17 18 19 21 22 22 19 17 34 39 47 46 46 40 42 39 36
25 24 26 26 26 24 22 21 21 23 23 23 20 15 10 5 4 8 12 14 14 13 12 13 15 16 18 19 20 20 21 20 22 23 34 41 42 46 44 46 39 38 37

GFSSE_850_spd_036.txt.gz
Wind_Speed
9 13 17 14 12 6 5 6 8 9 9 10 11 11 12 11 11 11 10 10 12 9 1 1 7 5 7 5 5 7 8 9 11 8 6 9 10 9 9 8 7 5 4
8 12 17 15 11 11 9 5 6 7 8 9 11 11 11 9 11 12 9 7 2 4 5 7 11 10 9 9 7 8 9 11 10 9 9 7 5 5 5 6 6 6 4
8 12 14 14 12 10 8 4 4 1 3 4 6 8 9 12 11 8 4 3 2 2 4 9 14 14 13 8 10 8 8 10 10 9 9 6 4 5 5 7 6 5 7
9 12 13 16 12 9 8 5 3 1 2 2 3 6 7 5 7 6 5 5 3 3 2 7 12 13 12 11 10 8 9 11 10 9 7 8 7 7 8 5 5 7 8
12 12 11 15 13 9 9 5 3 2 3 2 2 8 9 6 1 8 5 5 5 5 3 3 5 8 10 10 10 8 8 8 7 5 6 7 8 9 8 6 5 9 12
11 12 11 13 13 11 10 6 3 1 3 2 3 9 9 5 4 2 2 5 6 6 6 5 4 3 2 2 2 2 2 3 5 6 6 6 7 7 7 7 7 8 9
10 12 11 13 13 12 11 7 4 2 2 2 3 8 9 6 5 3 2 4 5 6 6 7 7 5 4 2 2 2 2 3 4 5 6 6 6 6 5 5 7 7 10
6 10 11 12 13 10 11 7 6 4 2 2 2 6 8 8 4 7 4 3 3 4 5 5 5 5 4 5 4 4 3 4 5 5 6 6 7 6 6 7 8 6 10
7 8 9 10 12 13 13 10 7 5 3 2 1 5 5 7 5 4 4 2 2 3 3 4 4 3 3 3 4 4 4 5 5 5 6 6 6 7 8 9 10 10 8
8 8 9 9 12 13 13 11 8 6 5 3 2 4 5 6 8 7 4 2 1 2 2 3 3 3 3 4 3 4 5 5 7 8 8 8 9 9 11 12 12 12 12
12 11 11 10 12 13 13 11 10 8 6 4 4 4 6 6 5 4 3 1 1 2 2 3 3 3 4 3 4 5 7 9 11 11 11 11 11 12 12 16 16 17 17
9 11 12 12 12 13 14 13 12 9 7 5 6 5 4 5 6 5 3 2 2 1 1 2 3 3 5 5 6 8 10 13 13 14 14 14 15 16 16 17 19 19 17
7 10 11 12 13 14 15 14 13 12 8 6 7 8 6 5 4 3 3 3 3 1 3 4 4 6 7 8 9 12 15 16 17 17 18 19 19 19 19 19 20 20 21
14 15 15 15 15 14 14 14 13 12 8 8 8 8 6 4 3 3 3 3 4 4 5 6 5 6 7 11 14 16 17 18 19 20 19 19 19 19 19 19 19 19 19
15 18 21 20 21 18 16 14 14 13 10 9 8 7 5 4 5 5 5 5 5 5 5 6 8 9 13 15 17 17 19 20 20 20 21 22 22 22 20 21 21 21 21
19 18 20 22 24 23 19 16 14 13 11 10 8 7 7 5 5 6 5 7 7 7 6 9 10 14 15 17 19 19 19 21 22 23 24 23 23 21 20 20 20 20 21
25 24 22 22 23 27 23 18 16 14 13 13 11 10 8 6 6 6 7 6 6 7 9 12 14 17 17 16 18 19 21 22 23 23 23 21 19 17 17 16 16 17 17
26 29 25 24 23 26 26 21 19 18 16 17 14 13 12 9 6 6 9 9 9 11 12 12 14 17 20 21 22 21 22 22 22 20 18 16 14 13 14 16 19 21 22
23 23 24 22 23 26 28 24 24 22 19 17 16 16 12 9 7 7 13 10 10 9 10 13 17 21 23 23 21 19 18 18 17 16 13 12 14 16 16 20 23 23 24
24 20 19 20 22 25 30 29 27 25 20 20 20 17 13 12 9 11 10 7 7 9 12 15 18 20 21 21 19 16 16 13 12 11 13 16 14 16 21 23 23 26 27
22 20 20 19 21 28 34 33 30 28 25 24 22 19 14 9 10 10 7 6 7 10 14 17 18 17 18 20 21 19 10 4 14 14 10 14 19 26 24 22 28 28 29
22 21 21 21 21 27 33 33 32 31 28 26 22 17 11 9 9 9 7 6 8 13 16 17 16 16 17 20 21 19 11 11 3 3 24 20 21 24 29 26 30 30 29
24 23 21 21 23 24 30 33 33 32 30 28 23 17 11 12 11 9 6 6 10 14 16 17 16 16 15 17 18 13 8 6 31 9 29 16 25 30 32 35 35 32 33
25 22 20 20 24 26 29 32 33 34 30 26 23 17 14 14 11 8 5 8 11 14 15 15 15 16 17 17 16 15 14 16 12 18 18 37 31 41 41 40 37 38 32
27 24 21 20 23 25 29 31 34 35 29 24 21 18 17 14 10 6 6 9 12 13 14 14 15 16 17 18 19 20 20 19 18 18 34 39 46 45 44 43 40 34 35
28 24 22 21 22 24 27 32 29 31 26 22 20 19 16 12 7 5 7 10 12 13 14 14 15 16 18 19 20 20 20 19 20 22 34 42 43 43 48 39 38 36 35

GFSSE_850_spd_039.txt.gz
Wind_Speed
11 14 16 16 13 8 8 7 8 8 8 8 8 8 7 7 8 9 9 10 10 8 1 4 5 7 8 6 5 3 4 6 8 7 4 5 6 6 7 8 6 5 4
11 15 18 15 11 9 8 5 6 6 6 7 7 8 6 6 6 4 5 8 2 4 8 10 9 8 10 9 6 5 7 7 8 6 6 5 2 2 3 4 5 4 5
12 14 16 16 12 11 6 6 6 3 3 5 7 8 7 10 8 5 5 1 2 2 8 13 14 15 12 10 7 8 7 8 9 8 6 5 3 2 3 4 4 4 5
12 14 15 16 14 10 8 5 5 4 2 0 3 6 5 9 3 3 5 4 4 3 3 10 14 12 12 9 8 7 8 10 8 6 6 6 5 5 5 5 2 4 6
13 14 15 15 12 10 9 6 4 4 4 3 2 11 9 7 8 8 7 6 5 5 3 5 9 12 11 10 9 9 7 5 3 4 4 4 4 4 5 5 5 6 9
13 14 14 16 13 10 9 6 4 3 4 3 4 11 8 6 2 4 5 6 6 7 7 5 5 5 5 5 4 2 1 1 3 3 4 4 4 4 3 4 5 9 10
13 15 14 16 13 10 8 5 3 3 4 3 3 7 11 5 4 0 4 5 5 6 7 7 6 4 3 2 1 1 1 1 3 3 3 4 3 4 4 3 4 6 8
10 14 13 15 14 11 9 5 4 2 2 3 3 6 9 8 5 4 4 3 3 5 5 5 4 3 3 3 2 2 2 2 2 3 3 3 3 4 5 5 6 7 7
11 12 12 13 14 11 10 7 4 2 1 2 4 6 8 7 4 4 3 1 2 3 3 3 3 3 3 3 2 2 2 2 3 3 4 5 6 6 6 8 9 10 9
9 11 11 11 13 13 13 10 6 5 3 2 4 7 8 10 8 7 5 2 1 2 2 2 2 2 2 2 2 3 4 5 6 8 9 10 10 9 10 11 14 15 16
11 11 11 11 12 14 13 12 10 8 5 4 5 7 8 9 9 8 6 4 3 2 2 2 1 2 2 3 4 6 7 9 10 11 11 10 10 9 11 13 15 14 15
11 12 12 13 13 13 15 14 12 11 8 6 7 7 7 8 9 8 6 4 3 2 1 1 2 3 4 5 6 8 10 13 13 14 14 14 14 14 15 16 17 18 17
8 9 11 12 13 14 14 15 15 13 10 8 8 8 8 8 8 6 5 4 4 2 2 3 4 5 7 7 8 12 14 17 15 16 17 16 16 15 15 15 15 15 16
10 9 11 12 14 14 14 14 14 14 12 9 9 10 8 8 6 5 4 4 4 3 3 4 4 5 7 10 13 16 17 17 18 18 18 18 18 18 17 17 17 17 18
13 11 13 16 17 16 15 15 15 15 13 11 10 10 8 6 4 3 3 4 3 4 3 4 7 9 11 14 16 18 20 19 18 18 20 21 20 18 18 17 18 19 19
16 15 14 13 18 20 20 17 16 16 15 14 11 10 7 6 4 3 5 5 6 7 7 8 9 12 14 15 17 18 19 20 21 21 21 20 18 16 15 15 15 15 15
17 18 21 21 18 21 23 20 18 18 18 15 14 11 9 8 8 6 5 6 6 6 7 10 13 14 15 15 17 20 21 20 20 20 18 16 14 13 13 12 13 14 16
20 21 22 26 25 21 23 25 22 21 20 18 17 14 14 13 11 8 6 7 9 8 9 10 11 15 18 19 19 20 20 19 18 15 13 11 10 10 12 13 15 18 20
24 24 23 24 27 25 24 27 25 24 23 22 20 17 18 16 13 9 6 9 8 7 7 10 14 17 19 19 17 16 16 15 14 12 10 9 10 12 14 15 20 21 24
26 25 26 24 24 22 22 29 31 29 27 24 21 21 20 17 13 10 8 8 7 6 9 12 15 17 17 17 15 14 13 10 10 9 9 12 16 16 18 22 24 26 28
25 25 25 24 22 21 22 32 35 34 31 26 23 22 22 18 12 10 8 8 6 7 10 12 13 14 15 17 16 15 8 4 13 12 11 11 19 20 23 23 27 28 29
26 27 25 24 21 21 23 32 38 36 31 28 27 27 23 17 12 9 10 8 7 8 10 12 13 14 16 18 18 14 7 7 2 8 20 22 24 12 23 25 28 27 27
25 25 26 25 23 21 23 31 35 34 30 30 30 27 21 16 11 11 10 8 7 8 11 12 13 14 14 16 16 12 7 4 24 6 22 15 20 26 30 31 29 31 28
29 25 24 25 23 21 24 29 34 36 34 33 32 28 22 16 13 13 10 7 7 9 11 13 14 14 14 14 15 15 13 13 9 13 15 28 26 36 35 32 35 28 30
31 28 26 26 24 23 26 28 34 36 35 34 32 27 21 17 16 13 9 7 8 9 11 13 14 14 15 16 16 16 16 17 16 15 23 29 38 37 35 40 32 34 33
31 30 27 26 25 25 27 30 33 34 35 34 30 25 20 19 16 12 7 6 7 9 12 13 14 15 16 17 18 18 18 17 18 18 20 28 31 30 41 31 37 35 34

GFSSE_850_spd_042.txt.gz
Wind_Speed
12 17 17 17 14 13 10 9 11 10 9 9 8 8 8 8 9 8 8 10 9 8 4 4 4 7 8 5 3 2 4 5 7 7 6 4 6 7 7 8 6 3 6
13 16 17 16 14 10 8 8 10 8 7 7 8 8 5 6 6 4 5 7 5 6 5 9 5 8 10 9 5 3 6 7 8 9 7 6 4 2 2 4 5 5 6
16 17 17 15 12 11 8 8 8 7 6 6 7 8 9 9 8 5 3 2 2 3 8 12 13 15 14 10 6 6 8 9 10 9 6 4 4 4 4 4 3 3 4
17 17 17 16 13 10 8 8 7 5 3 3 4 6 10 10 4 2 3 3 3 2 6 14 12 9 7 8 8 8 9 10 9 6 4 5 4 6 5 5 3 2 4
16 16 17 17 15 11 9 8 6 5 4 5 5 10 12 11 9 7 6 5 5 4 4 12 13 11 11 10 9 10 10 7 4 4 4 4 4 6 6 5 5 5 8
17 17 14 17 14 11 10 8 6 5 5 6 9 15 12 9 6 6 6 6 6 6 5 6 8 9 9 9 7 4 3 1 2 5 5 5 5 5 5 4 6 7 9
16 15 16 16 14 12 12 8 6 4 5 5 9 12 11 7 4 4 5 5 4 6 7 6 5 5 3 4 2 0 3 1 3 4 5 6 6 6 6 5 6 7 7
15 15 14 16 14 12 9 7 5 4 4 4 7 9 14 9 7 3 2 2 3 4 5 5 4 3 3 2 2 2 2 1 3 5 5 6 7 8 9 8 8 9 9
14 15 14 15 15 11 10 7 5 3 3 3 6 10 13 11 6 6 3 1 2 3 3 3 2 2 2 1 1 1 2 3 4 5 7 7 10 10 10 12 12 14 15
14 14 14 15 14 13 11 10 6 4 3 3 6 9 11 9 8 7 5 4 2 2 2 2 2 2 1 1 2 3 4 5 5 7 7 9 10 9 10 11 13 14 12
13 14 15 15 15 14 12 11 9 7 5 5 6 8 9 8 10 8 8 5 3 2 1 1 1 1 2 4 4 5 6 5 6 7 7 11 12 11 13 15 16 17 16
14 15 14 14 15 15 14 14 12 10 8 6 6 7 8 8 9 11 8 6 5 3 2 2 2 2 3 3 5 6 6 8 9 11 12 13 13 14 15 16 16 16 17
13 13 14 15 15 15 15 14 15 14 11 10 9 10 9 9 9 8 7 5 5 4 3 3 3 2 5 4 7 11 12 14 13 14 17 15 13 14 14 15 15 15 16
13 13 13 14 13 15 16 17 15 15 14 11 11 12 10 10 9 6 5 5 5 4 4 3 4 5 8 10 11 15 15 16 17 17 18 15 15 15 15 14 16 17 17
14 13 15 15 16 15 16 17 18 16 16 14 13 14 11 10 8 6 5 4 5 6 5 5 7 9 11 13 15 16 18 18 17 18 18 18 16 16 15 16 17 17 17
16 14 14 15 17 18 19 18 18 17 16 16 15 14 12 9 8 6 5 5 7 8 8 8 11 11 13 14 16 18 19 20 20 19 17 18 14 15 15 15 15 15 14
16 15 17 18 18 18 20 21 20 19 18 17 17 14 11 11 10 9 8 6 7 8 10 10 11 12 13 15 17 19 19 19 18 17 14 12 12 13 13 13 13 14 14
20 20 18 18 19 21 22 22 22 21 20 19 20 17 15 15 13 12 10 8 6 8 10 10 10 11 14 16 17 17 16 16 14 12 11 10 10 11 13 14 16 17 18
20 21 23 22 22 21 23 21 21 22 22 21 23 22 19 18 16 14 12 9 7 8 9 7 9 13 15 16 15 15 16 14 11 10 9 9 9 12 15 18 18 21 24
28 27 27 25 23 23 23 21 22 22 22 24 28 25 22 21 18 15 14 10 8 8 7 7 11 14 15 14 13 13 13 10 9 9 9 10 13 14 19 20 23 25 28
28 31 28 27 24 24 25 24 26 29 33 32 30 28 26 24 21 17 15 10 9 8 6 8 11 13 13 14 12 12 8 7 12 10 10 13 16 21 22 17 25 26 28
25 30 29 28 25 24 24 24 22 33 37 35 31 29 27 25 22 16 14 11 10 7 7 8 10 12 13 14 12 8 4 5 4 5 19 12 16 18 19 23 27 25 26
26 27 30 29 28 26 25 25 33 38 37 34 31 29 28 26 22 15 14 12 10 7 7 8 9 10 12 13 11 6 4 4 13 7 12 15 11 20 22 25 25 26 25
30 30 29 30 30 28 29 28 31 36 40 35 32 32 30 26 20 16 14 13 9 7 7 8 9 10 10 10 11 11 8 9 5 10 8 13 16 20 21 24 24 28 24
32 36 32 30 30 30 27 27 28 32 35 36 34 33 30 25 22 18 15 12 8 7 7 8 10 10 10 10 11 12 12 11 9 8 19 14 21 20 21 18 25 20 20
27 35 34 31 31 30 28 27 29 34 37 36 35 34 30 26 22 18 15 11 7 6 7 9 10 10 11 12 13 13 12 9 9 11 18 22 25 23 21 24 18 20 23

GFSSE_850_spd_045.txt.gz
Wind_Speed
13 14 15 13 11 11 10 7 13 11 9 9 9 9 8 8 8 8 10 9 9 7 6 5 5 5 7 5 3 2 3 5 7 8 8 7 5 6 6 5 4 5 8
18 14 16 14 13 12 8 8 10 9 8 8 8 7 6 7 6 6 7 7 5 4 2 5 3 10 9 7 6 3 4 6 8 9 8 8 8 5 3 3 3 4 6
18 17 17 16 13 10 7 8 9 8 8 9 9 9 8 7 4 5 5 3 3 4 7 7 7 11 10 11 3 4 8 9 9 8 8 9 8 9 6 4 3 1 2
17 16 16 17 13 10 7 8 7 6 6 6 7 9 12 8 5 4 2 4 3 3 9 9 11 11 8 3 5 9 10 10 7 6 8 3 3 11 8 6 3 2 4
16 16 17 16 11 10 8 8 6 5 4 5 6 8 12 7 6 7 5 4 4 4 8 13 9 6 5 6 8 9 9 6 5 8 5 7 6 9 9 7 4 5 5
16 15 16 16 15 11 8 7 5 4 5 6 12 14 15 10 8 7 7 6 6 5 6 11 11 11 9 10 9 5 3 2 7 6 6 8 8 8 9 8 6 5 6
16 16 15 16 14 11 10 7 5 3 4 8 13 13 11 8 7 6 5 5 5 6 7 6 5 4 4 4 3 2 2 2 6 4 4 5 7 8 9 8 8 8 9
15 15 15 17 14 11 11 8 5 4 4 6 10 13 11 8 5 3 2 3 3 5 5 5 4 3 2 1 1 2 2 3 6 4 5 6 9 9 10 9 9 11 12
14 15 13 17 15 12 10 8 6 4 3 5 9 12 12 9 7 3 3 1 2 2 3 3 3 3 2 2 2 3 3 4 6 4 6 5 11 10 10 10 8 10 11
14 15 14 15 15 15 13 10 7 6 4 5 8 10 10 9 6 7 5 3 1 1 1 2 2 2 2 2 3 4 5 7 8 6 5 9 10 10 10 12 14 13 14
13 15 15 15 16 14 11 11 10 8 7 6 8 9 10 6 4 4 6 3 2 1 1 1 1 2 3 5 6 5 6 5 6 7 9 11 11 11 13 14 15 16 16
14 16 16 16 16 15 15 15 11 10 10 7 7 9 9 8 9 10 7 5 3 2 1 1 2 4 6 4 8 8 5 5 6 6 11 12 13 12 13 14 14 14 14
14 16 17 17 16 17 18 14 14 14 11 11 10 9 9 10 12 9 3 4 2 2 3 5 6 2 4 3 6 6 7 6 6 7 16 14 13 13 13 14 16 16 15
16 16 17 17 17 18 14 16 15 15 15 14 11 13 11 10 9 7 6 6 5 1 4 3 7 6 6 8 9 8 11 13 13 12 16 16 15 14 13 15 17 17 17
17 17 17 18 18 17 20 17 15 18 16 14 13 13 11 10 9 8 8 5 5 7 7 7 7 8 8 8 11 13 14 14 15 14 16 19 16 14 16 17 17 17 17
18 18 17 18 19 17 18 20 19 15 18 19 15 15 14 11 10 10 9 9 5 7 9 9 8 10 10 10 12 14 15 15 16 16 11 19 16 15 15 16 16 15 14
19 19 19 19 19 19 19 20 21 18 17 22 19 16 17 16 13 13 11 8 6 6 9 11 10 10 10 12 14 15 14 14 14 14 11 9 15 11 13 13 13 14 15
21 20 20 20 21 21 19 19 23 18 20 22 20 19 19 16 17 14 12 11 8 6 7 8 8 9 11 12 13 12 13 13 11 10 9 9 10 11 13 12 15 17 18
26 23 22 21 22 21 20 20 17 18 22 23 22 20 21 20 19 17 15 13 11 8 7 7 7 9 11 12 12 12 13 13 11 8 8 10 10 11 14 17 18 19 21
30 28 25 23 22 21 21 22 19 20 25 25 27 22 23 22 23 19 17 14 12 9 8 7 8 9 10 12 11 10 13 10 9 8 8 8 12 13 15 19 19 18 23
34 32 30 27 24 22 22 24 23 26 27 27 26 28 26 25 24 21 19 15 13 10 8 7 7 9 11 11 10 8 10 10 10 10 8 8 12 16 18 16 18 22 24
33 34 32 30 27 27 24 24 23 26 32 35 37 32 29 30 26 23 20 16 13 11 8 6 6 9 11 11 9 8 3 7 8 6 9 16 11 16 12 18 22 23 22
35 34 33 31 29 29 26 23 24 32 38 42 38 36 33 30 25 23 19 16 14 11 8 6 6 8 10 11 9 4 3 3 13 10 13 11 14 14 20 24 24 23 24
37 34 33 32 30 28 28 28 35 38 41 39 37 34 33 29 25 24 20 17 14 11 8 6 7 8 8 9 11 8 6 9 4 9 7 9 15 19 21 25 26 25 26
32 36 34 31 30 29 30 32 35 33 26 33 37 34 30 30 27 23 20 17 14 11 8 6 7 8 9 9 9 9 10 9 9 10 16 11 20 19 23 20 21 27 24
30 27 34 32 32 30 33 32 31 25 32 33 38 36 33 31 29 24 20 17 14 10 7 7 7 8 9 10 10 11 10 9 9 11 15 22 25 26 21 27 23 25 23

GFSSE_850_spd_048.txt.gz
Wind_Speed
11 16 14 14 13 11 12 11 11 9 7 6 5 4 3 3 4 5 5 6 6 5 3 4 4 7 6 4 2 4 3 4 6 7 6 7 7 5 4 2 2 0 2
12 16 15 15 14 12 8 7 12 10 8 8 7 6 6 5 4 4 5 4 3 3 4 6 7 11 8 6 2 3 4 7 6 7 7 9 12 10 6 4 1 2 2
14 18 17 15 14 11 7 8 10 9 8 8 8 6 5 4 2 2 3 1 3 4 7 5 11 14 10 8 4 4 8 9 8 7 10 10 9 11 8 6 4 2 2
13 18 18 17 13 10 8 10 10 8 8 8 8 8 9 4 1 3 4 6 4 5 12 8 8 12 11 6 2 7 9 8 6 7 8 6 1 8 9 6 4 3 2
12 15 17 16 13 10 9 10 8 8 7 7 9 11 9 3 3 6 7 7 6 5 10 11 9 7 4 5 6 8 7 4 10 12 12 10 3 9 10 8 5 5 5
11 18 14 16 12 12 10 9 8 7 7 8 10 10 10 10 9 8 8 7 7 6 7 10 8 7 5 7 8 6 2 5 8 7 6 7 7 9 9 8 8 7 7
19 18 13 14 15 12 10 8 7 7 8 12 16 17 14 11 10 8 7 7 8 9 8 8 6 6 5 3 2 3 4 8 10 7 1 6 6 8 9 8 8 9 9
18 17 14 15 13 11 10 9 7 7 8 10 14 14 11 9 6 6 5 5 6 7 7 6 5 4 3 2 3 4 5 5 7 5 5 6 7 10 10 8 6 6 8
14 14 15 19 15 12 11 9 8 7 7 10 12 14 12 10 7 3 3 3 4 4 4 4 4 3 3 3 4 4 5 7 8 5 3 4 9 9 7 8 8 10 10
17 13 11 19 18 16 14 11 9 8 7 9 11 11 11 9 8 5 4 2 3 3 3 3 3 4 3 4 4 5 6 8 6 4 5 7 11 10 10 11 11 11 12
18 17 11 12 16 17 16 14 11 10 8 8 10 11 10 8 5 9 6 4 3 3 3 3 3 4 4 6 7 6 7 5 3 6 7 9 10 10 10 11 11 11 11
19 19 18 16 14 16 14 13 12 11 10 8 9 11 12 8 6 6 4 4 3 3 3 2 3 5 5 2 2 4 1 2 5 9 10 9 11 11 11 12 12 12 13
17 19 21 19 16 14 19 15 15 13 11 11 8 11 13 14 14 11 6 6 4 3 3 3 2 3 2 4 5 4 4 5 6 11 14 14 13 12 12 15 15 15 15
20 20 21 21 20 20 19 18 16 15 14 14 12 9 14 18 14 15 8 5 4 6 4 4 4 5 5 4 6 7 9 10 12 13 16 16 15 13 13 16 15 15 15
22 21 22 23 23 23 22 19 19 16 16 15 17 17 17 17 12 9 12 9 10 9 11 9 7 6 6 5 8 10 10 12 12 14 16 17 15 14 14 15 15 15 15
18 20 22 23 24 28 21 18 15 18 18 16 18 17 16 12 11 13 13 12 11 9 8 10 9 6 6 6 8 11 13 14 15 14 15 16 14 12 13 13 13 13 13
22 19 23 23 26 25 24 30 27 19 19 21 20 18 19 16 15 17 14 12 11 7 7 9 9 9 7 6 10 11 13 13 11 14 12 14 14 11 10 10 11 12 14
25 25 24 25 26 27 24 23 26 28 21 20 22 20 19 22 23 20 16 15 13 10 6 7 7 6 6 8 9 10 11 11 11 11 10 12 13 12 11 10 12 14 17
28 28 26 30 30 27 28 27 22 25 25 22 22 22 20 25 23 20 18 16 14 11 8 8 7 6 6 7 9 10 12 12 11 9 10 10 9 11 14 16 15 19 18
34 33 32 25 30 32 28 28 26 17 27 25 23 23 26 27 24 22 20 18 16 13 10 9 7 6 6 7 8 9 11 11 10 9 10 10 12 11 16 18 20 19 18
37 34 34 35 36 33 35 33 31 22 27 27 24 26 29 29 27 26 22 21 17 15 12 10 8 7 6 7 7 8 8 8 9 10 7 8 12 19 17 21 18 21 23
33 37 37 32 29 34 34 36 35 29 28 29 28 30 30 32 30 27 25 23 19 15 13 11 8 7 6 6 7 7 3 7 8 8 15 14 16 16 20 19 23 25 25
36 38 35 34 37 31 32 32 33 32 32 34 34 34 35 38 32 30 28 24 20 16 15 11 8 8 7 6 7 4 2 3 10 8 9 14 14 18 21 23 28 29 27
37 36 37 35 39 35 34 37 39 39 40 42 40 42 43 37 32 29 27 24 20 17 15 12 9 6 7 8 8 6 6 7 5 7 6 10 14 18 22 28 28 27 29
26 28 38 38 35 40 39 40 43 42 43 40 41 43 40 33 31 30 28 24 20 18 15 11 8 6 7 8 8 9 9 8 8 9 19 18 20 23 25 24 26 28 26
22 29 24 37 37 38 38 41 44 44 42 41 40 41 39 36 33 30 27 24 21 18 15 11 8 7 7 8 9 9 9 9 8 12 19 26 28 30 27 27 24 23 24

GFSSE_850_spd_051.txt.gz
Wind_Speed
16 15 15 17 17 15 15 13 13 11 11 9 8 7 5 5 4 4 4 4 3 4 3 4 6 9 7 5 3 6 5 4 3 3 3 4 7 7 6 3 2 1 1
16 20 18 19 18 17 15 14 12 12 9 8 7 5 5 3 3 3 4 4 5 2 5 6 13 12 10 5 3 5 7 7 5 4 4 4 7 9 7 4 2 2 2
16 21 20 19 18 15 11 13 14 12 11 9 7 5 5 4 3 2 2 3 4 7 8 9 15 13 12 6 2 4 8 7 5 5 6 6 8 9 7 3 3 2 2
17 22 19 18 16 13 13 14 14 12 11 11 11 9 7 6 3 1 6 7 7 10 10 10 14 12 8 4 1 5 7 5 7 8 11 10 8 9 7 4 3 2 1
18 21 19 18 15 13 14 14 13 12 11 11 12 14 9 6 5 8 8 7 8 13 13 12 12 9 7 5 6 6 4 7 9 10 9 8 7 9 8 7 6 5 5
17 20 20 19 16 14 15 14 13 12 11 12 14 13 10 9 10 10 9 8 8 10 13 13 11 9 7 6 5 1 5 8 9 6 4 5 5 7 7 6 6 7 6
14 18 18 17 15 15 14 13 13 12 12 12 14 16 15 13 11 11 10 10 10 9 10 9 7 6 5 2 3 5 9 11 9 6 2 6 5 7 7 5 4 4 5
13 16 14 13 16 14 13 12 11 11 13 14 19 18 16 13 11 10 10 10 10 10 10 8 7 6 5 5 6 8 9 8 9 4 3 3 3 7 5 3 2 4 5
16 16 14 14 15 14 13 11 10 10 12 13 16 15 14 12 8 7 8 8 8 8 8 8 8 7 7 7 7 7 8 10 5 1 1 4 7 10 9 6 6 7 7
19 17 15 19 18 16 15 13 11 10 10 11 13 12 13 11 9 6 5 6 6 6 6 7 7 7 6 6 6 7 8 6 0 2 4 5 9 11 10 7 7 7 6
19 17 14 20 20 18 17 15 13 12 10 11 12 13 12 10 9 8 6 6 6 6 6 7 7 7 6 5 7 9 6 3 3 5 8 10 10 11 10 8 7 7 7
21 19 16 15 19 19 19 16 15 13 11 11 12 13 13 11 9 7 7 6 5 6 6 6 7 6 4 6 3 4 4 4 7 11 11 9 10 11 10 10 9 9 10
25 22 19 17 15 15 21 18 17 15 14 13 13 14 15 13 12 8 6 6 6 7 7 6 6 5 2 3 4 4 5 7 9 11 13 13 11 9 10 13 12 10 11
25 24 21 20 18 16 15 18 15 15 15 15 14 16 18 15 13 11 8 8 8 8 8 6 5 5 4 7 7 7 7 10 11 12 13 13 12 10 14 14 12 11 11
27 25 28 24 23 22 19 18 20 19 17 14 16 16 18 15 14 13 13 10 10 10 11 7 7 8 8 7 6 7 8 9 11 12 13 12 12 10 11 11 11 10 10
25 30 28 31 27 24 24 21 19 21 18 18 16 15 18 16 16 16 16 12 11 10 8 13 14 10 8 7 7 8 10 11 12 12 12 12 11 9 9 9 10 9 9
23 21 33 31 31 29 27 26 22 21 19 20 20 20 18 19 17 18 15 15 15 16 15 14 14 10 7 6 7 9 9 9 11 12 11 12 10 9 8 8 9 10 11
22 25 30 33 31 33 32 31 27 23 26 24 23 24 22 20 18 21 20 16 19 18 14 12 11 10 8 6 7 8 9 8 9 11 10 10 9 8 8 9 10 13 13
31 25 26 34 32 31 34 32 30 30 29 27 25 25 23 23 24 24 23 20 21 19 14 11 10 10 7 6 7 8 8 8 8 8 8 9 10 11 10 13 14 15 16
39 36 29 32 35 34 33 33 30 32 30 29 27 28 25 26 28 28 25 24 22 19 15 12 12 10 8 6 7 7 7 7 5 6 8 8 7 9 13 17 16 15 16
37 38 38 35 30 39 39 37 34 33 32 35 30 28 27 30 27 29 29 28 25 21 17 14 14 12 8 6 6 7 7 6 6 5 4 8 11 12 16 16 18 19 20
33 40 35 38 40 36 39 37 38 36 29 36 32 30 29 30 32 31 30 29 26 24 20 16 15 13 10 6 6 6 4 7 5 6 9 9 10 14 15 17 19 22 25
28 32 34 33 34 44 43 42 40 37 33 34 34 34 34 33 35 32 31 31 28 24 21 17 16 13 10 7 5 4 4 4 7 7 8 9 12 15 16 18 21 26 26
35 28 30 32 31 27 39 44 43 44 42 38 38 38 38 36 37 34 32 32 29 25 22 19 17 14 10 9 7 7 7 8 5 4 8 12 14 16 19 20 25 23 23
28 27 28 38 35 35 31 41 42 45 41 39 41 37 39 39 40 35 33 31 30 27 22 18 16 13 11 9 8 8 8 8 10 10 14 12 16 20 22 21 22 22 19
19 21 25 24 37 37 37 39 44 43 43 42 44 40 42 42 40 34 33 32 29 26 21 19 16 13 11 9 9 9 9 9 10 11 15 21 25 27 24 23 21 21 19

GFSSE_850_spd_054.txt.gz
Wind_Speed
15 18 20 19 18 18 17 17 16 15 14 13 13 12 11 10 8 8 8 8 7 6 7 7 8 6 7 7 5 6 4 1 2 2 3 2 3 5 4 3 1 2 2
19 19 20 20 19 18 17 17 16 14 14 12 11 11 9 8 8 7 6 6 7 6 5 10 13 11 8 6 6 7 6 3 4 4 3 3 5 6 5 4 2 2 2
19 21 20 21 20 20 18 17 16 13 12 11 10 9 8 6 4 4 4 5 6 8 8 12 16 13 10 4 2 4 6 4 5 5 6 7 8 9 6 3 2 3 3
15 21 21 21 20 17 15 17 16 14 12 10 9 8 8 6 4 3 5 7 8 10 9 15 17 14 9 6 4 3 4 7 7 7 9 10 11 10 7 4 3 4 3
16 19 20 21 19 15 16 17 16 14 13 13 12 10 8 7 5 7 8 8 11 13 13 18 16 13 11 4 1 3 5 8 8 6 9 11 9 9 7 7 7 6 5
19 20 21 20 17 15 16 16 16 14 13 14 15 11 9 8 9 9 8 8 11 13 14 15 13 10 6 3 3 1 7 7 6 6 7 8 7 8 6 5 7 6 4
20 21 21 19 16 15 16 16 16 15 14 13 14 13 11 12 10 9 9 10 11 13 13 11 9 8 5 2 4 7 8 9 6 7 4 5 6 7 5 3 2 2 3
17 21 20 19 17 16 16 15 14 13 13 13 15 15 15 13 11 10 10 10 10 10 10 8 6 5 5 7 8 10 11 8 6 5 3 4 3 5 5 5 4 5 5
15 19 18 16 16 16 15 14 14 13 13 14 15 16 15 13 10 9 10 10 10 10 10 9 8 8 8 9 10 10 9 8 5 3 2 1 5 7 9 7 6 7 6
16 16 16 16 17 17 16 14 13 13 13 13 14 15 15 13 11 9 9 9 9 8 9 9 9 9 8 8 9 11 10 7 3 3 2 4 8 10 10 7 5 4 4
20 18 16 16 18 18 17 16 14 13 14 13 13 14 14 11 11 9 8 8 8 8 8 9 9 9 8 7 9 10 8 5 3 5 5 7 10 11 11 8 6 6 7
25 23 19 16 19 20 20 19 17 15 15 14 13 14 13 12 10 10 9 9 8 8 9 9 8 8 6 7 8 7 5 5 5 6 9 9 10 11 10 9 7 8 9
27 25 22 18 18 22 22 20 19 17 16 16 16 16 16 14 13 12 11 9 9 9 10 9 8 7 5 7 5 6 5 6 7 9 10 11 11 9 8 10 8 8 8
27 25 23 21 20 20 20 24 21 20 19 18 17 19 20 17 15 12 11 9 9 10 10 8 8 8 6 6 7 7 8 9 11 12 12 11 10 10 12 11 9 8 8
26 25 26 25 24 22 21 20 23 22 21 19 19 21 22 19 17 15 13 11 12 13 12 9 8 8 7 8 9 9 9 10 11 12 11 10 10 10 10 10 8 8 8
30 28 26 28 26 25 23 21 22 22 20 20 20 22 23 20 18 15 14 15 14 14 11 11 9 10 10 11 10 10 10 10 11 11 11 9 8 8 7 7 7 7 7
27 36 34 31 29 29 27 24 22 22 21 21 20 22 22 21 19 16 17 18 15 15 14 13 13 13 13 12 10 10 11 10 11 10 10 9 8 7 6 6 6 7 8
21 20 33 34 34 32 33 29 26 24 23 24 23 21 22 20 20 18 21 19 17 16 14 14 14 15 14 12 10 10 10 9 10 10 9 8 7 6 7 6 7 11 10
31 26 21 34 36 36 35 32 29 27 27 26 25 22 22 22 21 23 24 20 18 19 17 17 15 14 13 11 10 10 9 9 9 7 7 7 7 7 7 8 11 10 11
40 36 32 25 32 35 37 36 32 31 30 29 29 27 24 25 25 26 24 24 23 21 21 19 15 14 14 12 10 9 9 9 7 7 6 6 7 8 9 12 10 11 12
41 45 38 37 31 37 39 38 38 36 33 32 35 32 29 29 28 27 27 28 27 25 23 20 17 15 15 13 11 10 10 9 8 7 7 7 9 10 11 12 14 14 16
28 35 39 37 36 36 42 44 43 39 37 34 34 33 32 33 29 29 28 31 30 28 27 23 19 17 17 15 11 10 7 8 11 9 9 10 10 11 13 14 16 18 21
31 26 26 37 40 35 39 43 44 41 39 37 35 36 37 38 34 31 30 30 33 32 28 24 20 19 18 16 13 10 6 6 6 10 11 13 13 14 15 16 19 21 25
34 32 30 25 27 34 33 43 46 46 45 41 39 38 41 39 37 33 33 36 34 32 28 25 22 20 18 17 14 13 12 11 6 5 9 12 14 15 16 18 22 24 23
26 26 29 30 29 25 29 29 42 48 47 44 42 38 40 41 41 35 35 37 36 33 30 28 25 21 19 18 15 12 12 11 12 12 10 11 14 16 20 21 20 22 21
20 23 26 25 25 30 34 33 34 42 47 44 41 42 42 42 42 39 38 38 33 29 31 27 24 21 20 18 15 13 12 11 11 12 13 17 19 21 19 20 19 20 19

GFSSE_850_spd_057.txt.gz
Wind_Speed
19 21 21 20 19 18 18 18 17 16 16 16 15 15 14 13 12 11 10 10 9 8 7 6 4 4 7 6 4 4 1 2 3 3 3 1 1 2 3 3 3 3 3
22 23 21 21 18 18 17 16 17 16 15 15 15 14 12 11 10 10 10 10 9 8 7 11 9 6 9 7 7 6 4 2 3 3 3 3 3 4 4 5 4 4 4
21 22 22 21 19 18 18 19 17 17 16 12 11 12 11 9 8 7 7 6 6 4 10 13 13 9 7 7 3 6 4 4 5 5 6 8 7 8 6 6 6 6 5
18 21 22 22 20 19 18 18 17 13 11 10 9 9 7 7 5 4 4 5 7 8 11 14 15 11 8 4 2 5 3 5 6 8 9 10 11 11 10 8 8 8 6
18 19 20 21 21 19 16 16 15 13 11 10 8 6 6 5 3 4 5 6 11 11 13 17 16 13 8 4 1 3 4 6 5 7 10 11 12 10 8 10 10 8 7
19 18 18 20 20 16 14 16 15 14 13 12 10 6 7 5 7 6 6 7 12 13 17 18 14 12 7 3 2 4 6 4 5 6 9 9 10 10 9 8 8 8 5
19 20 19 18 18 14 15 15 15 14 14 14 11 9 8 8 8 7 7 9 11 12 14 13 10 8 5 2 4 8 6 6 5 6 7 7 9 8 6 3 3 3 4
17 20 19 18 15 14 15 15 14 13 13 14 12 12 10 10 9 8 8 9 10 11 11 10 8 6 5 6 7 9 7 5 5 4 3 5 4 3 4 5 5 5 4
16 18 18 16 15 14 15 14 14 14 12 12 13 13 13 11 10 10 9 9 10 10 10 8 8 8 9 9 9 9 8 5 4 2 2 1 4 6 7 7 6 3 3
16 17 17 16 14 15 16 15 15 15 14 14 14 14 15 13 11 10 10 9 9 9 9 9 9 9 10 10 10 8 8 6 3 2 1 3 6 10 9 7 3 5 7
17 18 18 16 13 15 17 16 16 15 15 15 15 16 16 14 12 11 10 9 9 9 9 9 9 9 9 8 9 8 6 4 3 4 4 5 9 10 10 8 6 7 8
22 22 21 18 14 16 18 18 17 16 17 17 16 15 15 14 12 11 10 11 10 10 10 10 10 9 8 7 7 6 4 4 4 5 7 8 9 10 11 9 8 9 9
23 22 24 20 16 18 21 20 19 18 18 18 17 16 15 15 15 15 13 13 12 12 12 11 10 9 8 7 6 6 6 5 5 7 8 9 11 8 11 11 8 9 10
23 22 21 20 19 20 21 22 21 20 19 19 18 18 18 17 16 16 15 13 12 12 12 11 10 9 7 7 7 7 7 7 8 9 10 10 10 11 13 12 8 7 8
28 25 23 21 22 21 23 23 24 23 22 19 19 20 21 20 17 16 15 13 13 13 13 11 10 9 8 7 8 8 8 8 9 10 10 9 9 10 11 9 8 7 7
29 28 25 25 24 24 25 24 23 23 23 21 21 21 22 22 20 18 16 14 14 14 14 11 10 9 9 9 10 9 10 10 10 10 9 8 7 8 8 8 7 7 7
30 30 29 28 26 26 27 25 23 23 22 23 22 23 24 24 23 19 18 17 15 15 16 14 14 12 12 11 12 11 10 10 10 9 8 7 6 6 6 6 6 6 8
23 26 30 35 34 31 31 27 26 24 24 23 21 21 23 24 24 21 20 17 18 17 17 16 14 14 14 14 13 12 11 10 9 9 8 6 5 5 6 6 6 9 9
28 24 22 25 37 36 35 32 29 28 27 26 23 21 22 22 24 23 21 18 20 19 18 17 15 15 14 15 14 12 11 10 10 9 7 6 6 5 6 6 9 9 10
36 33 28 26 25 25 38 37 33 33 31 31 27 26 25 22 24 23 22 22 23 21 20 20 17 16 16 15 14 13 12 11 11 8 8 7 7 7 7 9 11 10 12
37 43 39 33 28 28 29 41 38 38 36 35 33 30 29 29 25 25 24 24 26 25 22 21 20 20 18 17 16 15 14 13 12 11 10 9 10 9 10 12 12 13 15
24 34 43 40 36 34 32 33 41 40 40 38 35 34 33 32 30 27 27 28 29 28 27 26 24 23 20 19 18 14 9 13 14 14 12 12 12 12 13 14 14 16 18
29 24 26 30 33 36 35 34 40 42 43 42 40 36 36 37 34 33 27 29 31 31 32 31 28 26 23 21 20 15 6 8 7 12 15 15 15 15 15 16 17 19 23
34 32 30 29 26 23 28 37 37 43 44 46 43 39 37 37 38 36 35 30 31 32 34 34 30 28 24 23 21 21 20 16 9 6 12 15 16 17 17 17 19 23 24
16 24 29 29 27 25 22 26 32 41 45 45 45 45 42 40 38 37 38 36 33 34 36 34 32 29 27 24 22 21 19 18 16 16 11 12 15 16 17 19 23 23 23
8 13 19 22 24 27 28 29 27 28 33 43 43 45 45 40 40 38 41 40 36 35 38 36 32 29 27 24 22 22 20 17 14 16 15 16 16 17 19 20 23 22 22

GFSSE_850_spd_060.txt.gz
Wind_Speed
19 21 21 17 16 17 17 16 15 14 16 15 15 14 12 11 10 8 8 7 6 5 4 2 3 6 7 5 5 3 1 4 4 3 1 1 2 2 4 5 6 6 6
20 22 22 18 17 17 17 15 16 14 13 15 14 13 12 11 10 10 9 8 7 6 6 7 6 8 7 7 7 7 4 3 3 3 3 3 4 4 6 6 6 6 6
22 22 23 20 17 17 16 17 16 13 11 13 14 14 13 12 10 9 8 6 5 6 6 14 11 7 6 4 5 7 4 5 6 5 6 7 7 8 8 9 8 8 7
20 21 22 21 19 19 18 18 16 15 14 13 10 10 11 9 7 6 4 5 5 11 12 17 13 9 7 2 3 5 5 6 7 8 8 9 11 12 11 11 11 10 8
19 18 20 21 19 19 19 19 17 16 14 12 10 9 7 7 5 4 5 7 9 9 18 18 13 11 3 2 1 3 5 6 7 9 9 11 12 10 10 11 9 7 7
20 19 19 22 20 19 18 18 16 14 12 11 9 6 7 5 5 5 5 8 14 13 18 15 15 10 7 3 2 2 5 5 6 7 8 10 11 11 8 7 8 10 7
20 20 20 21 20 18 16 18 16 14 12 12 9 6 6 5 6 5 6 7 11 14 17 15 12 10 6 4 3 6 5 6 7 6 8 9 11 7 4 3 4 3 3
18 20 19 20 19 16 15 16 16 15 15 12 9 8 7 7 7 6 7 8 10 12 14 12 9 7 5 5 5 7 6 5 5 4 6 5 6 3 6 5 4 4 3
17 18 18 15 15 14 14 15 14 13 13 14 10 10 9 8 7 8 8 9 10 12 11 10 8 7 7 6 7 7 6 4 3 2 3 3 2 6 7 6 3 1 3
16 17 16 15 14 12 13 14 14 13 13 13 11 12 11 10 9 9 10 10 10 11 10 10 9 9 9 7 6 6 5 4 1 1 0 1 5 8 6 4 3 5 6
16 16 17 17 14 12 13 14 15 14 14 13 14 13 15 12 11 10 10 10 10 10 10 10 10 9 9 7 6 6 5 4 2 3 2 4 7 7 6 7 6 7 7
20 19 19 18 15 13 14 15 15 15 15 16 15 16 16 14 11 10 10 10 9 10 9 10 10 10 9 7 6 6 5 4 3 4 5 5 7 6 8 7 7 7 7
20 19 20 20 18 16 15 16 17 15 15 16 17 16 16 16 14 13 12 12 11 10 11 11 11 10 8 6 6 5 5 5 5 5 6 7 6 7 12 7 6 7 7
19 18 19 19 19 17 15 17 18 18 17 17 18 18 17 17 16 15 14 12 11 11 11 11 10 10 8 7 7 6 7 6 6 7 7 7 7 10 11 9 7 6 6
20 20 20 18 20 18 17 19 20 19 19 17 19 19 19 18 17 15 16 15 13 12 12 11 11 10 9 7 7 7 8 7 8 8 8 8 8 10 10 7 6 5 5
24 23 22 21 22 20 20 20 20 19 20 20 20 21 21 20 19 17 16 16 15 14 14 13 11 10 10 8 7 8 9 9 9 9 8 8 8 8 8 6 4 4 5
29 29 26 25 24 24 23 21 20 21 21 23 23 22 22 22 21 20 18 18 14 14 15 15 14 13 12 10 9 9 10 10 11 10 8 8 8 7 6 6 5 4 5
26 31 29 29 28 27 27 25 24 23 23 24 24 24 24 24 24 23 22 20 17 17 17 17 16 15 14 13 11 11 12 11 11 10 9 8 7 6 6 7 6 6 8
25 24 26 29 31 33 34 31 28 27 27 26 24 24 23 22 23 25 24 20 19 20 19 20 18 17 15 14 14 14 14 12 12 10 9 9 8 8 8 8 7 9 9
31 30 29 27 25 25 29 33 32 32 32 31 27 28 24 23 22 23 24 23 23 23 23 22 21 19 17 16 16 15 14 14 13 12 11 11 10 10 10 10 10 10 10
25 30 34 35 31 30 27 26 32 37 37 35 33 30 28 26 26 22 24 25 27 26 25 23 23 22 21 19 17 17 16 16 15 14 13 13 12 12 13 13 12 12 13
27 26 27 35 36 35 32 30 32 28 37 37 34 32 31 30 28 27 27 28 28 27 27 28 26 25 24 21 20 18 13 16 18 18 17 15 15 15 15 16 15 15 17
31 27 26 26 32 36 36 34 35 35 35 38 39 36 34 33 34 31 32 29 28 28 29 30 31 28 27 24 22 18 8 10 11 16 18 18 17 17 18 18 18 18 20
17 28 30 28 24 20 21 31 36 38 39 38 38 36 37 36 36 35 34 32 32 30 31 32 32 32 30 28 24 25 25 18 9 8 16 19 19 19 19 19 20 21 22
4 11 22 31 30 25 22 24 24 33 39 39 38 40 40 40 39 38 35 35 34 35 34 33 33 34 33 30 29 28 25 24 23 20 12 16 17 18 19 20 22 23 25
6 4 8 13 17 22 26 25 25 25 25 31 35 38 41 43 42 42 39 36 36 36 37 35 34 35 33 32 31 28 27 24 23 21 20 18 15 16 19 21 23 24 25

GFSSE_850_spd_063.txt.gz
Wind_Speed
20 21 20 20 20 20 19 17 14 13 13 14 12 11 9 8 7 6 6 5 4 3 1 3 4 7 7 5 4 2 4 5 3 2 2 2 2 3 5 6 7 8 10
21 23 22 18 18 19 17 15 13 12 11 11 12 11 10 9 8 8 8 7 6 5 5 6 8 8 6 7 8 5 4 4 3 2 2 3 4 5 6 7 7 8 8
22 22 22 19 18 19 17 16 16 12 9 11 11 12 10 9 8 9 8 6 6 7 10 10 10 8 7 5 8 7 6 6 6 6 7 8 9 10 10 10 9 10 9
23 23 22 20 19 19 18 16 13 10 11 11 11 11 11 9 9 8 5 5 4 6 14 13 10 8 7 4 6 7 7 8 9 10 10 9 14 13 13 11 11 10 9
22 21 22 20 18 19 18 17 16 16 13 12 10 10 9 10 7 5 5 7 9 14 19 16 11 10 5 2 4 5 8 9 10 10 10 12 12 10 11 11 8 8 8
21 20 22 20 20 20 16 16 16 14 13 12 10 8 7 7 5 6 8 11 8 19 19 15 13 9 4 1 2 6 8 8 9 8 9 11 12 9 7 5 7 9 7
21 20 20 20 19 19 18 17 16 15 12 12 10 5 7 6 6 6 8 14 14 19 15 15 13 8 5 2 2 7 8 9 8 8 9 11 10 5 3 3 2 2 1
19 20 19 20 18 18 17 19 16 14 13 12 8 7 6 7 6 7 8 10 13 15 16 14 10 8 6 3 6 7 7 6 6 6 6 7 5 2 4 3 1 2 3
17 19 18 18 18 16 15 16 17 17 15 14 9 8 7 7 6 7 8 10 12 14 13 12 10 8 6 6 7 7 6 6 4 4 4 4 0 4 3 3 1 1 2
15 17 17 17 17 15 12 13 15 15 15 15 11 10 8 8 8 8 8 10 12 12 11 10 9 8 8 7 7 6 5 4 2 1 1 0 3 5 1 1 4 4 3
16 17 17 17 15 13 13 14 14 13 13 13 14 11 11 10 10 10 10 10 11 12 11 10 10 9 7 6 5 5 5 3 2 2 2 3 5 2 4 4 5 5 5
18 20 19 18 16 14 13 14 13 13 13 13 13 13 14 13 11 11 11 11 11 11 11 11 10 8 7 6 5 5 4 4 3 3 4 5 5 6 6 6 6 5 5
18 18 20 19 18 16 14 14 14 14 14 14 14 15 16 15 14 12 12 12 12 12 11 12 10 9 7 6 5 5 4 4 4 5 5 5 4 9 7 7 6 5 4
18 18 17 18 19 16 14 14 15 15 14 15 15 17 17 17 16 14 13 13 12 11 11 11 11 10 9 7 7 6 6 6 5 6 6 7 6 11 9 8 6 5 4
19 20 19 17 19 18 17 16 15 17 16 15 16 17 17 18 17 16 15 14 14 13 12 13 12 11 10 8 7 7 7 7 7 7 7 7 9 11 10 8 5 4 4
20 19 18 18 19 21 21 18 16 15 16 18 18 18 19 19 18 17 17 17 16 14 14 14 13 13 11 10 9 8 8 8 8 8 8 8 8 9 9 7 5 4 5
22 21 22 21 20 21 22 20 19 18 18 19 19 20 21 20 20 19 19 19 18 17 17 17 16 14 13 11 10 9 9 9 9 9 9 8 9 9 9 7 5 5 5
21 25 26 25 25 23 24 23 23 20 20 21 20 21 22 22 21 22 22 21 20 19 19 19 18 16 15 13 12 12 12 11 11 11 10 10 10 10 10 9 7 7 7
26 25 26 29 29 27 28 28 25 25 24 23 23 22 24 24 23 24 24 23 23 23 21 21 21 19 16 15 15 13 14 13 13 12 12 11 11 11 11 10 9 9 9
28 26 29 28 29 31 32 32 32 31 30 29 26 26 26 25 26 24 24 25 26 27 25 24 22 21 19 18 17 16 16 15 15 14 14 13 13 13 12 11 11 11 10
26 29 28 32 32 30 31 32 34 35 36 35 31 28 27 26 26 23 24 26 30 30 28 24 25 24 23 22 19 18 18 18 17 17 16 16 16 15 15 14 14 13 14
26 25 28 28 30 36 36 34 34 31 33 35 36 32 30 28 28 26 27 28 30 31 31 29 30 27 26 25 24 20 14 19 21 21 20 19 19 18 17 17 16 16 17
28 28 26 28 27 29 35 37 37 35 33 34 31 30 33 33 32 31 32 31 31 32 33 31 32 31 30 29 28 21 9 12 13 20 22 21 21 21 20 20 19 19 19
14 24 30 31 27 26 23 34 40 40 40 38 35 31 33 34 36 35 34 34 34 33 34 33 32 34 34 33 30 29 28 20 11 9 16 20 22 23 23 22 21 21 21
3 5 14 25 30 27 24 22 26 35 38 38 38 35 35 36 36 38 37 36 35 36 36 36 35 36 36 36 35 33 31 30 27 24 18 21 23 24 25 24 23 22 22
10 8 3 6 14 23 25 24 26 27 28 28 30 33 36 38 37 41 40 40 39 36 36 36 38 37 36 36 36 33 34 33 31 29 28 27 22 22 23 23 22 22 23

GFSSE_850_spd_066.txt.gz
Wind_Speed
18 20 21 20 21 19 17 14 12 11 12 12 11 9 8 7 5 4 3 2 3 2 1 3 3 4 4 3 1 3 5 5 3 3 3 4 4 4 6 7 10 5 9
20 21 21 21 21 20 16 14 12 10 8 10 11 9 8 7 6 5 5 5 4 2 3 6 6 7 7 6 5 3 3 2 2 3 4 4 5 7 7 7 7 6 7
22 21 22 19 18 19 17 15 13 11 9 10 10 9 9 8 7 6 6 6 5 6 9 8 8 8 7 6 7 4 6 6 7 8 8 9 9 10 10 9 9 8 7
21 20 20 20 21 19 17 17 14 11 9 10 9 10 9 7 6 5 4 4 5 11 12 11 9 8 7 5 6 7 8 9 10 10 9 10 10 12 11 10 10 9 7
19 19 19 20 20 19 17 15 14 11 10 10 10 8 8 7 5 4 3 3 7 14 16 11 10 7 4 4 5 7 9 10 10 11 10 10 8 9 12 9 7 7 6
18 17 20 20 19 19 17 16 14 13 12 11 8 6 6 8 6 4 6 7 10 16 17 12 10 8 2 1 2 6 7 9 10 8 9 10 6 6 7 5 8 8 9
18 17 19 18 19 18 16 16 15 13 11 9 8 6 8 7 7 7 8 9 13 15 17 12 10 7 4 1 3 6 8 9 7 8 8 8 6 4 3 1 2 3 2
17 18 19 18 19 18 16 16 16 14 11 10 10 5 6 7 7 8 11 12 15 13 13 12 11 7 4 2 6 7 7 8 7 6 6 5 3 2 2 1 3 4 5
17 16 17 19 19 18 16 16 15 12 11 11 9 7 6 7 7 8 9 12 18 15 16 14 10 7 5 5 8 7 6 6 5 4 6 1 2 4 3 1 2 3 2
18 16 15 16 16 17 17 17 17 15 14 13 10 9 7 8 8 8 10 12 14 15 14 12 10 8 6 6 8 7 5 4 3 3 3 2 3 2 1 3 6 5 4
18 17 16 15 15 15 13 14 16 17 16 15 14 12 10 9 9 9 11 12 13 14 13 12 10 8 7 7 6 6 5 4 3 3 2 2 3 4 4 5 7 6 5
19 21 18 17 15 15 14 13 14 13 13 14 15 13 11 11 10 11 11 12 12 13 12 11 10 9 8 6 6 6 5 4 4 3 3 4 3 7 6 6 6 6 5
17 20 20 19 16 15 14 14 14 14 13 14 14 14 13 13 13 12 13 13 12 12 11 11 11 9 9 7 7 6 6 6 4 5 6 6 6 9 8 7 6 5 5
17 17 18 19 20 16 14 14 14 15 14 14 15 15 15 14 14 12 12 13 13 13 12 11 9 10 10 8 7 7 6 6 6 7 6 7 8 11 8 8 6 5 4
17 19 19 20 20 18 17 16 15 15 16 15 15 16 17 16 16 14 13 14 14 13 12 12 11 12 11 10 10 9 9 9 9 8 6 8 11 11 10 9 6 5 4
18 18 19 20 20 22 19 18 16 16 16 17 17 16 18 18 17 16 15 15 15 16 14 13 13 13 13 12 12 11 10 10 10 10 6 7 10 12 12 9 7 6 6
17 16 18 18 19 21 23 21 19 18 17 18 18 18 19 20 19 18 16 16 17 17 17 16 16 16 16 15 14 13 12 12 12 11 10 8 10 12 13 11 9 8 8
16 17 18 20 21 21 22 23 24 23 20 20 19 20 21 21 21 22 21 18 16 18 19 18 19 19 18 16 16 15 14 14 13 13 12 12 12 11 12 12 11 10 9
18 19 20 21 24 25 23 24 24 24 24 23 23 22 22 23 23 24 23 21 20 20 20 21 21 21 21 19 19 18 16 15 16 16 14 14 15 14 13 13 13 12 11
29 28 26 25 25 25 28 27 27 27 27 28 27 26 25 25 25 25 25 24 23 23 25 24 25 24 23 22 21 20 19 18 18 18 17 17 17 17 16 16 15 15 14
29 31 31 29 28 25 28 31 34 34 34 35 35 32 29 28 27 28 28 27 27 29 28 28 27 27 27 27 23 23 22 21 21 21 21 20 20 19 19 19 18 17 17
27 28 29 30 32 31 27 34 35 37 40 39 38 38 36 33 31 32 30 30 29 30 30 30 32 32 31 31 27 15 10 18 25 25 24 24 23 23 22 22 21 20 19
27 29 30 30 29 31 32 28 30 32 34 37 37 36 36 38 38 35 33 32 32 31 33 35 36 36 36 34 33 20 10 12 13 22 27 27 26 26 24 24 24 23 22
16 24 29 32 32 34 33 29 27 34 37 40 38 36 36 36 37 39 37 36 36 34 35 36 37 38 38 39 36 37 32 15 9 7 18 24 26 27 27 26 26 26 24
4 3 11 21 29 32 31 32 27 28 28 33 36 36 36 37 37 35 39 38 39 39 38 39 40 40 42 42 41 39 39 37 33 25 13 20 25 27 28 28 27 27 26
8 6 4 3 11 22 29 29 28 24 24 24 28 32 37 39 39 38 39 39 39 42 40 41 42 42 41 44 43 43 42 39 37 36 33 25 22 23 28 28 27 27 27

GFSSE_850_spd_069.txt.gz
Wind_Speed
13 17 18 20 19 17 16 14 12 11 10 9 8 6 4 3 1 1 1 2 3 5 5 5 5 5 4 2 1 2 3 4 4 4 5 5 6 7 7 8 12 5 9
19 17 19 20 19 17 15 13 11 10 8 8 8 7 5 4 2 2 2 1 2 2 4 7 8 7 7 7 5 2 2 1 2 4 6 7 8 8 8 8 6 7 5
18 18 20 20 19 16 15 13 11 9 7 6 7 6 5 4 3 3 4 3 2 4 7 8 8 8 8 8 7 6 7 8 10 13 16 7 11 11 11 10 9 8 5
18 17 18 19 20 16 14 13 11 8 6 6 6 6 5 4 3 3 2 2 5 9 8 8 7 8 7 8 8 7 8 11 13 16 11 8 9 11 11 11 10 9 7
18 17 18 19 20 19 16 14 11 9 8 7 6 7 7 6 5 2 1 2 6 11 10 9 6 4 6 8 7 8 10 12 15 12 8 9 5 10 11 9 9 8 6
17 16 17 19 20 18 15 14 12 10 9 8 7 7 6 6 2 2 4 4 7 13 12 10 6 1 4 6 5 6 9 12 15 7 8 7 5 8 9 9 9 9 10
17 18 18 20 19 17 16 15 13 11 9 8 8 5 5 6 4 5 4 7 10 14 11 9 6 3 1 3 3 6 9 12 12 5 5 4 5 3 4 2 2 3 2
16 15 18 18 17 15 13 13 12 11 9 7 7 3 6 7 6 7 7 8 11 14 12 8 7 4 2 1 4 6 8 13 7 6 1 0 3 5 3 4 3 3 3
14 13 15 16 17 16 14 13 13 12 8 8 8 4 4 7 7 9 9 12 12 11 12 10 8 6 4 3 5 6 7 10 8 6 1 3 2 2 0 2 5 5 3
12 13 14 15 16 16 15 15 14 12 12 9 8 6 6 6 7 9 9 12 15 11 13 11 9 7 4 5 6 5 5 7 5 4 2 4 2 1 3 5 6 5 4
18 13 14 14 14 12 11 14 19 14 12 12 11 9 7 5 7 8 10 10 11 13 11 11 8 6 5 5 6 5 4 4 3 3 5 4 2 4 5 7 7 7 5
18 16 14 14 14 15 13 13 12 13 14 11 13 12 7 8 6 7 9 11 11 12 12 11 9 7 6 3 5 5 5 4 3 3 9 5 5 5 6 7 7 6 5
15 21 19 15 15 15 14 13 13 12 12 12 13 8 10 11 13 12 11 12 12 12 11 11 10 9 7 7 6 3 5 5 4 4 10 6 6 8 7 7 7 5 5
14 16 23 18 16 15 13 13 12 13 12 12 13 13 12 12 12 11 10 11 10 11 8 8 7 7 9 9 7 7 7 6 5 5 11 8 8 9 9 9 7 6 4
12 14 19 19 18 16 15 12 13 13 14 13 14 15 15 14 12 11 12 12 12 11 12 11 11 11 10 9 9 9 9 7 8 8 8 11 11 10 10 10 8 6 5
15 16 17 20 21 21 15 14 12 12 12 14 14 15 18 16 15 15 13 13 13 13 13 13 13 12 11 11 11 10 10 11 10 10 6 13 12 11 11 11 9 7 6
15 14 15 16 19 19 20 18 15 13 13 14 15 17 18 19 18 16 16 16 17 14 14 14 14 13 13 12 12 12 12 11 12 12 11 10 11 13 13 13 10 9 8
16 16 15 16 19 19 20 18 18 16 15 15 15 15 18 19 20 19 18 17 16 17 16 16 15 16 15 15 14 15 15 15 13 12 13 13 13 12 12 14 12 10 10
15 16 18 18 19 20 21 21 19 17 18 16 16 17 17 20 21 21 20 19 19 21 20 18 18 18 17 17 16 17 17 17 16 15 15 15 16 15 15 13 13 12 12
19 18 17 18 20 20 19 23 24 25 20 19 19 19 19 21 22 23 22 21 21 22 24 21 21 21 19 19 17 18 19 20 19 19 19 18 18 17 18 20 15 15 15
19 21 21 21 21 20 20 27 26 30 28 27 26 21 22 23 23 25 26 23 24 25 28 28 24 24 24 20 18 21 21 23 23 22 21 21 21 20 19 21 19 18 17
19 20 23 23 22 23 23 25 30 27 30 33 34 34 33 30 30 30 28 29 28 29 27 28 29 28 27 28 28 20 12 21 27 27 25 24 23 23 21 22 22 20 20
20 20 20 21 23 25 25 24 26 23 20 27 33 37 40 38 35 35 34 34 32 31 32 32 31 34 34 33 33 23 10 13 13 19 27 27 24 25 24 24 24 23 23
15 22 27 27 26 27 28 28 26 26 27 27 28 32 35 38 38 37 38 38 35 34 35 36 35 36 36 37 34 35 30 16 10 9 17 24 24 25 26 24 25 25 25
0 5 12 20 26 28 28 30 25 27 26 24 24 24 27 29 33 34 36 36 38 37 38 39 38 40 42 39 40 38 39 38 29 19 12 17 21 24 27 27 26 26 27
5 4 3 1 7 16 24 28 28 28 22 23 22 23 22 25 28 33 33 34 33 38 38 40 41 42 44 42 43 42 42 42 45 42 31 23 23 25 25 28 27 29 28

GFSSE_850_spd_072.txt.gz
Wind_Speed
12 18 18 20 20 18 17 15 13 11 9 8 7 5 4 3 4 5 6 6 8 9 10 9 9 8 7 5 3 2 2 3 5 7 9 9 9 10 10 8 9 10 10
13 20 19 20 20 19 17 15 12 10 8 7 7 5 3 2 1 3 4 5 6 7 9 10 10 10 10 8 6 6 7 9 11 12 14 13 12 11 9 8 7 7 5
16 22 20 20 19 18 16 14 12 11 9 6 6 6 4 2 1 1 2 2 4 6 9 11 11 10 11 10 9 11 13 17 20 20 18 16 13 13 13 11 11 9 7
15 22 21 21 19 18 16 14 12 10 8 7 5 6 5 4 3 2 2 4 8 9 9 8 9 10 11 11 11 13 15 18 20 19 15 10 11 11 12 12 10 9 8
14 19 22 22 19 18 16 13 11 11 10 8 7 6 7 5 3 1 2 5 10 12 10 7 7 8 10 11 12 14 17 19 17 12 10 8 8 13 12 12 13 11 11
12 18 19 22 21 17 15 13 12 11 9 7 7 6 7 6 4 2 4 7 11 14 9 7 4 4 7 9 10 13 17 19 15 10 9 4 8 11 9 8 7 8 8
18 17 15 20 20 17 16 15 13 9 9 9 8 6 8 8 5 6 6 9 13 14 10 9 4 2 5 7 9 11 16 17 11 5 6 4 4 3 2 2 4 4 2
19 17 14 21 18 17 16 15 12 12 9 8 7 7 7 7 7 8 8 11 13 15 10 8 5 2 3 5 7 11 16 16 10 5 3 2 3 3 3 4 5 5 3
15 13 17 20 18 16 14 14 13 11 8 7 7 5 5 6 7 7 9 11 11 13 10 8 5 2 1 3 7 9 11 13 10 3 2 2 3 1 2 6 7 6 4
11 10 15 17 19 18 16 14 13 11 8 8 6 7 7 7 7 8 7 9 10 10 10 8 5 3 1 4 6 7 9 10 8 3 1 4 2 1 4 6 6 5 5
8 9 16 15 18 17 16 16 14 12 10 11 9 7 9 8 7 8 8 9 12 8 8 8 6 4 3 4 6 6 9 9 6 5 5 6 4 3 3 6 7 5 4
21 10 8 15 14 11 6 9 12 14 13 12 12 9 6 6 7 9 8 7 8 9 8 8 6 5 5 5 4 5 7 8 7 10 8 7 6 4 4 6 7 6 4
24 23 10 11 8 16 17 12 11 9 11 10 10 8 8 8 8 7 8 9 9 7 9 8 7 7 6 4 2 5 7 4 9 11 9 6 8 5 5 5 6 5 4
27 27 25 19 17 17 18 12 6 8 9 11 13 10 11 14 13 11 9 10 10 9 9 9 9 9 10 10 10 4 6 12 10 12 11 8 9 8 7 6 6 5 4
13 25 28 25 19 16 16 13 13 15 15 13 13 12 10 17 15 10 9 9 10 9 9 7 8 5 8 12 12 10 11 14 13 15 13 11 10 10 9 8 7 6 4
10 10 21 27 28 23 17 14 17 16 17 16 18 19 19 18 16 11 12 13 10 11 10 13 11 13 16 12 13 15 17 17 15 13 14 13 12 11 11 10 8 7 5
21 13 16 20 25 27 23 17 15 15 16 16 19 19 20 21 17 16 16 16 16 15 16 17 15 16 18 15 17 17 18 16 15 14 16 16 15 12 12 12 10 8 7
11 16 18 14 18 21 27 23 22 18 16 18 16 20 19 20 21 20 19 21 20 19 18 18 19 20 20 20 20 20 19 18 17 15 15 18 16 15 12 13 12 11 10
14 15 13 15 17 17 21 27 21 20 20 19 18 17 16 17 20 21 21 21 21 19 19 20 22 23 24 23 23 21 22 22 19 18 17 17 20 19 15 14 13 13 13
15 16 17 17 18 16 17 19 26 22 20 19 20 19 19 20 19 21 22 22 22 24 24 24 24 24 26 23 23 21 24 23 22 21 21 19 21 23 21 19 16 15 15
20 20 20 18 21 18 20 22 22 26 25 24 23 22 22 22 23 23 25 25 25 26 28 28 26 26 27 25 22 23 24 26 26 25 24 23 24 24 24 24 22 20 19
18 20 23 24 21 23 25 23 26 26 25 27 29 29 27 26 26 27 27 28 29 29 30 29 30 29 29 29 27 24 23 28 30 29 28 27 26 26 25 26 26 24 22
20 19 19 21 27 24 25 25 25 25 27 26 27 30 32 32 31 31 31 31 32 30 32 34 32 32 33 33 34 28 12 16 16 22 26 30 29 30 28 26 28 28 26
21 26 28 27 26 26 27 27 27 26 28 31 31 30 30 30 31 35 34 36 36 35 34 33 34 35 34 36 35 38 33 16 13 11 19 23 28 32 32 31 28 29 28
3 8 15 24 29 29 31 32 32 32 22 19 23 24 25 29 30 29 27 32 35 35 35 34 35 36 37 37 40 39 38 37 26 22 20 23 26 29 31 32 30 30 29
4 4 4 1 4 13 23 28 29 31 32 29 22 22 23 23 21 23 24 26 25 34 34 33 35 37 39 40 41 44 43 40 43 37 27 24 24 25 29 30 30 30 30

GFSSE_850_spd_075.txt.gz
Wind_Speed
16 18 23 23 21 19 18 17 15 12 11 10 9 8 7 7 8 8 9 10 10 12 12 12 11 9 7 5 4 4 4 6 8 10 11 11 11 11 11 12 13 12 8
18 21 24 24 22 21 19 17 14 12 10 8 8 6 5 5 6 6 8 8 10 12 14 13 12 11 10 8 9 10 12 13 15 17 17 14 12 11 11 11 9 7 5
16 24 24 24 23 21 19 16 14 11 10 8 6 6 4 4 4 5 6 7 10 10 14 15 14 13 12 13 14 18 19 18 17 18 18 15 14 14 13 13 11 10 8
17 25 25 24 23 21 19 17 15 13 10 6 5 5 4 5 5 7 6 9 12 9 11 13 13 13 13 15 17 19 20 18 15 15 15 15 11 13 12 11 11 10 8
19 25 26 24 23 21 19 18 15 13 12 11 9 9 6 7 5 4 7 10 13 10 10 8 9 11 13 16 18 19 18 16 12 11 11 11 13 15 15 16 13 14 14
19 25 26 24 23 21 18 16 16 16 13 12 10 10 9 8 4 5 8 11 14 12 8 6 5 9 11 14 16 18 17 14 12 8 8 8 12 10 8 6 5 6 9
17 23 25 23 21 20 18 16 17 15 13 13 11 10 10 9 7 7 10 14 17 14 10 7 4 7 10 12 16 16 14 12 10 7 6 4 2 1 1 2 3 2 0
15 18 22 23 20 19 18 17 14 12 12 10 10 11 10 9 8 9 12 16 17 13 11 9 6 6 8 11 14 15 13 12 8 6 2 2 1 2 3 4 5 5 3
15 15 19 23 20 18 18 18 13 13 10 9 12 12 9 8 8 10 12 14 16 13 10 7 5 5 6 9 12 13 11 8 6 5 1 2 1 3 4 5 5 4 3
16 13 16 22 20 17 16 14 14 11 8 7 6 11 9 8 8 8 11 11 13 11 9 7 6 4 4 7 9 10 9 7 4 2 0 2 3 3 4 4 5 4 3
12 11 20 21 21 19 18 18 16 13 11 11 7 8 9 8 8 8 7 8 10 10 10 8 6 4 5 7 8 9 9 8 5 4 5 4 4 4 3 4 4 4 2
14 13 16 20 21 20 18 18 16 14 13 12 10 6 7 8 9 10 9 9 10 10 10 9 7 6 7 8 8 10 10 9 8 8 8 7 6 6 3 4 4 3 2
18 13 8 11 15 18 17 13 10 11 12 13 10 7 8 11 9 9 10 10 10 7 10 10 9 9 9 9 10 9 9 10 9 10 10 9 8 8 5 5 4 3 3
20 21 16 12 10 15 12 11 9 12 12 12 10 8 10 12 10 9 10 10 10 9 10 10 9 10 11 12 10 9 11 10 11 14 11 10 10 9 7 6 5 4 4
27 24 23 20 17 18 18 17 15 11 11 7 9 8 8 13 10 10 10 11 10 11 10 10 10 11 12 11 10 10 12 13 17 17 15 14 11 11 10 8 7 6 5
23 28 27 25 24 23 20 17 14 11 10 10 11 10 10 13 12 13 12 11 9 9 9 9 9 11 11 11 13 15 15 18 18 18 18 17 14 12 12 11 10 8 7
15 17 31 29 29 27 24 18 14 17 17 16 16 15 16 16 17 15 14 12 11 11 9 11 10 12 12 14 16 17 20 21 21 20 20 18 16 14 14 14 12 10 10
19 18 19 30 31 30 26 22 17 17 19 18 17 20 20 21 22 19 17 16 15 14 14 16 17 17 18 21 20 20 21 22 22 22 20 21 19 17 15 15 15 13 13
11 15 18 14 17 28 32 27 24 21 19 19 17 18 19 19 21 22 21 20 20 20 20 18 20 21 23 23 23 22 24 25 25 23 22 21 22 21 18 17 17 16 15
9 12 14 17 16 13 16 31 27 25 21 19 20 19 18 18 17 19 22 23 23 24 24 23 22 22 24 25 25 25 25 27 27 27 26 25 24 24 22 21 20 19 17
20 13 12 15 16 21 20 19 28 32 27 24 24 23 21 21 20 20 20 22 24 25 25 25 25 24 25 25 25 27 28 28 30 31 30 29 29 27 27 26 23 22 21
22 25 23 21 16 19 21 21 21 22 24 26 25 25 25 26 26 25 25 24 24 26 27 27 29 30 29 27 28 28 26 31 36 36 34 33 33 31 31 30 28 27 25
20 21 23 26 27 21 19 22 23 24 24 25 26 29 33 30 29 29 29 30 29 29 30 30 30 33 33 34 33 28 14 21 23 27 33 36 36 35 35 33 31 29 29
17 21 25 27 30 31 27 24 26 30 30 30 29 26 25 27 31 34 33 33 31 33 34 33 34 34 35 36 37 39 39 29 18 13 21 25 31 34 35 34 32 30 30
14 18 24 27 28 28 30 32 29 28 24 21 20 21 22 22 22 21 21 22 25 34 33 33 34 35 32 36 38 39 42 43 42 33 28 26 23 27 32 32 32 33 32
5 6 7 10 20 30 32 29 32 31 27 24 21 15 21 21 20 21 20 17 17 18 27 31 33 36 35 35 37 38 43 42 41 45 37 36 28 27 32 34 32 31 32

GFSSE_850_spd_078.txt.gz
Wind_Speed
19 23 24 23 22 21 20 19 17 14 13 12 10 10 9 8 9 10 10 11 12 13 13 11 9 8 6 6 6 5 6 7 9 11 10 10 11 11 13 13 11 8 4
25 24 26 24 23 22 21 19 16 14 13 10 10 8 8 8 8 9 9 11 13 15 14 13 11 9 8 8 9 11 11 13 15 16 14 12 12 12 11 9 6 4 5
24 26 27 25 23 22 21 19 17 15 12 10 9 9 7 6 7 10 7 11 12 15 17 14 13 12 12 14 16 16 15 16 16 17 16 14 14 14 13 12 9 8 9
22 27 28 26 24 23 21 19 16 14 13 11 8 7 6 6 6 8 10 12 9 11 14 13 14 13 15 17 17 15 14 14 15 16 15 14 13 11 12 12 11 8 8
24 27 28 27 25 23 20 18 17 15 13 10 10 9 9 9 8 7 11 14 11 10 10 11 12 14 15 16 16 13 12 14 15 15 14 13 18 14 14 12 14 14 13
23 27 29 28 26 23 21 20 17 16 15 14 14 13 10 9 6 7 11 16 13 9 8 6 9 12 14 16 15 13 15 13 10 10 11 12 11 7 6 3 3 4 7
26 28 28 26 25 24 21 19 19 17 15 15 13 12 10 11 9 9 12 16 14 11 8 5 7 11 13 14 13 10 12 11 10 7 7 5 1 2 2 2 2 1 2
26 29 27 25 24 23 21 20 19 17 15 14 13 11 11 11 10 10 13 17 14 12 9 7 9 10 12 12 11 10 9 8 7 4 2 2 1 2 3 2 2 2 1
22 27 28 25 23 22 20 19 17 15 14 13 15 14 12 11 11 12 14 16 14 11 10 8 8 9 10 11 10 9 7 5 4 3 1 1 1 3 3 4 3 3 2
19 20 25 26 24 22 21 19 15 14 12 10 12 13 13 12 11 11 14 14 13 11 10 7 7 7 8 10 10 7 6 5 4 2 1 1 3 4 3 4 4 3 2
20 18 20 25 23 21 19 16 15 13 10 10 9 9 11 12 12 10 12 13 13 12 9 7 6 6 7 10 10 9 7 6 4 3 3 4 6 6 5 5 5 4 3
20 19 20 24 24 21 22 21 19 16 12 11 9 7 7 8 9 10 8 10 11 11 11 10 9 7 8 10 10 10 9 8 6 5 6 8 8 8 6 6 6 5 4
13 16 22 24 25 25 24 22 20 13 10 10 10 10 8 9 10 10 9 9 10 9 11 12 10 8 9 10 11 11 11 11 9 8 7 10 9 10 8 8 7 6 5
20 17 16 21 25 23 19 18 15 12 12 13 12 11 11 12 11 10 9 9 9 8 9 11 10 10 10 11 12 13 13 13 12 11 10 11 11 12 11 10 8 7 7
22 21 19 20 20 20 19 16 13 10 11 11 12 12 11 12 13 10 8 9 9 11 10 11 11 12 13 13 13 12 14 15 14 14 13 15 14 14 14 13 10 9 8
24 25 23 22 22 21 18 16 11 11 12 13 11 12 12 9 10 11 8 8 9 9 9 10 11 11 12 14 14 14 14 16 16 17 17 18 18 16 16 15 14 12 10
25 26 25 23 24 24 22 18 15 13 15 14 12 11 12 12 10 10 9 10 11 9 9 10 12 13 14 15 16 14 16 17 19 20 22 22 21 19 17 17 17 15 13
19 29 27 25 25 24 23 21 19 16 16 15 14 12 14 14 13 13 13 14 12 12 11 12 12 15 16 17 17 16 19 21 22 24 25 25 24 22 20 18 18 18 17
12 19 24 32 29 28 26 26 25 21 19 18 17 18 17 16 16 16 17 16 15 15 16 15 15 17 20 20 20 20 22 24 25 26 27 26 26 25 22 21 20 20 20
14 15 15 20 27 30 28 26 26 25 24 22 22 21 19 19 19 19 19 20 19 20 21 21 21 21 22 23 23 24 25 26 27 29 30 29 28 28 26 23 23 22 22
17 15 16 17 19 21 24 33 34 31 29 26 24 23 22 21 21 21 20 21 23 24 24 24 25 25 25 23 24 27 29 30 31 33 33 33 33 31 30 28 26 26 25
21 21 19 19 18 19 21 23 23 33 33 30 28 26 25 24 24 23 23 23 23 24 25 26 28 29 29 27 28 29 29 31 35 36 36 36 36 34 34 32 31 31 28
25 24 22 20 20 21 21 22 22 22 25 29 33 30 28 27 27 27 27 28 28 27 27 27 28 30 32 31 32 30 13 19 23 24 24 29 35 36 36 35 35 34 32
22 25 26 25 24 23 23 23 25 27 28 27 27 26 27 27 29 31 31 30 30 31 33 33 33 34 33 36 36 35 38 38 21 20 24 18 19 30 33 36 37 35 32
16 19 22 25 27 29 29 29 28 26 28 29 28 28 27 25 24 25 25 26 27 29 32 35 36 36 35 36 37 34 35 38 41 41 35 33 29 24 27 33 37 38 40
18 19 21 26 29 32 33 31 29 28 28 27 28 30 30 29 25 20 21 21 21 22 21 21 25 26 30 30 32 32 31 32 33 37 41 46 45 40 38 35 37 39 37

GFSSE_850_spd_081.txt.gz
Wind_Speed
28 27 26 24 22 22 21 19 16 14 13 11 8 7 7 7 9 9 11 12 11 11 10 8 7 6 4 3 3 2 3 4 7 9 10 11 11 12 12 10 7 5 7
30 28 28 25 23 22 21 18 15 14 11 9 9 7 8 8 9 10 12 15 13 13 12 9 7 6 6 5 6 6 8 9 11 13 12 12 12 11 8 6 5 7 9
30 29 28 25 23 22 20 18 16 14 11 9 8 8 7 8 11 8 12 14 16 15 13 11 9 9 10 10 10 11 12 13 13 15 14 14 14 13 11 9 8 9 9
29 29 28 26 24 22 21 18 16 15 12 9 9 7 6 7 10 10 12 11 12 13 13 11 10 11 13 13 12 12 13 13 13 14 14 13 13 13 13 11 10 11 10
26 29 28 26 25 23 21 19 17 14 13 11 8 8 7 8 10 12 13 10 10 10 11 11 11 12 12 12 11 13 14 14 13 13 14 17 16 12 10 11 12 11 13
26 28 28 27 25 23 20 18 17 15 13 11 10 10 10 8 8 11 15 12 9 8 9 10 10 11 10 10 10 11 11 11 10 12 11 11 6 5 3 3 2 4 9
25 28 28 27 25 23 20 19 17 15 15 14 14 10 9 9 8 11 15 12 10 8 7 8 8 8 8 8 9 9 9 9 8 7 5 2 2 5 5 4 4 2 3
27 28 27 26 25 23 21 19 19 18 16 15 15 11 12 10 10 11 14 13 10 8 6 8 7 7 8 7 6 7 7 6 5 3 0 1 4 5 5 5 5 4 2
26 28 28 26 24 23 21 20 19 17 14 13 14 13 14 12 11 12 14 13 10 9 7 8 7 7 7 7 5 5 4 3 3 3 3 3 4 6 6 6 7 6 4
25 27 26 26 25 23 21 20 18 15 13 11 12 13 14 15 13 13 14 14 11 9 8 7 7 7 7 8 7 5 2 1 1 1 3 5 7 7 7 8 8 7 6
25 26 26 25 25 23 21 21 17 15 11 11 10 9 9 9 11 14 15 14 13 11 10 8 8 7 9 10 9 7 4 3 2 2 3 7 8 9 9 9 9 8 7
25 27 27 26 25 23 22 20 18 16 13 12 10 8 7 7 8 8 9 11 12 11 10 9 8 8 9 11 11 9 7 6 5 5 6 8 10 11 10 10 10 9 8
22 24 25 26 25 24 23 21 19 17 12 10 10 9 10 10 11 10 9 8 9 9 8 8 8 7 8 11 11 12 11 10 8 8 8 9 11 12 11 11 11 10 9
22 18 23 26 26 26 24 23 21 17 12 10 10 12 10 9 11 11 10 9 8 8 8 9 10 9 8 10 11 12 13 13 12 10 11 10 11 14 14 13 12 12 11
18 18 20 25 27 26 23 20 19 16 12 11 12 12 11 10 11 10 9 8 8 9 9 9 10 11 10 11 11 12 14 15 15 14 13 13 13 15 17 16 14 13 12
20 19 18 22 25 26 23 20 17 15 10 11 12 13 12 10 11 11 9 8 8 8 9 10 10 11 11 12 13 14 14 16 17 17 15 15 16 16 18 18 17 15 14
22 21 22 20 21 23 22 19 17 12 11 12 12 11 11 10 9 9 11 9 7 8 8 9 10 12 12 13 14 15 15 17 18 19 18 19 19 20 21 20 20 18 16
22 24 24 24 24 23 23 20 18 15 13 13 13 12 12 12 11 10 11 11 7 9 11 11 10 11 13 14 15 16 18 18 18 20 21 22 23 23 23 21 20 20 19
20 23 27 27 26 25 25 23 21 20 17 15 16 15 14 13 14 14 13 12 11 12 14 14 13 14 14 15 16 17 18 20 21 22 24 25 25 26 25 22 22 21 21
13 18 19 27 26 24 21 25 26 24 21 19 19 18 15 15 16 17 16 15 15 17 18 18 18 17 18 18 19 21 22 23 24 26 27 27 28 29 27 26 24 23 21
18 18 19 22 23 30 25 24 27 28 26 24 23 20 19 19 19 19 18 18 19 21 21 21 21 22 22 23 23 26 26 26 28 29 30 31 32 31 30 29 28 26 24
21 19 20 21 22 22 25 26 31 30 30 29 28 26 23 22 22 22 21 21 22 23 23 23 25 25 25 26 28 29 28 29 29 28 27 27 29 33 33 31 30 29 27
25 23 22 22 22 22 22 24 26 26 28 32 34 33 30 25 24 25 24 25 26 26 26 25 26 27 29 29 30 29 15 17 20 20 22 22 22 25 29 31 32 31 30
26 27 24 21 23 24 24 25 26 29 28 27 26 28 30 30 28 27 27 27 27 27 28 29 30 31 31 34 33 33 33 34 30 24 25 24 31 29 29 27 28 33 35
19 21 23 23 23 24 24 25 26 27 28 28 28 28 26 27 28 28 28 27 26 27 28 28 28 31 32 34 36 35 32 34 34 37 32 27 28 29 33 31 30 31 33
17 17 18 20 22 24 25 25 27 29 29 28 28 30 30 29 28 27 27 25 21 20 20 20 20 22 20 25 25 25 26 24 27 25 28 32 32 34 31 31 33 32 34

GFSSE_850_spd_084.txt.gz
Wind_Speed
31 31 28 25 24 22 20 17 14 13 11 9 7 6 6 7 8 10 11 11 10 9 8 6 5 4 3 3 2 3 5 6 9 12 11 12 13 11 9 7 7 10 11
32 32 28 25 24 23 21 18 15 13 11 8 8 7 8 9 11 13 15 13 13 11 9 8 6 5 4 4 4 6 8 10 12 13 13 13 12 10 8 8 9 11 12
31 32 29 25 24 23 21 18 15 13 10 8 7 7 8 10 11 14 15 16 15 12 10 8 7 7 7 8 9 11 12 13 14 15 15 15 15 13 11 11 11 11 10
30 32 29 25 25 23 21 18 15 13 10 8 8 7 7 10 10 12 12 14 14 13 11 10 10 10 11 11 12 13 14 14 13 14 14 15 17 15 14 14 15 13 10
30 30 28 26 25 23 21 17 15 13 10 8 7 5 6 8 9 12 10 11 11 11 12 11 12 12 12 13 13 13 13 13 13 15 18 14 14 11 12 9 10 13 14
30 28 27 26 24 22 20 18 16 14 12 8 8 8 10 10 10 13 9 10 9 9 11 11 11 12 12 11 12 11 11 11 12 11 12 8 6 5 5 5 3 8 10
28 27 25 24 23 22 19 18 16 14 11 11 10 10 10 10 10 13 12 10 9 8 9 10 10 10 10 11 11 10 9 9 8 7 5 3 5 7 8 7 7 5 5
25 27 25 24 23 21 19 18 17 15 15 14 13 11 9 10 11 13 12 10 10 8 8 9 8 7 7 8 8 8 8 7 6 5 4 4 7 8 8 9 9 7 5
26 27 25 25 24 21 19 18 16 16 13 11 10 9 12 13 13 14 14 11 10 9 8 7 6 5 5 4 5 5 5 5 4 6 6 7 9 10 10 11 11 9 7
26 27 27 26 24 22 20 19 17 15 10 8 9 8 10 14 15 15 15 12 10 9 8 7 5 5 5 4 3 2 2 2 3 4 5 8 10 11 11 11 12 10 9
26 28 27 26 24 22 20 19 16 13 9 8 8 8 9 7 8 11 16 13 12 10 9 7 6 6 7 7 5 3 1 0 2 3 5 9 10 12 11 11 12 11 9
29 29 28 27 24 23 21 20 17 14 12 9 10 9 9 9 9 10 11 12 11 9 7 6 6 4 4 6 7 6 5 3 3 5 5 7 10 11 13 13 13 12 11
27 28 28 27 25 24 22 20 18 15 12 10 10 9 10 10 10 10 10 10 10 9 8 8 7 6 6 8 9 8 9 7 6 7 7 8 10 11 13 14 14 14 12
25 24 27 26 25 25 22 21 18 16 13 9 10 9 8 9 9 9 9 7 7 6 7 7 8 8 7 8 10 11 10 10 10 9 9 10 11 12 13 15 15 14 14
23 22 23 26 27 25 24 22 19 17 12 9 9 10 10 9 8 9 9 8 8 8 8 7 8 8 8 9 10 11 11 12 12 12 11 11 12 13 15 16 17 16 15
21 17 18 23 26 25 25 21 16 15 12 11 11 11 11 10 8 10 9 8 8 8 8 9 9 9 9 10 11 12 12 12 13 14 14 13 13 14 15 17 18 18 16
21 17 16 18 24 25 24 20 17 14 13 11 10 10 11 11 9 9 10 9 6 7 7 8 8 9 9 10 9 12 13 13 14 15 15 15 15 15 16 17 19 19 18
19 19 18 17 20 23 23 21 18 16 14 11 11 12 10 10 10 10 10 9 7 7 8 8 8 9 9 10 10 10 12 15 16 16 16 16 17 17 18 18 18 19 19
20 19 19 20 20 20 20 21 19 18 17 14 13 14 13 11 11 12 11 9 9 10 10 10 11 12 12 11 12 13 14 16 16 18 18 18 18 19 20 20 19 20 20
19 22 22 24 23 21 21 22 22 22 21 19 17 16 15 15 13 14 13 12 12 14 14 14 14 15 17 16 16 18 18 18 20 20 21 21 22 23 23 23 22 21 21
17 17 18 22 24 24 25 24 26 28 25 24 22 19 17 17 17 16 15 15 15 17 16 16 17 18 20 20 21 23 23 22 23 23 24 24 23 23 24 24 24 23 22
21 19 19 20 21 24 25 25 22 22 25 26 24 22 22 21 20 18 18 17 17 18 19 19 20 21 22 22 23 25 26 26 24 22 19 15 16 18 20 21 23 23 24
26 24 22 21 21 20 21 21 24 23 25 27 28 28 27 25 23 22 21 20 22 22 23 23 23 24 25 25 25 25 13 15 20 24 23 26 25 20 15 16 17 19 22
26 26 25 24 23 22 22 23 24 25 27 27 24 25 27 28 27 26 24 23 23 23 24 24 25 26 27 28 28 29 30 32 28 21 23 24 24 24 26 20 20 23 26
25 28 27 25 25 25 26 26 26 27 26 27 27 26 25 24 25 27 28 28 28 26 25 25 26 26 25 26 26 25 29 30 27 26 26 24 23 21 21 25 24 25 22
19 20 22 23 23 23 24 25 26 26 26 27 27 28 28 28 28 27 26 26 26 25 23 21 21 20 20 19 19 20 20 20 20 20 23 25 24 25 23 20 22 22 21

GFSSE_850_spd_087.txt.gz
Wind_Speed
31 29 26 24 22 21 18 16 14 12 10 7 5 6 7 9 11 11 12 12 11 9 7 6 6 5 4 5 6 8 9 11 13 13 13 13 11 9 9 11 13 14 13
34 31 28 25 23 21 18 15 13 11 9 6 6 7 9 11 14 15 14 14 12 10 8 7 6 5 6 8 9 10 12 14 15 15 14 14 12 12 12 13 13 13 13
34 33 29 26 24 21 18 16 13 11 9 7 6 9 11 12 14 17 17 15 13 11 10 9 8 9 10 11 13 15 15 16 16 17 17 17 15 15 16 16 15 12 13
33 33 29 27 24 22 19 16 13 11 9 8 8 9 11 13 14 16 16 15 14 12 12 12 13 13 14 15 15 15 15 15 15 17 18 19 19 15 15 15 16 14 14
33 32 29 26 25 21 19 16 14 12 10 9 8 8 11 12 13 13 13 14 14 14 14 15 15 15 15 14 15 15 15 15 18 19 14 12 12 10 7 8 13 13 13
33 31 27 26 24 21 18 16 14 12 11 10 7 8 10 11 14 11 11 11 12 14 15 15 15 15 15 15 15 14 14 13 13 13 11 8 8 9 8 7 6 9 10
33 31 28 25 24 22 18 16 14 13 10 8 10 12 12 12 14 12 11 10 10 12 14 14 14 14 15 14 13 12 12 12 10 8 7 8 9 10 9 9 7 3 2
32 29 27 25 23 21 19 16 15 13 10 10 13 13 12 12 14 14 11 10 9 10 11 12 12 12 12 12 12 11 10 10 9 8 8 9 10 10 11 11 10 8 6
28 26 27 25 23 22 20 17 16 13 14 13 11 7 8 13 14 15 12 11 9 8 9 9 9 9 9 9 9 8 8 8 9 9 10 10 11 12 12 12 12 11 9
28 26 26 25 25 23 21 19 16 15 10 6 4 3 2 7 15 17 14 13 9 8 7 7 6 6 6 6 6 6 5 6 6 7 8 10 11 12 12 12 13 12 10
27 28 27 27 25 24 22 20 16 13 9 5 4 6 7 8 10 13 15 13 11 7 5 4 3 2 1 0 1 2 2 3 4 4 5 8 9 11 12 12 13 12 11
27 28 27 28 26 24 23 21 18 15 10 8 7 8 9 9 10 12 13 11 11 9 8 5 4 2 1 2 3 3 1 1 2 4 4 6 8 10 11 12 13 12 11
23 26 27 26 26 24 23 21 19 16 12 10 10 9 10 9 10 11 13 12 10 10 7 6 5 4 4 4 5 6 5 4 4 4 5 6 7 9 10 12 13 14 12
22 24 25 26 26 25 21 20 18 16 12 10 11 9 8 8 8 9 8 6 7 7 7 7 7 7 6 7 7 7 7 7 6 6 6 8 8 9 11 12 13 13 13
21 23 26 26 26 25 23 20 19 16 12 11 9 10 9 8 8 9 9 8 7 7 7 6 6 8 8 8 9 9 8 8 8 8 8 9 9 9 11 12 13 13 14
20 21 22 27 27 26 24 21 19 15 13 12 10 9 10 10 8 9 10 9 7 7 7 8 8 7 8 8 9 9 9 9 9 10 10 10 10 10 11 12 14 14 14
21 19 19 22 25 27 24 22 19 14 13 13 10 9 10 11 10 8 10 9 7 7 8 8 7 7 7 7 6 8 8 10 11 10 11 11 11 11 11 11 13 15 14
18 20 17 18 21 26 25 23 20 16 13 12 11 10 10 10 10 9 9 9 9 8 8 8 7 7 6 6 6 7 8 10 11 12 13 13 12 12 12 12 12 14 15
19 18 18 18 15 19 23 23 20 17 16 14 12 12 11 10 10 10 9 8 10 11 9 9 9 9 9 9 10 10 10 11 13 13 14 14 15 15 15 14 14 14 14
17 18 18 17 17 18 18 20 21 21 20 18 16 14 13 12 11 12 11 11 12 13 13 12 11 11 12 12 14 15 15 15 15 16 16 17 17 17 17 16 17 17 16
18 20 18 17 18 20 23 24 24 24 22 21 19 16 15 15 15 15 13 13 14 16 14 14 15 15 16 15 17 19 19 18 18 18 18 16 14 11 13 14 15 17 17
13 12 11 17 18 17 24 22 21 21 23 23 21 20 20 20 19 19 17 17 17 18 17 17 17 17 17 17 18 20 21 22 23 17 17 20 17 19 19 16 14 14 14
14 18 21 20 22 23 24 23 22 22 23 23 23 23 24 22 20 21 21 21 20 21 22 19 20 20 20 20 21 19 12 11 16 18 20 22 20 20 17 14 19 15 13
20 19 24 23 22 22 22 21 22 21 21 20 19 18 19 20 22 23 23 23 23 22 22 21 19 20 22 24 23 24 27 27 21 17 18 17 23 19 18 16 15 15 19
25 25 24 25 25 24 23 22 22 22 21 21 20 21 21 21 21 21 22 24 24 24 24 22 23 23 24 24 23 23 24 25 21 24 21 16 16 17 17 20 19 18 19
23 26 28 27 27 26 26 25 24 23 24 23 23 23 23 24 25 25 23 24 23 24 24 23 22 22 22 22 20 19 18 17 17 16 18 21 19 18 19 18 20 19 16

GFSSE_850_spd_090.txt.gz
Wind_Speed
22 26 26 24 21 19 17 14 12 10 8 6 6 6 8 9 10 13 15 15 15 13 8 7 7 6 7 8 9 11 13 14 14 15 14 12 11 13 15 15 16 12 13
27 27 27 24 22 20 17 14 11 9 8 6 7 9 11 12 14 14 12 11 7 5 5 5 7 8 10 11 13 15 16 16 16 16 15 15 16 17 17 16 14 14 13
28 27 27 24 22 20 17 14 11 9 7 7 8 10 12 14 16 16 15 13 11 10 9 9 10 12 13 15 16 17 17 18 19 19 20 13 16 17 18 17 15 15 14
28 27 27 25 22 19 17 14 11 9 7 7 9 11 13 15 17 17 16 14 13 13 13 13 14 15 15 16 16 16 16 17 19 20 16 16 12 12 14 16 16 14 13
26 26 25 26 23 20 17 13 12 9 8 9 10 12 13 13 14 15 15 15 15 16 16 16 15 15 15 16 16 16 16 18 17 15 13 12 9 8 9 12 12 13 14
25 24 25 25 23 20 16 14 12 10 9 10 9 12 13 12 11 13 14 15 16 16 17 16 15 15 16 15 15 15 15 14 15 11 11 10 11 12 10 7 6 7 9
24 22 26 25 23 21 17 16 13 10 10 7 9 11 14 16 10 11 12 14 15 16 16 16 15 15 14 13 13 13 12 11 10 9 10 10 11 12 11 9 6 2 2
24 21 24 24 23 21 18 16 14 12 8 9 12 15 15 16 14 10 10 12 13 14 14 15 14 13 13 13 12 12 11 10 9 9 10 10 11 11 11 11 10 7 4
21 20 21 24 23 21 19 17 16 12 12 12 12 10 9 14 16 11 10 10 11 12 12 12 12 11 10 10 10 10 9 9 9 9 9 8 10 11 12 12 11 10 9
20 19 20 20 22 22 20 18 16 13 14 12 3 4 5 10 15 15 11 9 8 8 8 7 7 6 6 6 6 6 7 7 6 7 7 8 10 11 11 11 12 11 10
20 19 19 19 20 18 18 19 16 14 12 9 7 6 8 9 12 13 10 9 8 6 5 5 5 5 4 3 3 4 4 4 3 3 3 6 8 10 11 12 12 12 11
20 20 20 19 19 19 18 20 17 17 13 10 8 7 9 10 12 14 12 10 8 7 5 3 3 2 2 2 2 1 1 1 1 3 1 5 6 7 9 10 11 11 10
21 25 25 24 19 19 19 18 16 14 12 11 10 10 10 10 12 13 14 12 10 9 5 5 4 3 3 2 3 3 3 2 2 4 4 5 6 7 8 9 11 11 11
23 24 25 26 21 19 17 17 15 14 12 11 12 11 11 11 11 11 11 10 8 9 9 7 5 6 5 4 4 5 5 5 4 5 5 6 7 7 8 9 10 10 10
21 25 25 26 25 20 18 16 15 14 14 11 11 12 11 11 11 11 11 10 9 9 8 8 8 7 7 7 6 6 6 6 5 6 6 7 8 7 8 9 10 10 10
21 24 24 26 25 24 20 18 15 15 14 13 12 11 12 11 11 11 12 11 11 10 10 9 9 8 8 8 8 7 7 7 7 7 7 8 8 8 8 9 10 11 11
17 16 23 24 26 25 22 19 17 15 15 15 12 11 11 13 13 11 12 12 11 10 10 10 9 9 8 7 7 6 7 7 8 8 9 9 10 9 8 9 9 11 12
16 18 20 20 20 25 24 21 18 17 17 15 15 12 12 13 13 13 11 12 12 11 10 9 9 8 7 6 6 6 7 9 9 10 11 10 10 11 11 10 10 11 12
16 15 20 18 17 17 24 24 21 18 17 16 16 15 13 12 13 13 11 11 13 13 12 10 10 9 8 8 8 8 10 11 11 12 11 12 12 13 13 14 12 13 14
17 16 18 19 18 16 19 23 23 22 21 18 18 16 14 14 13 13 12 12 13 13 13 13 11 11 11 11 12 13 14 14 15 14 12 12 12 12 13 11 13 14 14
19 20 19 19 18 16 16 21 22 24 24 23 21 18 16 16 15 15 14 14 15 16 15 15 15 15 15 14 14 15 15 15 16 16 14 12 11 15 13 15 15 15 15
20 19 19 18 18 17 18 17 17 20 21 24 24 21 20 17 17 17 18 17 18 18 18 18 18 18 18 18 14 11 10 10 12 12 13 13 14 16 15 18 16 14 14
13 16 17 19 17 13 10 12 16 21 22 24 27 25 23 21 21 21 22 21 21 21 21 21 22 21 20 21 19 15 9 9 12 13 16 18 18 16 16 19 15 17 17
14 12 16 19 18 16 23 13 22 23 24 23 23 21 19 20 21 21 21 21 22 23 23 23 23 21 21 22 23 23 22 22 19 14 14 16 19 18 20 16 15 16 15
15 20 14 14 22 24 22 16 27 27 29 28 26 27 22 20 19 19 20 21 22 22 22 23 23 22 23 23 24 23 22 23 23 22 20 17 16 15 14 16 17 18 15
16 19 23 21 19 21 25 26 26 25 25 25 25 23 21 20 21 21 21 22 21 22 23 23 24 25 24 24 24 23 22 20 18 16 19 18 15 17 17 18 18 19 17

GFSSE_850_spd_093.txt.gz
Wind_Speed
18 25 24 22 20 17 15 12 10 8 6 6 7 8 9 9 13 15 17 18 16 14 10 9 7 8 9 11 14 16 16 17 17 16 16 16 19 19 17 17 12 13 14
24 27 25 23 20 18 15 12 10 8 6 6 8 10 12 13 14 14 13 12 8 5 4 7 9 11 12 15 17 17 18 18 19 20 21 19 20 20 18 17 17 15 13
24 26 26 23 21 18 15 12 10 8 7 8 9 12 13 15 15 14 11 8 7 7 9 11 13 15 17 17 18 19 19 21 22 21 19 12 16 19 18 18 17 16 14
24 25 24 24 20 18 15 12 10 8 7 9 10 12 16 18 17 15 13 12 12 12 13 15 17 17 17 17 18 18 19 20 21 20 16 13 13 16 15 17 16 16 15
22 24 23 24 21 17 14 11 9 7 8 9 11 12 14 16 16 15 15 15 15 16 17 17 17 17 17 17 17 18 19 20 21 13 11 11 9 12 11 11 14 16 15
21 23 23 22 21 18 15 12 10 9 10 10 11 13 10 12 14 15 15 17 17 17 17 17 17 17 16 16 16 17 18 18 14 14 11 11 13 12 9 7 7 7 8
20 25 22 22 20 17 15 13 12 9 11 8 11 14 13 9 11 13 14 16 16 16 16 16 16 15 14 15 14 14 14 17 10 11 10 11 13 12 11 9 7 5 4
20 19 22 21 19 17 14 14 13 12 10 9 12 14 16 11 9 11 13 14 15 15 15 15 15 14 14 13 13 12 12 16 9 11 10 12 12 12 12 11 10 8 7
21 19 21 22 20 17 15 14 13 12 11 14 15 14 14 14 10 9 10 12 12 12 12 12 12 12 11 11 11 10 11 13 9 10 7 10 11 12 12 12 12 11 10
24 18 20 19 20 19 17 14 14 10 11 13 12 12 13 15 12 11 10 10 9 10 10 10 10 9 9 8 8 8 9 12 6 8 4 9 10 11 12 12 12 12 12
19 21 21 20 19 17 14 17 14 11 11 8 6 8 10 12 13 9 10 9 8 7 7 7 7 6 5 5 5 5 7 6 4 4 3 6 8 9 11 12 12 12 11
22 22 22 18 19 18 17 16 13 14 11 7 6 7 9 8 10 9 8 8 7 7 6 5 5 4 3 2 1 2 6 1 1 2 4 5 6 7 8 10 10 11 10
23 25 21 20 18 19 19 15 14 10 8 8 8 8 9 11 15 16 11 10 8 6 4 3 2 2 2 3 4 2 3 3 1 2 5 5 6 6 6 7 8 9 8
21 21 24 17 23 19 16 16 16 13 10 9 9 10 10 9 10 10 9 8 9 6 5 4 0 4 3 4 4 3 4 4 2 3 8 6 7 7 6 6 7 8 8
24 19 20 21 18 17 18 18 15 13 13 9 10 10 9 9 10 11 11 9 7 6 4 4 6 6 5 5 5 4 5 4 5 4 4 7 7 7 7 8 7 8 9
21 25 19 22 20 19 19 17 18 18 12 11 9 10 11 9 10 11 11 11 10 10 8 8 6 6 7 6 6 6 5 5 5 5 4 8 8 8 8 8 8 9 9
19 20 23 25 25 21 21 17 18 17 15 13 10 10 11 10 11 11 10 11 10 8 8 8 9 10 7 8 7 6 7 6 7 6 6 5 9 9 9 9 9 9 11
16 17 18 23 24 27 21 20 19 18 16 13 11 11 12 12 12 12 11 11 10 10 10 9 8 7 8 7 6 6 7 7 6 6 8 9 9 9 13 11 10 11 11
18 17 17 19 21 23 26 23 20 18 17 13 13 12 12 11 12 12 11 9 11 12 11 10 9 9 7 8 8 8 8 9 9 9 10 9 10 11 11 13 13 13 13
18 17 18 20 17 17 20 24 25 22 18 16 16 15 12 11 13 13 11 10 11 12 12 12 10 11 10 8 9 11 11 12 13 13 10 9 9 11 10 9 11 12 12
20 17 17 21 20 18 18 21 25 24 22 20 17 17 14 12 12 13 12 11 13 13 12 12 12 14 14 12 13 14 13 13 14 13 12 9 9 13 12 12 12 13 12
23 21 20 17 18 19 16 16 19 20 20 19 20 18 17 16 16 15 15 15 15 15 16 16 16 16 16 14 12 8 9 8 12 11 9 12 11 12 15 15 14 14 13
24 23 22 21 17 18 18 16 18 18 15 15 16 16 18 19 18 20 19 18 19 19 19 19 20 20 19 17 18 13 6 7 8 11 14 13 15 18 17 17 17 16 15
22 22 22 24 23 20 18 16 16 13 14 14 11 14 15 14 18 22 22 24 23 23 24 24 23 22 22 23 23 21 21 19 12 12 14 14 17 18 21 19 16 14 14
20 22 19 18 19 21 17 21 12 13 13 13 10 13 17 20 21 18 21 24 28 24 24 24 25 24 24 22 22 22 21 19 20 21 23 20 20 18 15 15 16 16 15
16 19 22 19 21 19 19 20 14 15 15 14 11 15 18 18 28 26 24 25 29 26 24 24 25 26 25 25 24 22 24 21 17 20 20 18 16 17 18 19 18 17 17

GFSSE_850_spd_096.txt.gz
Wind_Speed
18 25 23 21 20 18 16 13 11 9 9 10 10 11 13 17 20 22 21 20 18 13 10 10 11 12 15 17 19 20 21 20 22 22 22 22 20 20 19 18 16 17 17
22 27 25 22 20 18 16 13 11 10 10 11 12 12 14 17 17 17 16 14 11 8 8 11 13 16 19 21 21 22 23 23 23 21 20 22 22 21 20 19 18 16 16
25 29 26 23 21 18 16 13 11 10 11 12 13 14 16 15 14 12 10 7 7 10 13 15 17 20 21 22 23 25 26 24 20 20 18 17 21 20 19 18 16 16 15
28 29 27 24 21 18 15 13 12 11 12 13 15 17 18 17 15 13 12 12 13 15 17 19 20 21 22 22 25 26 25 23 19 15 11 13 17 16 17 19 20 16 16
25 28 27 24 21 18 15 14 12 12 13 14 16 16 17 17 16 15 15 16 18 19 19 20 20 20 21 22 24 23 22 20 16 10 9 13 12 12 12 12 14 14 14
23 23 26 23 21 18 15 14 13 13 14 16 16 15 15 16 16 17 18 19 19 19 20 19 20 20 20 21 20 18 20 20 10 10 14 14 13 12 9 8 7 7 8
25 20 24 22 19 17 15 13 13 13 13 16 16 13 13 15 16 17 19 19 19 19 19 19 18 18 18 18 17 18 19 15 8 13 14 13 15 14 13 12 11 9 8
28 23 24 22 18 17 15 14 13 13 11 14 16 15 12 14 14 16 17 17 18 18 18 17 16 16 16 15 14 15 16 14 13 12 13 13 13 13 13 13 12 11 10
18 20 25 23 19 15 15 14 13 11 10 13 16 15 12 13 14 14 15 15 15 16 16 15 15 15 14 14 13 14 13 12 13 7 11 11 12 13 13 13 13 12 11
22 20 24 23 20 18 17 13 14 11 10 13 16 16 14 11 12 12 13 13 12 13 13 13 12 12 11 11 11 12 13 13 10 6 8 9 10 11 12 12 12 11 11
21 19 21 21 21 18 17 16 14 12 11 13 12 12 13 12 9 10 11 11 11 10 10 9 8 8 9 8 8 8 10 10 2 4 6 7 8 9 10 10 10 10 10
24 25 22 19 20 17 16 16 14 12 12 8 7 9 12 10 9 8 9 12 11 9 8 7 7 6 6 7 5 5 7 6 1 4 5 6 6 7 7 8 9 9 10
25 26 24 21 21 20 16 15 14 12 11 7 5 13 12 6 9 12 8 10 8 10 8 5 4 4 4 4 1 2 5 5 1 7 6 7 7 6 6 7 8 9 9
27 24 25 22 23 19 16 15 14 13 8 9 8 12 14 13 14 13 9 7 7 5 5 7 5 3 1 3 3 3 1 2 3 7 6 7 7 8 7 7 8 8 9
22 25 24 23 20 19 19 18 15 14 15 12 11 14 12 8 9 8 6 4 2 1 0 3 6 8 5 2 3 4 6 6 5 6 7 6 7 8 9 9 8 8 9
28 26 26 19 24 20 19 19 18 16 16 10 12 14 13 11 10 11 11 6 2 4 3 4 8 8 7 5 5 6 5 4 5 5 7 7 7 8 9 9 10 10 10
29 26 31 23 19 19 20 19 21 19 14 14 13 12 15 15 16 17 16 17 16 17 14 12 10 10 8 7 8 7 7 5 7 6 5 7 8 9 8 9 9 10 12
25 28 26 25 27 22 19 19 19 20 17 16 12 12 12 14 16 16 17 16 14 14 13 13 11 9 8 7 6 4 8 8 7 7 6 9 9 10 10 10 9 11 11
24 25 27 27 28 29 21 20 20 19 20 18 16 13 11 13 13 14 15 15 14 14 14 12 10 9 7 8 9 9 10 9 8 8 9 10 10 11 10 10 11 11 11
21 18 18 20 27 26 30 24 21 22 21 18 17 15 15 12 13 13 12 11 12 15 14 12 11 10 11 11 9 11 10 11 11 12 12 10 8 12 13 11 11 9 10
24 22 20 20 20 23 23 31 28 27 24 24 21 22 18 16 14 14 14 12 12 13 12 10 11 13 12 11 13 14 13 12 11 11 10 9 6 12 16 12 13 11 12
24 25 22 21 22 21 20 20 25 28 27 25 25 23 22 19 16 13 13 14 14 14 13 12 14 14 14 14 13 10 9 12 9 9 7 9 13 16 16 15 14 13 13
22 26 24 22 23 22 19 19 17 20 24 25 25 22 20 18 16 17 16 15 16 17 17 15 17 19 17 15 16 14 6 6 4 7 13 14 15 16 17 15 15 14 16
23 23 24 21 19 18 21 19 15 13 13 16 16 16 15 14 11 15 17 16 16 16 18 20 22 23 21 20 19 21 20 19 10 7 12 15 13 17 17 19 18 14 12
28 27 25 27 25 22 19 20 15 13 7 9 11 11 10 9 7 8 9 10 13 14 15 18 22 24 27 23 22 22 22 20 22 24 17 16 15 16 16 13 14 15 15
23 26 29 29 26 24 20 18 16 17 14 14 12 14 13 11 9 9 11 15 14 16 17 18 27 32 28 25 24 23 24 23 22 19 19 19 18 18 18 17 15 17 17

GFSSE_850_spd_099.txt.gz
Wind_Speed
26 28 26 25 23 20 17 15 13 12 12 14 17 22 22 22 22 22 22 21 17 13 11 11 14 16 20 23 23 22 22 24 24 23 23 23 23 22 21 19 20 22 19
33 30 27 25 23 20 17 15 13 13 14 15 17 23 23 24 23 22 20 15 11 9 12 16 19 22 24 25 24 24 24 22 19 20 22 24 22 21 19 20 18 18 17
33 31 28 26 24 20 17 15 14 14 15 15 17 21 22 21 18 16 14 10 10 14 17 21 23 25 27 29 27 23 22 17 13 17 18 21 21 22 22 19 18 16 15
34 32 29 26 24 20 17 15 15 16 17 17 18 19 20 17 15 12 10 13 16 18 21 23 25 27 30 27 25 22 18 14 12 14 14 15 17 17 19 19 17 17 17
33 31 29 26 24 21 18 16 16 17 19 20 20 20 19 18 16 15 16 19 21 22 22 23 24 27 27 24 20 18 14 14 13 13 14 13 13 13 12 11 11 12 14
34 31 28 26 23 21 18 16 17 18 19 19 20 19 19 19 19 20 21 21 22 22 22 23 24 24 24 22 20 18 13 16 15 15 15 15 15 14 12 11 10 9 7
34 31 29 26 23 21 19 18 17 18 19 18 18 18 19 20 21 22 22 22 21 22 22 22 22 22 21 18 18 16 13 13 15 15 15 15 16 15 14 13 12 10 9
31 31 28 24 22 20 19 18 18 17 18 16 15 17 18 19 20 21 21 21 20 21 20 20 20 19 17 16 16 14 12 14 15 15 14 14 14 14 13 13 12 11 10
25 29 28 25 22 20 20 18 17 16 18 19 15 14 18 19 19 19 20 20 20 19 19 18 18 17 16 15 14 13 11 10 12 14 12 12 13 13 12 12 12 11 11
25 28 29 26 22 20 20 18 16 15 17 20 19 14 17 18 18 18 18 18 17 17 16 16 15 15 14 13 12 11 10 8 10 9 10 10 10 11 11 11 11 11 11
27 27 28 26 23 22 21 17 15 15 14 19 19 16 14 15 16 16 16 17 15 14 13 12 12 12 12 11 10 9 8 4 7 6 8 9 8 8 9 10 10 11 11
30 27 28 26 23 22 20 20 18 15 17 15 14 14 14 12 13 13 14 15 14 13 11 10 9 9 9 10 9 8 6 3 5 6 6 8 8 7 8 9 10 10 10
29 25 27 26 24 22 20 21 17 16 17 13 12 15 16 15 12 14 12 13 13 12 10 9 8 7 6 7 7 5 4 1 5 5 6 7 7 7 7 8 9 9 10
30 27 26 24 24 21 17 16 15 15 14 15 15 13 15 14 12 13 9 9 9 10 9 9 8 6 2 1 3 4 5 5 5 5 5 5 7 8 7 7 8 9 9
28 29 27 23 23 19 16 16 14 17 12 11 12 13 11 9 10 11 9 6 5 6 8 8 6 5 2 5 4 4 4 5 6 6 5 4 5 7 8 7 8 8 8
30 30 26 26 23 20 18 18 14 15 14 11 10 14 13 12 9 12 10 7 6 6 5 5 4 4 5 5 5 4 3 5 6 6 5 5 5 6 7 8 9 9 9
30 29 29 26 26 24 21 20 20 17 17 15 13 14 16 13 12 10 8 9 9 8 7 7 8 10 10 9 8 7 6 4 5 4 5 5 5 6 6 7 8 10 11
28 30 31 24 23 23 23 20 24 22 20 17 15 14 16 18 17 17 17 14 13 13 13 15 14 12 12 12 10 9 8 6 6 7 7 6 7 7 7 8 7 8 9
28 30 30 29 29 26 25 22 23 24 23 20 18 15 14 18 19 20 20 21 19 18 17 16 15 13 12 11 10 9 9 8 8 8 8 8 10 10 8 9 9 9 9
28 29 29 30 28 27 24 24 22 25 27 23 21 17 14 12 15 17 19 20 18 17 16 15 14 13 12 11 10 11 11 10 11 10 10 10 10 9 10 12 12 11 11
23 27 29 29 31 31 29 26 26 28 27 25 21 20 19 15 14 13 14 17 16 15 13 13 14 14 13 12 13 13 13 13 12 10 10 10 9 9 12 15 15 14 12
23 23 22 23 29 33 33 33 30 29 27 25 23 21 22 20 18 17 12 15 15 14 13 12 12 13 13 14 14 12 12 11 11 10 10 10 11 13 15 16 16 15 13
26 26 23 23 23 26 29 28 30 30 28 27 27 24 23 23 20 18 16 12 15 17 15 12 11 14 16 15 16 14 7 7 4 7 12 14 14 14 15 17 18 16 17
24 27 26 23 23 25 23 24 25 22 26 30 30 25 21 20 21 20 21 18 19 18 16 16 14 16 20 20 18 21 23 20 9 6 12 16 16 17 17 17 17 17 15
25 26 27 26 25 24 26 24 21 20 18 18 19 15 10 10 12 11 9 16 19 17 12 13 15 16 18 16 15 20 27 25 21 20 15 17 19 19 17 18 16 13 14
28 27 28 27 24 22 22 22 24 22 20 18 17 14 12 11 9 13 9 10 10 12 11 13 16 18 21 19 23 23 27 26 23 23 22 21 17 18 19 20 17 14 15

GFSSE_850_spd_102.txt.gz
Wind_Speed
30 29 26 26 23 19 17 15 13 14 16 21 20 20 21 20 20 22 21 18 15 11 11 14 16 21 21 21 20 21 22 23 23 24 24 23 21 20 20 20 20 20 19
36 31 28 26 23 19 16 15 14 15 18 25 23 24 24 24 25 23 20 14 11 12 15 18 23 24 23 23 22 19 19 20 22 22 22 22 19 19 20 17 17 18 17
35 32 29 27 23 20 17 15 15 16 18 25 25 25 25 24 23 20 14 10 13 17 21 25 27 27 25 22 17 16 17 17 17 17 20 23 23 18 18 17 15 14 14
35 33 30 27 24 21 18 16 17 17 18 23 25 25 23 21 18 15 11 14 18 22 25 27 29 27 24 21 15 16 17 17 14 13 14 16 17 16 16 17 15 16 15
36 32 30 28 24 21 19 18 18 18 19 20 22 22 21 18 15 13 17 20 23 25 26 28 28 25 21 16 16 17 17 15 14 13 13 13 13 12 10 10 10 11 11
35 33 30 28 24 21 20 19 20 21 21 21 20 20 19 17 18 20 22 23 24 25 26 26 24 22 17 15 18 17 16 15 15 15 15 15 14 13 11 10 10 9 7
36 33 29 27 24 22 20 20 22 22 21 20 19 20 20 21 22 24 24 25 24 24 24 24 22 20 17 14 16 16 16 15 15 14 14 15 15 13 12 12 11 10 10
38 34 30 26 23 23 21 20 21 21 20 19 19 21 21 23 24 24 23 23 24 24 24 23 21 19 16 13 13 14 15 15 14 14 14 13 13 13 12 12 12 12 12
36 34 32 27 25 24 22 21 21 21 18 18 18 20 22 23 23 24 23 23 23 22 22 21 19 17 15 13 10 13 12 12 13 13 12 12 12 12 12 12 12 12 12
35 34 32 30 27 26 24 21 21 22 20 17 17 19 21 22 22 22 22 21 21 20 20 18 17 15 13 12 8 7 10 10 10 10 9 9 10 11 11 11 12 12 11
34 34 33 30 28 27 25 23 20 21 21 19 18 17 20 22 21 20 20 20 19 18 17 16 15 13 12 11 10 5 6 7 8 8 8 9 9 9 10 10 11 11 11
38 37 34 31 29 28 26 23 19 22 23 21 19 18 18 19 19 19 19 18 17 16 14 13 12 11 11 10 8 5 3 4 6 6 6 7 8 8 8 9 10 10 10
41 37 35 32 30 29 26 22 21 20 22 19 18 18 18 18 18 18 18 18 16 14 13 11 10 10 9 8 8 6 3 1 2 3 4 5 6 7 7 7 8 9 9
42 38 34 31 30 26 24 23 20 23 19 19 18 20 20 19 17 16 15 14 13 12 12 11 10 9 8 8 7 6 5 3 2 2 3 3 4 5 6 6 7 7 8
38 36 34 31 29 26 22 22 19 22 19 18 19 19 17 17 15 16 12 11 10 10 10 10 10 8 6 7 6 5 5 5 6 4 3 2 3 4 5 5 6 6 7
35 35 33 31 28 26 23 22 19 21 21 17 17 16 16 14 12 13 12 11 10 10 10 10 7 7 5 5 6 6 6 8 8 6 4 3 3 3 5 6 7 7 7
34 36 34 30 28 25 22 21 18 21 21 18 12 13 15 14 11 13 12 12 9 9 9 10 9 7 7 8 8 8 8 7 8 6 5 5 4 4 4 5 7 7 9
34 36 33 29 29 26 22 22 20 20 20 17 13 12 13 13 14 14 14 12 10 10 10 10 9 9 10 11 10 10 10 9 8 8 8 7 6 6 6 6 6 7 9
34 34 31 31 30 29 26 25 22 23 21 18 16 14 15 17 17 15 14 13 13 13 13 13 13 14 14 14 13 12 11 10 9 10 10 10 9 9 8 7 6 8 10
33 33 32 32 31 31 30 30 24 26 23 21 18 17 16 17 19 18 17 17 17 17 17 18 17 17 15 13 12 12 12 12 12 12 12 12 11 11 11 10 10 10 11
32 31 32 30 30 28 28 30 27 29 25 21 20 18 15 15 13 15 17 20 22 22 19 17 16 15 15 13 13 14 14 14 15 14 14 12 13 13 13 13 13 13 13
31 31 32 30 28 28 29 32 30 27 27 25 22 21 20 19 17 15 14 15 19 18 15 14 14 14 14 14 14 13 11 11 12 14 15 14 14 16 16 17 16 15 15
23 29 31 29 31 32 32 29 26 26 26 29 29 28 26 23 21 21 18 13 15 15 10 13 14 14 14 14 15 13 6 3 6 9 13 17 16 17 19 17 16 16 15
20 23 25 26 27 28 31 28 26 28 30 29 29 29 27 24 24 23 23 21 20 20 21 22 17 19 19 17 15 17 17 19 11 8 12 15 17 18 16 17 17 17 17
22 22 25 25 24 25 26 28 26 25 26 27 32 30 27 24 22 23 24 24 21 22 21 20 21 20 17 16 14 14 12 19 17 16 22 19 19 18 18 21 19 20 15
25 23 24 25 26 26 25 25 25 25 25 23 26 31 32 25 17 17 19 16 17 13 12 11 12 13 15 14 16 17 18 22 22 20 27 25 24 22 23 22 23 21 17

GFSSE_850_spd_105.txt.gz
Wind_Speed
31 29 26 25 22 18 16 16 15 15 16 16 20 21 20 19 17 18 16 14 12 10 12 20 20 19 19 18 19 21 22 23 23 22 22 21 20 20 19 19 18 18 15
36 31 28 26 22 18 16 16 17 20 22 19 19 20 19 20 20 19 17 12 9 12 14 21 20 21 19 19 18 20 21 21 21 21 21 20 20 18 16 16 16 16 16
35 32 30 26 22 18 16 16 19 24 24 22 22 23 24 24 23 19 13 10 13 16 21 24 23 21 18 17 16 17 18 18 19 19 21 20 19 19 17 16 16 15 13
36 33 31 26 22 19 17 17 20 25 26 25 24 24 24 23 20 14 11 14 18 22 24 25 23 19 16 16 18 17 16 15 14 13 14 17 16 15 15 16 14 12 10
36 34 31 27 22 19 18 18 20 24 28 28 25 23 21 19 15 12 15 19 22 24 25 25 21 18 17 18 18 18 16 15 13 12 12 12 13 12 11 10 10 10 10
37 34 31 27 23 20 19 19 20 23 27 27 24 21 18 15 12 17 21 23 24 25 25 22 19 18 18 18 17 18 17 16 14 14 13 14 14 14 13 13 13 12 13
36 33 31 26 24 22 20 20 22 22 24 24 23 20 17 16 19 23 24 24 24 24 23 20 17 18 17 17 17 17 16 15 14 14 14 14 14 14 14 14 14 14 13
36 34 31 26 24 22 22 22 23 23 22 23 22 21 21 23 24 24 25 24 24 23 21 19 16 15 16 15 15 16 15 14 13 13 14 13 14 14 14 14 14 14 14
34 33 32 27 25 23 23 23 22 22 21 21 22 23 24 25 25 24 24 24 23 22 20 18 16 13 13 13 13 12 12 12 12 12 12 12 12 13 13 14 14 14 13
33 33 31 27 27 25 24 24 23 21 20 21 22 24 25 25 25 24 24 23 22 21 19 17 15 12 9 10 10 10 10 10 10 11 10 11 11 11 12 13 13 13 13
34 34 31 30 29 27 26 25 24 21 20 21 22 23 24 25 24 23 22 22 21 19 18 15 13 12 9 6 7 8 7 7 8 9 9 9 9 10 11 11 12 12 12
36 34 31 30 31 29 28 26 26 24 22 22 22 23 24 23 23 22 21 20 19 18 16 14 12 11 10 6 3 4 4 5 6 7 7 8 8 9 9 10 11 11 11
33 34 35 33 31 31 30 28 27 26 23 22 22 22 22 23 22 22 21 19 18 16 14 13 12 10 9 7 5 2 1 2 3 4 5 6 7 7 8 8 9 9 10
40 38 36 33 33 31 29 26 23 27 26 25 23 22 22 22 22 20 19 17 15 14 13 11 11 10 9 7 6 5 3 1 1 2 3 4 5 6 6 6 7 7 8
49 43 38 35 34 31 28 25 24 26 25 24 24 22 21 20 19 18 16 14 13 12 11 10 10 9 8 8 7 6 5 4 3 3 3 3 3 4 5 6 6 6 7
37 43 41 38 33 31 28 25 24 24 22 23 22 22 20 18 16 16 14 13 12 11 11 10 9 9 7 7 7 6 6 7 7 6 5 4 4 4 5 6 6 6 8
45 45 43 39 34 32 27 25 23 25 22 22 21 20 18 17 15 14 14 11 9 10 10 12 10 9 8 7 7 8 8 8 6 6 6 6 5 4 5 6 7 7 9
42 44 42 37 34 31 28 26 24 25 23 20 19 17 15 15 14 12 14 12 10 11 11 10 10 9 9 9 8 9 10 10 10 8 8 8 7 6 5 6 6 7 9
42 44 42 40 38 34 30 27 24 24 23 21 17 15 13 13 13 12 12 12 12 13 12 11 11 11 11 11 12 13 13 12 11 11 10 10 9 9 8 6 6 7 9
37 38 43 40 37 32 30 27 24 25 24 24 20 15 13 12 13 14 13 13 14 14 14 13 12 13 13 15 14 13 13 13 13 13 12 12 12 11 9 9 9 9 11
33 37 38 39 38 36 34 33 29 29 25 24 19 15 14 12 11 14 14 14 15 16 16 15 14 14 15 14 14 14 14 14 14 15 15 15 15 14 11 12 11 13 12
30 35 36 35 33 32 31 31 30 26 26 21 20 18 17 12 11 10 11 13 16 18 20 19 18 14 10 14 15 13 11 8 9 12 16 17 17 16 16 15 17 15 14
37 34 33 30 28 29 30 33 29 25 27 20 22 23 23 18 17 17 18 18 16 17 18 19 17 17 10 14 16 14 6 4 5 9 8 11 16 17 16 18 17 16 14
28 29 28 29 28 29 29 30 26 25 26 23 31 26 27 23 21 21 23 22 22 17 17 18 20 22 19 19 19 21 21 20 11 8 10 12 14 14 16 17 15 15 17
19 23 27 30 29 28 26 25 22 23 22 25 27 29 29 26 26 26 25 27 24 21 20 21 24 31 21 22 22 17 16 15 15 15 16 15 18 17 19 22 17 17 15
20 19 20 20 23 24 23 21 21 20 21 23 25 27 29 26 25 23 24 25 24 26 24 29 23 28 27 22 14 14 16 16 17 18 18 20 27 21 24 25 21 19 20

GFSSE_850_spd_108.txt.gz
Wind_Speed
35 31 28 26 23 21 19 17 16 16 16 19 20 20 19 16 15 17 14 15 12 15 21 17 20 17 20 20 22 23 23 21 21 23 21 20 20 20 20 19 18 17 16
38 33 29 26 23 20 17 17 16 15 18 21 22 21 20 18 18 16 14 13 11 19 20 22 20 18 18 21 21 22 21 22 22 23 22 20 18 18 17 17 16 15 17
39 34 31 26 23 20 18 18 19 20 18 22 23 21 21 20 20 17 13 11 13 20 22 20 19 18 17 18 19 20 21 20 19 19 19 21 19 19 18 17 15 12 11
39 35 31 28 23 20 19 20 23 23 22 23 23 24 24 22 20 14 11 13 17 22 22 21 19 18 17 17 18 18 17 16 15 15 16 17 15 16 14 13 10 9 10
38 35 31 27 23 21 20 23 26 24 25 25 26 26 23 22 16 12 14 18 22 23 23 20 20 19 18 18 18 18 17 16 14 13 13 16 16 15 13 10 11 13 15
38 35 31 27 24 21 21 24 29 26 26 26 24 22 22 18 14 15 19 22 24 24 21 21 20 20 19 19 19 18 18 17 16 15 16 16 17 17 16 15 16 15 16
39 36 31 27 24 22 22 24 29 29 29 25 23 22 19 15 16 20 23 24 25 23 21 20 20 19 18 18 18 17 16 16 15 15 16 16 17 16 16 16 16 16 16
40 36 31 26 24 21 21 23 27 30 29 25 23 20 17 17 22 24 25 25 24 22 20 20 19 18 17 17 16 16 15 14 14 15 15 15 16 16 16 15 15 15 15
38 36 30 26 24 22 22 23 24 27 28 25 22 19 20 24 25 26 26 25 23 21 19 18 17 16 15 14 13 14 13 13 12 14 14 14 15 15 15 15 15 15 15
36 34 30 26 25 24 24 24 24 24 24 24 22 24 26 27 27 26 26 25 23 21 18 15 15 14 13 12 11 11 11 11 11 12 13 13 14 14 14 14 15 14 14
35 33 29 27 26 26 26 24 23 22 23 24 25 27 28 26 26 26 25 23 22 20 17 13 11 11 10 10 9 8 9 9 10 11 11 12 12 12 12 13 13 13 13
39 35 30 28 27 25 27 25 23 23 24 26 27 28 28 27 26 25 23 22 20 19 16 14 11 9 8 6 6 6 6 7 8 9 10 10 10 10 10 11 11 12 12
38 35 30 27 27 27 27 28 24 24 24 25 27 28 28 27 26 25 24 22 21 18 16 13 11 8 6 4 3 4 3 4 5 6 7 8 8 8 8 9 9 10 10
37 34 32 29 28 29 28 29 27 26 25 26 28 28 28 28 27 25 23 21 19 16 14 12 10 8 7 5 3 1 0 1 2 3 4 4 5 6 6 7 7 8 9
42 29 32 32 31 30 28 28 28 26 26 26 27 27 26 26 24 23 21 18 16 14 12 11 10 9 7 6 6 5 3 2 1 1 1 2 2 3 5 5 6 6 7
43 44 35 34 34 31 29 28 27 27 27 26 25 25 23 21 21 20 18 16 14 12 11 10 10 9 8 7 7 7 6 5 5 4 3 3 3 2 3 4 4 5 7
41 36 39 40 35 32 30 27 25 27 28 28 25 23 22 21 19 17 16 14 12 12 12 11 11 9 8 7 6 6 7 7 5 5 5 5 5 4 4 5 4 5 6
47 45 40 42 37 35 31 29 26 27 26 26 25 24 22 21 18 17 16 13 12 11 10 10 10 8 7 7 7 7 7 8 8 8 7 7 6 6 5 5 5 5 7
51 47 48 41 40 37 33 28 26 26 23 23 23 23 21 20 17 16 15 15 13 11 10 9 9 9 8 9 9 10 10 11 10 10 9 9 9 9 7 7 6 6 7
45 47 42 43 38 37 35 32 28 26 26 23 23 21 19 18 16 15 14 15 14 13 12 12 11 10 10 10 11 11 11 10 10 11 11 12 11 10 10 7 7 7 9
38 40 44 45 43 42 39 38 34 31 30 27 24 18 17 15 15 14 13 13 14 14 12 11 11 11 10 11 13 12 10 12 11 13 14 14 14 14 13 11 12 12 12
33 35 34 48 47 45 39 36 33 31 29 25 22 20 17 15 13 12 11 12 13 13 13 13 12 12 11 11 13 12 8 7 9 10 11 14 15 15 16 17 16 14 14
30 31 36 36 43 42 41 39 34 29 28 26 26 25 22 16 11 10 11 11 12 13 14 12 13 12 10 12 14 11 7 5 4 9 13 10 8 9 10 14 15 17 16
35 30 21 29 43 41 38 32 25 22 25 24 19 17 15 18 17 16 18 18 16 20 17 14 14 11 12 25 21 15 19 20 20 14 17 11 10 11 11 12 15 15 13
33 27 24 31 32 29 30 31 32 35 30 24 26 23 21 21 19 23 24 24 22 19 16 10 13 18 17 11 16 23 25 23 22 17 12 14 13 12 13 16 14 18 18
22 24 29 21 29 24 23 29 34 34 30 31 26 26 25 25 23 25 18 17 18 14 15 14 20 22 20 21 19 16 15 16 17 16 18 19 18 18 19 15 18 23 23

GFSSE_850_spd_111.txt.gz
Wind_Speed
35 33 29 26 24 23 21 20 20 19 20 20 21 20 20 17 18 18 15 16 18 19 20 17 20 22 22 25 23 21 21 23 23 22 20 20 20 20 19 18 18 17 16
41 35 32 28 26 23 20 19 19 19 20 20 20 21 20 17 19 17 17 15 22 21 23 19 21 22 23 24 21 21 22 23 22 22 20 19 18 17 18 17 16 14 13
41 38 33 30 26 23 20 19 18 19 21 22 22 22 20 19 18 17 15 16 21 26 22 21 19 21 22 22 22 22 20 19 20 20 21 22 20 18 14 12 10 11 12
42 39 34 31 27 23 21 20 20 21 23 24 24 23 22 21 19 16 14 20 22 23 23 21 19 20 20 20 19 19 18 17 18 17 18 17 15 12 13 11 12 14 15
41 37 34 31 26 24 23 24 24 24 26 26 25 25 23 22 18 14 17 23 24 24 22 21 21 21 20 20 19 18 17 16 16 16 18 17 16 15 14 13 14 16 17
40 37 34 30 26 24 25 27 26 27 28 28 27 25 24 22 16 16 21 25 24 24 23 22 22 21 20 20 20 19 18 17 16 17 18 18 18 16 15 16 17 17 17
41 37 33 30 27 26 27 29 28 27 28 29 27 24 23 18 16 21 25 26 25 24 23 23 22 21 20 19 19 19 17 16 16 17 17 18 17 16 16 16 16 16 16
40 36 34 30 28 27 29 31 30 29 30 27 24 24 20 17 21 26 27 26 24 24 23 23 22 20 19 18 18 17 16 15 16 16 17 17 16 15 15 16 16 15 15
39 36 33 31 28 27 30 32 33 31 28 25 25 23 19 21 25 28 28 26 24 23 23 22 20 19 18 17 16 15 15 14 14 15 15 16 15 15 15 14 14 15 14
40 38 34 32 30 28 29 33 34 34 30 27 24 21 21 26 28 29 28 26 23 22 21 20 18 17 16 15 14 13 13 13 13 14 14 14 13 14 13 14 15 14 14
41 39 34 32 31 29 29 30 33 32 31 25 23 23 27 29 30 30 28 26 24 21 19 18 16 15 13 12 11 11 12 12 12 12 12 12 12 12 12 13 13 13 13
43 39 35 33 31 30 30 30 31 32 30 27 27 30 31 31 30 30 28 26 23 19 17 16 14 13 12 10 9 9 9 10 10 10 10 10 10 10 10 10 11 12 12
44 39 34 33 31 32 31 31 30 30 29 28 30 32 31 31 30 29 27 25 23 19 15 14 12 11 9 8 8 7 6 7 7 7 7 7 7 7 8 8 9 10 10
42 39 34 31 31 32 30 30 29 30 30 31 32 32 31 32 30 29 27 25 22 19 15 11 10 9 8 6 5 5 4 4 4 4 4 4 5 5 5 6 7 7 8
40 38 36 33 31 32 32 30 30 29 31 32 32 32 31 30 29 26 24 22 20 17 15 12 10 8 6 5 4 3 3 3 3 3 2 1 2 2 3 4 4 5 7
33 40 38 34 32 31 33 30 29 29 29 31 32 31 29 27 26 24 23 21 18 16 14 12 11 10 7 6 5 5 4 4 4 4 3 2 1 1 2 3 3 3 5
51 40 41 36 32 31 30 29 28 28 28 29 29 28 27 26 24 23 21 19 17 15 14 13 11 10 8 6 5 5 5 5 5 4 5 5 4 3 2 2 2 3 4
55 53 47 39 31 33 32 29 29 28 28 27 27 27 26 24 23 21 20 18 16 15 14 12 11 10 7 5 5 6 6 6 7 7 6 6 6 5 4 3 3 2 3
53 51 44 34 31 34 33 30 27 26 28 28 26 26 25 24 23 21 19 17 16 14 12 11 10 9 6 5 5 6 8 9 9 9 10 9 9 9 8 7 5 5 4
46 48 49 40 37 37 36 32 27 25 27 27 27 26 26 24 23 20 19 19 17 14 12 11 9 7 6 6 6 7 8 8 9 10 11 12 11 10 10 9 6 8 8
51 42 41 42 44 42 39 36 34 32 30 26 26 25 26 24 22 20 17 18 17 14 11 10 9 8 7 6 7 7 7 10 12 13 14 14 14 14 13 12 14 15 14
46 40 40 38 40 41 38 36 34 31 30 26 25 25 23 21 19 17 16 15 14 13 12 11 10 9 7 5 6 8 5 6 9 11 12 13 16 16 15 14 16 17 14
29 33 35 34 34 37 38 38 36 31 29 30 28 24 23 22 21 18 15 15 14 14 12 12 12 10 8 6 10 11 6 6 9 9 13 15 16 13 13 10 12 14 14
40 26 33 35 34 35 39 40 38 36 34 33 30 27 24 22 19 17 17 16 15 12 12 13 14 11 10 15 18 16 19 20 14 10 17 17 15 9 10 14 12 11 11
38 37 33 23 27 44 24 40 38 32 31 30 27 20 22 17 14 16 17 16 16 15 7 7 11 17 17 14 13 12 15 18 19 20 9 9 12 14 12 12 11 12 13
29 29 23 22 21 38 52 35 34 28 27 27 28 23 18 21 21 21 22 20 15 16 13 13 15 14 14 19 18 15 8 10 11 10 12 13 16 18 16 16 15 14 17

GFSSE_850_spd_114.txt.gz
Wind_Speed
25 28 29 28 27 27 26 25 22 21 19 18 18 19 20 20 20 18 17 17 20 17 18 21 18 27 24 21 21 23 22 22 21 20 20 20 19 18 17 15 15 15 13
30 31 30 29 28 27 26 25 23 22 21 21 20 21 20 19 19 17 17 18 20 17 19 21 25 24 20 20 21 22 21 21 20 20 18 18 17 16 14 11 13 13 13
32 32 32 30 28 27 26 24 23 23 23 22 21 22 20 20 19 18 19 18 24 18 20 22 23 22 21 21 21 21 21 20 21 22 19 17 15 11 10 11 12 14 14
30 31 31 31 29 27 25 23 23 23 24 24 23 22 21 20 20 18 18 21 23 22 19 20 22 22 21 21 20 20 20 18 17 19 15 13 11 11 12 15 14 15 15
30 30 31 31 29 25 23 23 23 24 25 26 25 24 22 21 20 18 20 25 22 22 20 20 21 20 20 19 19 18 18 17 16 16 15 14 13 14 14 15 16 16 15
30 28 33 32 28 25 23 23 24 26 27 27 27 26 23 22 18 21 23 25 24 22 21 21 21 20 19 19 18 18 17 17 17 17 16 16 15 14 15 15 15 15 15
31 30 31 32 28 26 25 26 27 28 30 30 28 27 23 21 18 23 24 25 24 23 22 22 21 20 20 19 19 18 17 16 16 16 15 15 15 15 15 15 15 15 15
32 31 31 31 28 28 27 28 29 31 31 30 29 25 24 19 21 27 25 26 25 24 23 22 20 19 19 18 18 17 16 16 16 16 15 15 14 14 14 15 14 14 14
31 31 33 32 29 29 28 29 30 30 30 30 27 26 21 19 26 28 27 26 25 25 23 22 20 19 18 17 16 15 15 14 15 15 13 13 13 13 13 14 14 14 13
37 32 33 29 32 32 30 30 31 31 31 27 25 25 20 23 29 29 27 26 24 24 23 21 20 18 16 15 14 14 13 13 13 13 12 12 13 12 12 13 13 13 13
39 37 33 29 28 30 32 32 33 33 31 26 26 23 22 28 31 28 25 25 24 23 21 19 18 16 14 13 13 12 12 11 10 10 10 11 11 11 11 11 12 11 11
42 39 34 31 30 29 30 35 34 33 29 27 26 23 25 26 25 22 26 24 25 22 19 18 16 15 13 11 11 10 9 9 8 9 8 9 9 9 9 9 9 10 10
47 43 34 30 28 29 28 35 35 33 28 26 23 25 23 24 26 25 27 23 23 21 19 16 15 13 11 9 9 7 7 6 6 6 6 6 7 6 6 6 7 8 9
39 43 37 32 29 27 28 29 29 32 29 23 24 26 28 28 26 24 27 24 22 18 17 16 13 12 11 9 7 6 5 5 5 4 3 4 4 4 4 4 5 6 7
47 48 38 35 30 28 28 27 26 26 25 24 27 27 31 32 27 25 24 21 20 19 18 15 13 11 9 8 7 5 4 4 4 3 3 2 2 2 2 2 2 3 5
42 43 39 35 30 28 29 28 26 25 24 24 26 26 31 27 25 24 24 22 21 19 17 14 12 10 9 6 5 4 4 4 5 5 5 5 4 3 2 1 1 2 3
39 48 39 36 34 30 35 28 28 29 28 26 27 26 24 25 27 27 26 24 22 20 16 14 12 10 7 6 4 4 4 5 5 6 7 7 6 5 4 3 4 3 2
39 46 38 40 39 33 34 33 30 30 29 28 27 27 28 27 28 27 25 24 21 18 16 14 12 10 7 5 5 5 5 6 6 8 8 8 8 8 7 6 5 4 3
43 44 47 44 41 36 34 32 29 28 27 27 27 27 29 28 27 25 23 22 20 18 16 13 12 10 8 6 6 6 7 8 9 10 10 11 12 11 10 10 9 7 7
44 59 55 47 45 39 37 35 32 28 26 25 27 27 28 27 27 25 22 21 19 17 14 13 12 10 8 6 6 7 8 8 9 10 12 13 13 12 12 12 11 11 12
50 54 49 52 45 40 40 37 34 32 29 25 22 24 27 26 26 25 21 20 17 14 13 12 11 9 8 6 6 6 7 9 11 12 13 15 14 14 15 14 15 17 18
52 51 48 42 45 40 40 35 33 33 28 28 29 29 28 28 26 23 20 18 17 16 13 11 10 9 9 7 7 7 4 5 8 8 13 14 17 17 17 17 16 18 20
38 43 44 43 39 43 43 36 35 32 30 31 32 30 30 27 24 22 19 17 16 16 15 15 13 12 10 12 13 6 4 4 5 10 11 10 15 16 18 18 16 14 16
36 47 38 39 34 37 34 34 36 37 35 35 33 30 27 26 24 22 20 19 19 19 17 16 14 12 14 16 13 13 10 12 5 8 8 12 17 15 12 11 14 16 14
38 28 27 27 27 22 29 35 36 36 35 33 33 30 28 28 25 24 23 22 21 19 16 11 14 13 18 20 16 15 10 11 13 11 15 7 9 12 9 10 10 11 12
36 35 22 20 28 22 34 34 35 37 37 33 32 31 28 25 25 21 22 20 20 17 17 14 21 21 17 18 18 16 15 12 9 7 10 13 14 13 11 9 12 12 15

GFSSE_850_spd_117.txt.gz
Wind_Speed
18 24 29 30 29 26 23 23 22 21 18 16 18 19 18 17 19 17 19 19 17 16 16 21 24 22 21 22 21 21 21 22 21 20 20 19 17 15 14 13 14 14 12
23 26 30 30 29 28 25 23 23 21 19 17 18 19 19 19 18 16 17 18 16 19 18 23 20 18 18 21 20 20 20 21 21 19 18 16 14 12 11 13 14 14 14
24 27 31 30 29 29 26 24 22 22 20 19 19 20 19 19 17 16 18 17 15 19 24 20 18 19 18 20 20 20 21 22 23 19 15 14 11 12 13 15 15 15 16
22 26 32 31 29 28 27 25 23 22 21 20 20 21 19 18 16 18 17 18 16 20 22 21 19 19 20 20 20 21 20 22 24 17 11 12 13 14 15 15 16 16 16
23 24 27 32 30 28 27 25 24 23 23 22 22 21 20 19 19 18 21 20 20 18 20 21 20 19 19 19 19 19 18 16 18 15 13 11 14 15 15 15 15 15 15
25 24 29 31 30 28 26 24 24 24 24 24 24 23 22 21 19 20 25 22 20 18 19 19 18 18 18 17 18 18 18 20 15 14 14 14 15 14 14 14 15 15 14
24 28 29 30 30 27 24 24 24 25 26 26 26 25 22 22 20 21 24 22 21 18 19 19 18 18 18 18 18 17 17 20 13 13 13 14 14 14 15 15 15 14 15
24 31 30 29 29 27 25 24 25 26 28 28 27 26 22 22 22 23 24 22 21 20 20 19 19 18 18 18 17 16 16 18 13 13 13 14 14 14 14 15 15 14 14
25 29 28 30 28 26 25 25 28 29 30 28 27 25 23 21 24 25 25 23 22 21 20 20 19 17 17 16 16 15 13 17 13 12 11 13 14 14 14 14 14 13 13
27 30 30 29 27 27 26 28 30 30 29 29 27 24 24 22 26 26 26 23 22 21 20 19 18 17 15 15 15 15 14 16 12 10 11 12 13 13 12 13 13 13 13
31 32 33 30 27 25 28 31 31 31 30 29 26 25 21 26 28 25 24 24 23 21 20 19 17 16 14 13 13 13 14 9 9 7 10 11 11 10 11 11 11 12 11
38 30 32 34 29 28 27 33 33 34 33 32 26 25 21 26 23 24 23 23 22 21 19 18 15 14 11 10 11 11 9 8 8 5 8 8 8 8 8 9 10 10 10
41 41 42 37 32 31 28 35 35 36 36 31 26 24 21 26 24 25 22 25 22 20 18 17 15 12 8 5 5 5 7 6 6 4 6 6 6 6 6 7 7 8 9
37 38 46 43 38 35 30 36 37 38 34 31 28 23 24 26 26 24 25 24 23 19 17 15 11 8 9 7 5 5 5 5 5 3 3 3 3 4 4 4 4 6 8
42 38 36 33 41 35 32 35 37 37 34 25 26 26 26 26 25 26 28 23 18 14 14 12 10 9 8 7 7 5 6 5 5 5 4 3 2 2 1 1 2 2 5
23 40 43 41 40 34 33 33 29 39 34 26 27 31 34 27 26 27 26 17 15 15 13 12 11 10 8 7 5 5 4 6 5 6 5 5 5 4 3 2 1 1 2
24 38 39 36 38 33 30 30 30 32 30 28 29 26 31 25 23 20 20 19 17 14 13 11 11 9 7 8 6 6 5 4 5 6 7 6 8 7 6 4 4 4 2
26 32 43 32 34 36 29 30 30 30 30 30 31 28 28 24 24 22 22 19 16 14 13 11 11 10 7 5 4 5 7 7 6 7 8 7 10 8 8 7 5 5 4
26 29 50 45 39 35 36 32 29 30 30 29 30 31 29 26 24 23 20 18 16 14 13 12 11 8 8 7 7 7 7 8 7 7 8 9 9 10 8 11 9 8 8
20 18 50 48 38 35 38 38 32 29 28 28 28 31 30 27 25 21 19 16 16 15 13 12 10 11 8 7 7 8 8 8 9 8 6 7 8 10 10 10 11 11 12
22 34 32 46 44 44 35 38 32 32 28 27 28 27 29 25 26 25 18 16 16 13 11 12 11 11 10 8 7 8 7 7 8 8 9 10 11 12 13 10 10 11 14
22 30 17 44 44 45 37 39 35 32 28 29 29 28 29 27 28 26 19 18 16 14 14 13 12 12 11 9 6 6 3 7 8 8 7 10 11 14 14 15 16 16 18
29 37 30 29 43 42 40 40 37 31 30 29 26 27 27 27 25 25 20 19 18 16 15 15 15 13 10 10 14 5 2 3 2 8 8 10 10 12 13 16 17 17 17
33 27 38 51 39 46 43 39 37 35 35 32 32 31 29 26 26 24 23 19 18 19 18 16 15 12 15 18 11 10 10 11 5 3 9 9 11 14 9 13 11 13 15
22 37 30 51 52 47 46 41 39 36 35 31 29 28 30 28 26 26 24 21 20 19 16 15 14 15 15 15 14 14 13 11 9 10 9 13 8 11 9 10 12 11 9
23 25 34 34 39 47 37 36 36 35 31 30 28 25 26 30 28 26 25 23 21 18 16 15 15 12 14 18 20 16 14 11 10 8 9 12 13 15 12 12 11 11 11

GFSSE_850_spd_120.txt.gz
Wind_Speed
17 18 30 31 28 23 22 22 22 19 17 15 18 18 17 16 16 16 17 18 18 18 22 21 19 23 22 19 20 21 21 20 20 19 18 16 15 15 14 14 14 14 13
17 19 30 31 29 26 24 23 22 20 17 16 18 17 17 18 17 17 17 18 18 21 24 20 17 19 19 20 20 21 21 20 18 16 15 14 13 13 14 15 16 17 16
15 19 30 31 29 27 25 24 23 21 18 17 18 18 18 19 17 17 16 17 17 23 19 18 17 19 19 19 20 21 22 23 24 16 12 15 15 16 17 17 17 17 17
16 15 30 31 30 28 26 25 23 21 19 17 18 19 19 18 16 18 16 15 19 21 19 19 17 18 19 20 21 22 22 20 18 14 9 15 17 17 17 17 17 16 17
19 15 29 30 30 28 27 25 24 22 20 18 19 20 19 18 18 18 17 16 23 20 19 19 18 19 20 20 20 20 20 20 16 10 11 14 17 17 16 16 16 16 17
22 20 26 30 29 28 26 25 24 23 21 20 21 20 18 18 21 20 21 20 19 21 18 18 19 18 19 18 18 19 18 16 13 12 13 15 16 16 15 15 16 16 16
26 25 17 29 29 28 26 25 24 23 23 23 22 21 22 20 21 25 22 21 19 19 18 17 18 18 17 17 18 19 20 14 9 12 14 15 15 15 15 15 15 15 15
27 24 18 26 28 29 27 25 24 25 25 24 24 24 23 22 22 26 22 21 19 19 19 18 18 17 18 18 17 17 18 12 9 12 13 15 15 15 15 15 14 15 14
25 22 20 25 27 28 27 26 25 26 27 27 26 26 24 23 23 27 22 23 21 20 19 19 18 18 17 17 16 16 17 12 10 12 13 14 14 14 14 14 14 14 14
20 22 23 28 30 30 28 26 26 26 28 28 28 28 24 22 23 26 23 23 22 21 21 20 18 17 16 16 16 16 16 12 7 8 11 12 13 13 13 13 14 13 13
27 26 26 27 32 32 29 28 27 29 28 29 29 28 25 25 26 25 24 24 23 22 21 20 18 16 15 16 16 15 15 10 2 8 9 10 11 11 12 12 12 12 12
30 31 28 29 33 35 30 31 33 31 32 32 32 28 27 28 27 27 25 23 24 22 21 19 17 15 13 14 14 13 12 7 1 6 7 8 8 9 9 9 10 11 10
31 36 35 32 32 34 31 34 36 35 35 34 31 29 28 31 27 26 26 23 24 22 21 19 17 14 12 10 10 12 8 3 1 5 4 4 5 6 6 7 8 10 9
24 32 37 33 34 33 34 34 38 38 39 37 34 28 27 33 30 28 27 25 24 21 20 18 16 12 11 4 7 9 6 6 4 2 2 2 2 3 3 4 5 7 8
26 21 31 34 39 28 37 37 39 40 40 39 32 30 27 32 31 28 28 27 24 20 18 17 12 9 12 10 8 9 10 5 6 4 1 1 1 0 1 2 2 3 5
24 20 29 30 29 52 31 39 41 42 41 37 31 30 28 29 32 30 26 27 23 15 13 14 12 11 11 9 8 7 7 9 7 5 5 4 4 3 3 2 1 1 2
26 25 13 25 38 39 40 42 42 44 40 34 32 31 31 31 32 30 30 25 23 18 16 17 15 12 11 10 8 6 5 2 5 6 7 8 5 6 5 5 4 3 3
33 26 32 24 37 37 31 35 39 39 36 32 35 37 38 34 28 25 28 22 20 22 17 17 16 13 11 11 8 7 8 10 9 4 5 9 8 8 5 6 6 6 6
42 32 31 29 45 44 29 31 32 37 40 34 37 39 38 33 25 24 28 26 25 24 21 19 16 15 13 10 10 9 7 7 6 8 7 6 9 10 9 6 8 9 9
38 27 29 24 53 54 39 35 34 35 36 35 33 30 40 31 32 31 30 30 26 24 21 18 16 13 9 8 7 7 7 5 5 6 7 6 7 11 9 12 11 10 10
31 24 25 28 42 49 46 43 38 38 34 34 37 31 39 34 36 34 30 29 26 24 21 17 15 15 14 12 9 4 2 3 4 6 8 9 10 12 12 11 12 12 12
27 25 20 29 48 42 50 48 46 44 38 37 40 39 37 38 36 35 31 29 26 22 19 17 15 14 12 10 4 3 3 6 6 7 7 6 8 11 11 12 12 15 16
27 25 25 37 35 49 53 51 43 41 38 37 35 40 40 36 36 34 30 27 24 21 20 17 16 14 11 9 9 5 4 2 1 6 6 9 8 9 11 12 14 16 15
25 21 20 34 32 46 44 47 44 45 41 38 39 36 38 33 34 32 28 27 25 23 19 18 16 14 13 11 9 9 8 6 5 4 8 11 11 8 6 9 10 10 10
24 24 26 22 38 30 39 41 43 42 39 38 39 36 39 34 32 33 30 28 26 24 20 18 18 16 13 11 9 8 6 11 10 10 12 13 12 10 8 9 8 9 9
23 26 30 31 28 36 31 41 45 43 41 41 40 41 38 36 33 33 32 26 24 23 21 18 16 15 12 10 8 10 12 10 10 11 11 11 8 10 8 9 13 12 12